[[{"header":{"parameterUnit":"m.s-1","parameterCategory":1,"la1":30.6,"la2":29.2853,"lo1":-89.7004,"lo2":-87.6739,"dy":0.0162,"dx":0.0183,"nx":112,"ny":82,"refTime":"2023-04-09T00:00:00:Z","depth":0,"parameterNumber":2,"parameterNumberName":"U-component_of_WINDS"},"data":[0.0,0.0,0.0,0.0,0.0,0.0,0.0,0.0,0.0,0.0,0.0,0.0,0.0,0.0,0.0,0.0,0.0,0.0,0.0,0.0,0.0,0.0,0.0,0.0,0.0,0.0,0.0,0.0,0.0,0.0,0.0,0.0,0.0,0.0,0.0,0.0,0.0,0.0,0.0,0.0,0.0,0.0,0.0,0.0,0.0,0.0,0.0,0.0,0.0,0.0,0.0,0.0,0.0,0.0,0.0,0.0,0.0,0.0,0.0,0.0,0.0,0.0,0.0,0.0,0.0,0.0,0.0,0.0,0.0,0.0,0.0,0.0,0.0,0.0,0.0,0.0,0.0,0.0,0.0,0.0,0.0,0.0,0.0,0.0,0.0,0.0,0.0,0.0,0.0,0.0,0.0,0.0,0.0,0.0,0.0,0.0,0.0,0.0,0.0,0.0,0.0,0.0,0.0,0.0,0.0,0.0,0.0,0.0,0.0,0.0,0.0,0.0,0.0,0.0,0.0,0.0,0.0,0.0,0.0,0.0,0.0,0.0,0.0,0.0,0.0,0.0,0.0,0.0,0.0,0.0,0.0,0.0,0.0,0.0,0.0,0.0,0.0,0.0,0.0,0.0,0.0,0.0,0.0,0.0,0.0,0.0,0.0,0.0,0.0,0.0,0.0,0.0,0.0,0.0,0.0,0.0,0.0,0.0,0.0,0.0,0.0,0.0,0.0,0.0,0.0,0.0,0.0,0.0,0.0,0.0,0.0,0.0,0.0,0.0,0.0,0.0,0.0,0.0,0.0,0.0,0.0,0.0,0.0,0.0,0.0,0.0,0.0,0.0,0.0,0.0,0.0,0.0,0.0,0.0,0.0,0.0,0.0,0.0,0.0,0.0,0.0,0.0,0.0,0.0,0.0,0.0,0.0,0.0,0.0,0.0,0.0,0.0,0.0,0.0,0.0,0.0,0.0,0.0,0.0,0.0,0.0,0.0,0.0,0.0,0.0,0.0,0.0,0.0,0.0,0.0,0.0,0.0,0.0,0.0,0.0,0.0,0.0,0.0,0.0,0.0,0.0,0.0,0.0,0.0,0.0,0.0,0.0,0.0,0.0,0.0,0.0,0.0,0.0,0.0,0.0,0.0,0.0,0.0,0.0,0.0,0.0,0.0,0.0,0.0,0.0,0.0,0.0,0.0,0.0,0.0,0.0,0.0,0.0,0.0,0.0,0.0,0.0,0.0,0.0,0.0,0.0,0.0,0.0,0.0,0.0,0.0,0.0,0.0,0.0,0.0,0.0,0.0,0.0,0.0,0.0,0.0,0.0,0.0,0.0,0.0,0.0,0.0,0.0,0.0,0.0,0.0,0.0,0.0,0.0,0.0,0.0,0.0,0.0,0.0,0.0,0.0,0.0,0.0,0.0,0.0,0.0,0.0,0.0,0.0,0.0,0.0,0.0,0.0,0.0,0.0,0.0,0.0,0.0,0.0,0.0,0.0,0.0,0.0,0.0,0.0,0.0,0.0,0.0,0.0,0.0,0.0,0.0,0.0,0.0,0.0,0.0,0.0,0.0,0.0,0.0,0.0,0.0,0.0,0.0,0.0,0.0,0.0,0.0,0.0,0.0,0.0,0.0,0.0,0.0,0.0,0.0,0.0,0.0,0.0,0.0,0.0,0.0,0.0,0.0,0.0,0.0,0.0,0.0,0.0,0.0,0.0,0.0,0.0,0.0,0.0,0.0,0.0,0.0,0.0,0.0,0.0,0.0,0.0,0.0,0.0,0.0,0.0,0.0,0.0,0.0,0.0,0.0,0.0,0.0,0.0,0.0,0.0,0.0,0.0,0.0,0.0,0.0,0.0,0.0,0.0,0.0,0.0,0.0,0.0,0.0,-0.0615,-0.0613,-0.0608,-0.0305,0.0,0.0,0.0,0.0,0.0,0.0,0.0,0.0,0.0,0.0,0.0,0.0,0.0,0.0,0.0,0.0,0.0,0.0,0.0,0.0,0.0,0.0,0.0,0.0,0.0,0.0,0.0,0.0,0.0,0.0,0.0,0.0,0.0,0.0,0.0,0.0,0.0,0.0,0.0,0.0,0.0,0.0,0.0,0.0,0.0,0.0,0.0,0.0,0.0,0.0,0.0,0.0,0.0,0.0,0.0,0.0,0.0,0.0,0.0,0.0,0.0,0.0,0.0,0.0,0.0,0.0,0.0,0.0,0.0,0.0,0.0,0.0,0.0,0.0,0.0,0.0,0.0,0.0,0.0,0.0,0.0,0.0,0.0,0.0,0.0,0.0,0.0,0.0,0.0,0.0,0.0,0.0,0.0,0.0,0.0,0.0,0.0,0.0,0.0,0.0,0.0,0.0,0.0,0.0,0.0,0.0,0.0,0.0,-0.2288,-0.2281,-0.2306,-0.0933,0.0,0.0,0.0,0.0,0.0,0.0,0.0,0.0,0.0,0.0,0.0,0.0,0.0,0.0,0.0,0.0,0.0,0.0,0.0,0.0,0.0,0.0,0.0,0.0,0.0,0.0,0.0,0.0,0.0,0.0,0.0,0.0,0.0,0.0,0.0,0.0,0.0,0.0,0.0,0.0,0.0,0.0,0.0,0.0,0.0,0.0,0.0,0.0,0.0,0.0,0.0,0.0,0.0,0.0,0.0,0.0,0.0,0.0,0.0,0.0,0.0,0.0,0.0,0.0,0.0,0.0,0.0,0.0,0.0,0.0,0.0,0.0,0.0,0.0,0.0,0.0,0.0,0.0,0.0,0.0,0.0,0.0,0.0,0.0,0.0,0.0,0.0,0.0,0.0,0.0,0.0,0.0,0.0,0.0,0.0,0.0,0.0,0.0,0.0,0.0,0.0,0.0,0.0,0.0,0.0,0.0,0.0,0.0,-0.3629,-0.4275,-0.4293,-0.3674,-0.3371,-0.3385,-0.3399,-0.2923,-0.1788,0.0,0.0,0.0,0.0,0.0,0.0,0.0,0.0,0.0,0.0,0.0,0.0,0.0,0.0,0.0,0.0,0.0,0.0,0.0,0.0,0.0,0.0,0.0,0.0,0.0,0.0,0.0,0.0,0.0,0.0,0.0,0.0,0.0,0.0,0.0,0.0,0.0,0.0,0.0,0.0,0.0,0.0,0.0,0.0,0.0,0.0,0.0,0.0,0.0,0.0,0.0,0.0,0.0,0.0,0.0,0.0,0.0,0.0,0.0,0.0,0.0,0.0,0.0,0.0,0.0,0.0,0.0,0.0,0.0,0.0,0.0,0.0,0.0,0.0,0.0,0.0,0.0,0.0,0.0,0.0,0.0,0.0,0.0,0.0,0.0,0.0,0.0,0.0,0.0,0.0,0.0,0.0,0.0,0.0,0.0,0.0,0.0,0.0,0.0,0.0,0.0,0.0,-0.4323,-0.5486,-0.6169,-0.6191,-0.5706,-0.5389,-0.5409,-0.5412,-0.4921,-0.361,0.0,0.0,0.0,0.0,0.0,0.0,0.0,0.0,0.0,0.0,0.0,0.0,0.0,0.0,0.0,0.0,0.0,0.0,0.0,0.0,0.0,0.0,0.0,0.0,0.0,0.0,0.0,0.0,0.0,0.0,0.0,0.0,0.0,0.0,0.0,0.0,0.0,0.0,0.0,0.0,0.0,0.0,0.0,0.0,0.0,0.0,0.0,0.0,0.0,0.0,0.0,0.0,0.0,0.0,0.0,0.0,0.0,0.0,0.0,0.0,0.0,0.0,0.0,0.0,0.0,0.0,0.0,0.0,0.0,0.0,0.0,0.0,0.0,0.0,0.0,0.0,0.0,0.0,0.0,0.0,0.0,0.0,0.0,0.0,0.0,0.0,0.0,0.0,0.0,0.0,0.0,0.0,0.0,0.0,0.0,0.0,0.0,0.0,0.0,0.0,0.0,0.0,-0.794,-0.7944,-0.7981,-0.7909,-0.6437,-0.5474,-0.5535,-0.5541,-0.5373,0.0,0.0,0.0,0.0,0.0,0.0,0.0,0.0,0.0,0.0,0.0,0.0,0.0,0.0,0.0,0.0,0.0,0.0,0.0,0.0,0.0,0.0,0.0,0.0,0.0,0.0,0.0,0.0,0.0,0.0,0.0,0.0,0.0,0.0,0.0,0.0,0.0,0.0,0.0,0.0,0.0,0.0,0.0,0.0,0.0,0.0,0.0,0.0,0.0,0.0,0.0,0.0,0.0,0.0,0.0,0.0,0.0,0.0,0.0,0.0,0.0,0.0,0.0,0.0,0.0,0.0,0.0,0.0,0.0,0.0,0.0,0.0,0.0,0.0,0.0,0.0,0.0,0.0,0.0,0.0,0.0,0.0,0.0,0.0,0.0,0.0,0.0,0.0,0.0,0.0,0.0,0.0,0.0,0.0,0.0,0.0,0.0,0.0,0.0,0.0,0.0,0.0,0.0,-0.804,-0.9155,-1.0095,-0.9963,-0.9695,-0.9413,-0.9445,-0.9445,-0.8932,-0.7559,0.0,0.0,0.0,0.0,0.0,0.0,0.0,0.0,0.0,0.0,0.0,0.0,0.0,0.0,0.0,0.0,0.0,0.0,0.0,0.0,0.0,0.0,0.0,0.0,0.0,0.0,0.0,0.0,0.0,0.0,0.0,0.0,0.0,0.0,0.0,0.0,0.0,0.0,0.0,0.0,0.0,0.0,0.0,0.0,0.0,0.0,0.0,0.0,0.0,0.0,0.0,0.0,0.0,0.0,0.0,0.0,0.0,0.0,0.0,0.0,0.0,0.0,0.0,0.0,0.0,0.0,0.0,0.0,0.0,0.0,0.0,0.0,0.0,0.0,0.0,0.0,0.0,0.0,0.0,0.0,0.0,0.0,0.0,0.0,0.0,0.0,0.0,0.0,0.0,0.0,0.0,0.0,0.0,0.0,0.0,0.0,0.0,0.0,0.0,0.0,0.0,0.0,-0.9254,-1.0218,-1.0992,-1.0992,-1.1058,-1.1101,-1.1101,-1.1101,-1.0579,-0.9539,0.0,0.0,0.0,0.0,0.0,0.0,0.0,0.0,0.0,0.0,0.0,0.0,0.0,0.0,0.0,0.0,0.0,0.0,0.0,0.0,0.0,0.0,0.0,0.0,0.0,0.0,0.0,0.0,0.0,0.0,0.0,0.0,0.0,0.0,0.0,0.0,0.0,0.0,0.0,0.0,0.0,0.0,0.0,0.0,0.0,0.0,0.0,0.0,0.0,0.0,0.0,0.0,0.0,0.0,0.0,0.0,0.0,0.0,0.0,0.0,0.0,0.0,0.0,0.0,0.0,0.0,0.0,0.0,0.0,0.0,0.0,0.0,0.0,0.0,0.0,0.0,0.0,0.0,0.0,0.0,0.0,0.0,0.0,0.0,0.0,0.0,0.0,0.0,0.0,0.0,0.0,0.0,0.0,0.0,0.0,0.0,0.0,0.0,0.0,0.0,0.0,0.0,-1.1085,-1.1285,-1.129,-1.129,-1.1301,-1.1307,-1.1307,-1.1307,-1.1134,-1.1134,0.0,0.0,0.0,0.0,0.0,0.0,0.0,0.0,0.0,0.0,0.0,0.0,0.0,0.0,0.0,0.0,0.0,0.0,0.0,0.0,0.0,0.0,0.0,0.0,0.0,0.0,0.0,0.0,0.0,0.0,0.0,0.0,0.0,0.0,0.0,0.0,0.0,0.0,0.0,0.0,0.0,0.0,0.0,0.0,0.0,0.0,0.0,0.0,0.0,0.0,0.0,0.0,0.0,0.0,0.0,0.0,0.0,0.0,0.0,0.0,-0.2041,-0.1316,0.0,0.0,0.0,0.0,0.0,0.0,0.0,0.0,0.0,0.0,0.0,0.0,0.0,0.0,0.0,0.0,0.0,0.0,0.0,0.0,0.0,0.0,0.0,0.0,0.0,0.0,0.0,0.0,0.0,0.0,0.0,0.0,0.0,0.0,0.0,0.0,0.0,0.0,0.0,0.0,-1.1607,-1.2044,-1.2283,-1.2283,-1.2378,-1.2437,-1.2437,-1.2261,-1.1908,-1.1908,-1.1555,0.0,0.0,0.0,0.0,0.0,0.0,0.0,0.0,0.0,0.0,0.0,0.0,0.0,0.0,0.0,0.0,0.0,0.0,0.0,0.0,0.0,0.0,0.0,0.0,0.0,0.0,0.0,0.0,0.0,0.0,0.0,0.0,0.0,0.0,0.0,0.0,0.0,0.0,0.0,0.0,0.0,0.0,0.0,0.0,0.0,0.0,0.0,0.0,0.0,0.0,0.0,0.0,0.0,0.0,0.0,0.0,0.0,0.0,0.0,-0.4479,-0.388,0.0,0.0,0.0,0.0,0.0,0.0,0.0,0.0,0.0,0.0,0.0,0.0,0.0,0.0,0.0,0.0,0.0,0.0,0.0,0.0,0.0,0.0,0.0,0.0,0.0,0.0,0.0,0.0,0.0,0.0,0.0,0.0,0.0,0.0,0.0,0.0,0.0,0.0,0.0,0.0,-1.2044,-1.265,-1.2894,-1.2955,-1.3022,-1.3065,-1.3065,-1.2885,-1.2705,-1.2705,-1.2344,0.0,0.0,0.0,0.0,0.0,0.0,0.0,0.0,0.0,0.0,0.0,0.0,0.0,0.0,0.0,0.0,0.0,0.0,0.0,0.0,0.0,0.0,0.0,0.0,0.0,0.0,0.0,0.0,0.0,0.0,0.0,0.0,0.0,0.0,0.0,0.0,0.0,0.0,0.0,0.0,0.0,0.0,0.0,0.0,0.0,0.0,0.0,0.0,0.0,0.0,0.0,0.0,0.0,-0.1366,-0.1822,-0.2428,-0.3799,-0.5651,-0.7851,-0.7465,-0.728,-0.7133,-0.5167,0.0,0.0,0.0,0.0,0.0,0.0,0.0,0.0,0.0,0.0,0.0,0.0,0.0,0.0,0.0,0.0,0.0,0.0,0.0,0.0,0.0,0.0,-0.8475,-0.8232,-1.0688,-1.2894,-1.2213,0.0,0.0,0.0,0.0,0.0,0.0,0.0,0.0,0.0,0.0,0.0,-1.2722,-1.312,-1.3338,-1.3443,-1.3455,-1.3455,-1.3455,-1.3455,-1.3455,-1.3455,-1.2907,-1.2724,0.0,0.0,0.0,0.0,0.0,0.0,0.0,0.0,0.0,0.0,0.0,0.0,0.0,0.0,0.0,0.0,0.0,0.0,0.0,0.0,0.0,0.0,0.0,0.0,0.0,0.0,0.0,0.0,0.0,0.0,0.0,0.0,2.028,2.012,0.0,0.0,0.0,0.0,0.0,0.0,0.0,0.0,0.0,0.0,0.0,0.0,0.0,0.4538,0.3152,0.1353,0.0452,0.0303,-0.153,-0.3842,-0.675,-0.698,-0.8726,-1.1689,-1.167,0.0,-0.8867,-0.7162,0.0,0.0,0.0,0.0,0.0,0.0,0.0,0.0,0.0,0.0,0.0,0.0,0.0,0.0,0.0,0.0,0.0,0.0,0.0,0.0,0.0,0.0,-1.2752,-1.2885,-1.3278,-1.3626,-1.3566,-1.2715,-1.2216,-1.2411,-1.2429,-1.2521,0.0,0.0,0.0,0.0,0.0,0.0,-1.3795,-1.4166,-1.4537,-1.4557,-1.4557,-1.4557,-1.4557,-1.4192,-1.3821,-1.3821,-1.3455,-1.3272,-1.3272,-1.2724,0.0,0.0,0.0,0.0,0.0,0.0,0.0,0.0,0.0,0.0,0.0,0.0,0.0,0.0,0.0,0.0,0.0,0.0,0.0,0.0,0.0,0.0,0.0,0.0,0.0,0.0,0.0,0.0,0.0,2.0984,1.9633,1.9309,1.7462,1.6126,0.0,0.0,0.0,0.0,0.0,0.0,0.0,0.0,0.0,0.3561,0.3565,0.2398,0.0153,-0.0764,-0.1228,-0.1236,-0.202,-0.3737,-0.6062,-0.703,-0.8759,-1.1095,-1.2037,-1.203,-1.094,-0.9382,-0.8599,-0.8283,0.0,0.0,0.0,0.0,-0.6751,-0.5528,-0.7421,-0.8243,-0.8291,-0.8335,0.0,0.0,0.0,0.0,0.0,0.0,0.0,-0.9666,-1.1757,-1.2325,-1.2582,-1.376,-1.3973,-1.4014,-1.4183,-1.3865,-1.3663,-1.3591,-1.3702,-1.3853,-1.3803,-1.3642,0.0,0.0,0.0,-1.4035,-1.4119,-1.4501,-1.4903,-1.4977,-1.4991,-1.4991,-1.4991,-1.4798,-1.4613,-1.4613,-1.4242,-1.387,-1.387,-1.3499,-1.3097,0.0,0.0,0.0,0.0,0.0,0.0,0.0,0.0,0.0,0.0,0.0,0.0,0.0,0.0,0.0,0.0,0.0,0.0,0.0,0.0,0.0,0.0,0.0,0.0,0.0,0.0,0.0,0.0,2.0672,1.9349,1.8807,1.7141,1.5791,0.0,0.0,0.0,0.0,0.0,0.0,0.7915,0.7056,0.5197,0.2123,0.2126,0.0611,-0.248,-0.248,-0.2492,-0.2514,-0.2514,-0.3609,-0.5639,-0.6889,-0.8618,-1.0837,-1.1934,-1.2583,-1.2454,-1.1125,-1.0964,-1.1311,-1.0526,-0.9599,-0.8678,-0.9625,-0.8883,-0.7827,-0.9744,-1.0605,-1.0683,-1.0711,-1.0605,-1.034,-0.9216,0.0,0.0,0.0,0.0,-1.0563,-1.3197,-1.2884,-1.2421,-1.3793,-1.4217,-1.4299,-1.4523,-1.4604,-1.4584,-1.4441,-1.459,-1.4753,-1.4794,-1.4428,0.0,-1.429,-1.4297,-1.4336,-1.4454,-1.4839,-1.5065,-1.5174,-1.5181,-1.5181,-1.5181,-1.5181,-1.5181,-1.5181,-1.4805,-1.461,-1.461,-1.4052,-1.3633,-1.3156,0.0,0.0,0.0,0.0,0.0,0.0,0.0,0.0,0.0,0.0,0.0,0.0,0.0,0.0,0.0,0.0,0.0,0.0,0.0,0.0,0.0,0.0,0.0,0.0,0.0,0.0,0.0,0.0,0.0,1.9244,1.684,0.0,0.0,0.0,0.0,1.0973,0.9512,0.8016,0.6187,0.6043,0.4555,0.1384,0.1231,0.0,-0.2511,-0.2512,-0.2512,-0.2514,-0.2514,-0.4236,-0.7357,-0.7513,-0.9286,-1.2561,-1.2718,-1.28,-1.2915,-1.2467,-1.1485,-1.0498,-1.1924,-1.0725,-0.8411,-1.1641,-1.1801,-1.0512,-1.2301,-1.2795,-1.2822,-1.295,-1.2014,-1.1227,-1.2892,-1.2258,0.0,0.0,-1.366,-1.37,-1.4021,-1.417,-1.4135,-1.4455,-1.4604,-1.4713,-1.4726,-1.4841,-1.4903,-1.4746,-1.4726,-1.4787,-1.4936,0.0,-1.5004,-1.514,-1.516,-1.516,-1.5174,-1.5174,-1.5174,-1.5181,-1.5181,-1.5181,-1.5181,-1.5181,-1.5181,-1.5181,-1.5181,-1.5181,-1.5181,-1.4617,-1.4422,-1.4416,-1.3293,0.0,0.0,0.0,0.0,0.0,0.0,0.0,0.0,0.0,0.0,0.0,0.0,0.0,0.0,0.0,0.0,0.0,0.0,0.0,0.0,0.0,0.0,0.0,0.0,0.0,0.0,0.0,0.0,1.7417,1.5739,0.0,1.3396,1.1837,1.0245,0.8907,0.7178,0.5889,0.5358,0.4594,0.3233,0.1402,0.0468,-0.0781,-0.2514,-0.2514,-0.2514,-0.2514,-0.2514,-0.4252,-0.7595,-0.7595,-0.955,-1.2881,-1.2881,-1.2908,-1.2949,-1.284,-1.2509,-1.2077,-1.2715,-1.2262,-1.1338,-1.2635,-1.2688,-1.2287,-1.3043,-1.3308,-1.3417,-1.3553,-1.316,-1.2911,-1.3653,-1.3389,-1.3114,-1.3814,-1.4122,-1.4285,-1.434,-1.4468,-1.4597,-1.4645,-1.4699,-1.4767,-1.4869,-1.493,-1.4984,-1.5018,-1.5025,-1.5045,-1.5099,-1.5106,-1.5126,-1.5174,-1.5181,-1.5181,-1.5181,-1.5181,-1.5181,-1.5181,-1.5181,-1.5181,-1.5181,-1.5181,-1.5181,-1.5181,-1.5181,-1.5181,-1.5181,-1.4993,-1.4805,-1.4422,-1.4052,-1.3487,0.0,0.0,0.0,0.0,0.0,0.0,0.0,0.0,0.0,0.0,0.0,0.0,0.0,0.0,0.0,0.0,0.0,0.0,0.0,0.0,0.0,0.0,0.0,0.0,0.0,1.776,1.6323,1.6676,1.4806,1.3294,1.259,1.0351,0.8527,0.7578,0.578,0.4902,0.4962,0.3723,0.2495,0.1262,0.0,-0.1265,-0.2544,-0.2544,-0.2544,-0.2544,-0.2544,-0.4303,-0.7689,-0.7689,-0.9667,-1.303,-1.303,-1.3064,-1.3112,-1.3166,-1.3186,-1.3173,-1.3071,-1.3091,-1.3186,-1.3186,-1.3275,-1.341,-1.3512,-1.3614,-1.3722,-1.3871,-1.3919,-1.3939,-1.4034,-1.4136,-1.4231,-1.4285,-1.4434,-1.459,-1.459,-1.4706,-1.4821,-1.4821,-1.4855,-1.4916,-1.5018,-1.5038,-1.5072,-1.5167,-1.5181,-1.5181,-1.5181,-1.5181,-1.5181,-1.5181,-1.5181,-1.5181,-1.5181,-1.5181,-1.5181,-1.5181,-1.5181,-1.5181,-1.5181,-1.5228,-1.5235,-1.5187,-1.5228,-1.5235,-1.5181,-1.5228,-1.5046,-1.4617,-1.4422,-1.4052,-1.3116,0.0,0.0,0.0,0.0,0.0,0.0,0.0,0.0,0.0,0.0,0.0,0.0,0.0,0.0,0.0,0.0,0.0,0.0,0.0,0.0,0.0,0.0,0.0,1.825,1.7476,1.6758,1.6836,1.4178,1.2318,1.2331,0.92,0.7137,0.7068,0.5704,0.4965,0.4863,0.377,0.2527,0.1118,-0.016,-0.1286,-0.2601,-0.2601,-0.2601,-0.2601,-0.2601,-0.4383,-0.7782,-0.7782,-0.9779,-1.318,-1.3186,-1.3268,-1.3417,-1.3573,-1.3634,-1.3607,-1.3308,-1.3376,-1.3634,-1.3634,-1.3729,-1.3844,-1.3844,-1.3851,-1.3878,-1.4034,-1.4089,-1.4143,-1.4428,-1.4516,-1.455,-1.4699,-1.474,-1.4746,-1.4746,-1.4862,-1.4977,-1.4977,-1.5079,-1.5181,-1.5181,-1.5181,-1.5181,-1.5181,-1.5181,-1.5181,-1.5181,-1.5181,-1.5181,-1.5181,-1.5181,0.0,-1.5181,-1.5187,-1.5187,-1.5181,-1.5187,-1.5187,-1.5181,-1.5316,-1.5343,-1.5201,-1.533,-1.5343,-1.5201,-1.5337,-1.535,-1.5201,-1.463,-1.4253,-1.3694,0.0,0.0,0.0,0.0,0.0,0.0,0.0,0.0,0.0,0.0,0.0,0.0,0.0,0.0,0.0,0.0,0.0,0.0,0.0,0.0,0.0,1.81,1.6905,1.6957,1.5867,1.494,1.513,1.328,1.1586,1.0515,0.8555,0.6765,0.5612,0.5193,0.4596,0.3656,0.2404,0.1129,-0.0162,-0.1456,-0.2269,-0.2601,-0.2601,-0.2601,-0.2601,-0.2601,-0.3754,-0.6079,-0.7386,-0.9245,-1.1511,-1.2951,-1.3526,-1.358,-1.3722,-1.3783,-1.3777,-1.3688,-1.3709,-1.3783,-1.3783,-1.3878,-1.4007,-1.4007,-1.4082,-1.4197,-1.4346,-1.4387,-1.4428,-1.4618,-1.4679,-1.4685,-1.4726,-1.4821,-1.4909,-1.4909,-1.5018,-1.5126,-1.5126,-1.5153,-1.5181,-1.5181,-1.5181,-1.5181,-1.5181,-1.5181,-1.5181,-1.5181,-1.5181,-1.5181,-1.5181,-1.5181,0.0,-1.5181,-1.5276,-1.5303,-1.5194,-1.5282,-1.5303,-1.5194,-1.5221,-1.5276,-1.5343,-1.5391,-1.5445,-1.5513,-1.5554,-1.5554,-1.5513,-1.4937,-1.4745,0.0,0.0,0.0,0.0,0.0,0.0,0.0,0.0,0.0,0.0,0.0,0.0,0.0,0.0,0.0,0.0,0.0,0.0,0.0,0.0,0.0,0.0,1.7067,1.5849,1.5822,1.4838,1.4351,1.4529,1.2435,1.0672,0.9883,0.7778,0.5955,0.5055,0.5115,0.4505,0.3219,0.1943,0.0652,-0.0655,-0.1965,-0.2627,-0.2639,-0.2639,-0.2639,-0.2639,-0.2639,-0.3649,-0.536,-0.7194,-0.9082,-1.0873,-1.2822,-1.3715,-1.3729,-1.3878,-1.3939,-1.3933,0.0,0.0,0.0,0.0,-1.4089,-1.4177,-1.4238,-1.4312,-1.4414,-1.4557,-1.4604,-1.4638,-1.4787,-1.4835,-1.4848,-1.4909,-1.4991,-1.5059,-1.5059,-1.512,-1.5181,-1.5181,-1.5181,-1.5181,-1.5181,-1.5181,-1.5181,-1.5181,-1.5181,0.0,-1.5269,-1.5221,-1.5181,-1.5181,-1.5181,-1.5181,-1.5181,-1.5262,-1.5282,-1.5194,-1.5262,-1.5276,-1.5187,-1.5242,0.0,0.0,0.0,-1.5452,-1.554,-1.5479,0.0,0.0,0.0,-1.5188,-1.5248,-1.4861,0.0,0.0,-1.4044,-1.4081,0.0,0.0,0.0,0.0,0.0,0.0,0.0,0.0,0.0,0.0,0.0,0.0,0.0,0.0,0.0,0.0,1.5919,1.4529,1.4708,1.4611,1.4428,1.4414,1.1689,0.9746,0.9692,0.6979,0.5123,0.5123,0.5177,0.456,0.3092,0.1956,0.0,0.0,0.0,-0.2665,-0.2692,-0.2692,-0.2694,-0.2698,-0.2698,-0.3558,-0.513,-0.7174,-0.8919,-1.073,-1.265,-1.3693,-1.3878,-1.4034,-1.4109,-1.4109,-1.3953,-1.398,-1.4116,-1.4272,-1.4326,-1.4346,-1.4489,0.0,0.0,-1.4713,-1.4767,-1.4794,-1.495,-1.4997,-1.5018,-1.5147,-1.5181,-1.5181,-1.5181,-1.5181,-1.5181,-1.5181,-1.5181,-1.5181,-1.5181,-1.5181,-1.5187,-1.5208,-1.5208,-1.5255,-1.5411,-1.5309,-1.5208,-1.5208,-1.5208,-1.5201,-1.5181,-1.5201,-1.5201,-1.5181,0.0,0.0,-1.5181,-1.5309,-1.5337,-1.5215,-1.535,-1.5438,-1.5438,-1.5303,-1.5364,-1.5635,-1.5506,-1.5506,-1.5642,-1.5642,-1.5635,-1.5828,-1.4841,-1.4454,0.0,0.0,0.0,0.0,0.0,0.0,0.0,0.0,0.0,0.0,0.0,0.0,0.0,0.0,0.0,1.7556,1.5984,1.4716,1.4887,1.5009,1.457,1.307,1.1137,0.9489,0.8251,0.6267,0.5185,0.5185,0.5243,0.4285,0.1813,0.1496,0.0167,-0.218,-0.2515,-0.2687,-0.2692,-0.2692,-0.2705,-0.2729,-0.2729,0.0,-0.3293,-0.5189,-0.709,-0.9008,-1.083,-1.2625,-1.4041,-1.419,-1.4326,-1.4414,-1.4265,-1.4231,-1.4272,-1.4421,-1.4468,-1.4489,-1.4645,-1.4699,-1.4719,-1.4875,-1.493,-1.495,-1.5099,-1.514,0.0,-1.5174,-1.5181,-1.5181,-1.5181,-1.5181,-1.5181,-1.5181,-1.5181,-1.5181,-1.5181,-1.5181,-1.5221,-1.5343,-1.5364,-1.5418,-1.5567,-1.5466,-1.5364,-1.5364,-1.5364,-1.5323,-1.5201,-1.5289,-1.5316,-1.5194,-1.5296,-1.5316,-1.5194,-1.5208,-1.5269,-1.5357,-1.5513,-1.5594,-1.5594,-1.5567,-1.5581,-1.5635,-1.5608,-1.5608,-1.5642,-1.5642,-1.6401,-1.792,-1.6074,-1.5328,0.0,0.0,0.0,0.0,0.0,0.0,0.0,0.0,0.0,0.0,0.0,2.2077,2.0635,0.0,1.7417,1.6596,1.5582,1.4895,1.5074,1.4392,1.3625,1.261,1.1142,0.9631,0.7877,0.6185,0.5248,0.5248,0.5305,0.4169,0.15,0.134,0.0,-0.2692,-0.2692,-0.2699,-0.2716,-0.2716,-0.2731,-0.2761,-0.2761,-0.2777,-0.2806,-0.4726,-0.6663,-0.8628,-1.0439,-1.2413,-1.4197,-1.4346,-1.4489,-1.4618,-1.455,-1.4523,-1.4529,-1.4597,-1.4624,-1.4652,-1.4801,-1.4855,-1.4882,-1.5031,-1.5079,-1.5092,-1.516,-1.5181,-1.5181,-1.5181,-1.5181,-1.5181,-1.5181,-1.5181,-1.5181,-1.5181,-1.5181,-1.5181,-1.5181,-1.5242,-1.5316,-1.5398,-1.5472,-1.5574,-1.5723,-1.5683,-1.5608,-1.5533,-1.5527,-1.5499,-1.5418,-1.5479,-1.5493,-1.5418,-1.5479,-1.5493,-1.5418,-1.5411,-1.5445,-1.552,-1.5594,-1.5642,-1.5642,-1.6594,-1.7203,-1.7277,-1.8246,-1.8866,-1.8948,-1.9045,-1.9086,-1.889,-1.802,-1.7314,0.0,0.0,0.0,0.0,0.0,0.0,0.0,2.5905,2.5257,2.33,2.2291,2.0955,1.8832,1.7703,1.6747,1.5761,1.5017,1.4609,1.479,1.3253,1.2001,1.1684,1.0655,0.9264,0.7328,0.6095,0.5311,0.5311,0.5357,0.4204,0.1512,0.1344,0.0,-0.2532,-0.2701,-0.2716,-0.2746,-0.2747,-0.2762,-0.2792,-0.2792,-0.2808,-0.2837,-0.4427,-0.6396,-0.8765,-1.0926,-1.2918,-1.4394,-1.4509,-1.4645,-1.4787,-1.4787,-1.4801,-1.4821,-1.4794,-1.4787,-1.4808,-1.4957,-1.5011,-1.5031,-1.5147,-1.5181,-1.5181,-1.5181,-1.5181,-1.5181,-1.5181,-1.5181,-1.5181,-1.5181,-1.5181,-1.5181,-1.5181,-1.5181,-1.5194,-1.5221,-1.5323,-1.5432,-1.5486,-1.5594,-1.5723,-1.5872,-1.59,-1.5852,-1.5703,-1.5683,-1.5669,-1.5642,-1.5642,-1.5642,-1.5642,-1.5642,-1.5642,-1.5642,-1.5642,-1.5649,-1.5676,-1.5683,-1.5696,-1.5723,-1.7456,-1.8277,-1.8411,-2.0553,-2.1402,-2.1165,-2.173,-2.1416,-2.0024,-1.9626,-1.9018,3.0443,2.8535,2.6455,2.6681,2.5733,2.4873,0.0,2.4247,2.3182,2.2212,2.0409,1.8684,1.7365,1.633,1.5761,1.5335,1.3945,1.2889,1.304,1.172,1.0009,0.8534,0.822,0.7409,0.5775,0.5505,0.5373,0.5373,0.5382,0.4204,0.1512,0.1344,0.0,-0.2561,-0.2732,-0.2747,-0.2778,-0.2778,-0.2793,-0.2823,-0.2823,-0.284,-0.2868,-0.3047,-0.5194,-0.8769,-1.2627,-1.4383,-1.4692,-1.4706,-1.4808,-1.4943,-1.4943,-1.5025,-1.512,-1.4991,-1.4943,-1.4964,-1.5106,-1.516,-1.516,-1.5174,-1.5181,-1.5181,-1.5181,-1.5181,-1.5181,-1.5181,-1.5181,-1.5181,-1.5181,-1.5181,-1.5181,-1.5181,-1.5181,-1.5221,-1.5357,-1.5398,-1.5486,-1.575,-1.5818,-1.5879,-1.6029,-1.6056,-1.6001,-1.5852,-1.5832,-1.5784,-1.5655,-1.5642,-1.5642,-1.5642,-1.5642,-1.5642,-1.5642,-1.5642,-1.5689,-1.5818,-1.5832,-1.5893,-1.6029,-1.6227,-1.6432,-1.6446,-1.8608,-1.8813,-1.6864,-1.8853,-2.062,-2.1986,-2.0226,-1.8321,2.8359,2.7267,2.6241,2.581,2.5216,2.4578,2.4176,2.3469,2.2369,2.0477,1.9054,1.7869,1.6366,1.5769,1.5302,1.5228,1.3734,1.2722,1.2876,1.0666,0.8592,0.7987,0.7002,0.6174,0.5346,0.5371,0.5384,0.5384,0.471,0.3372,0.1357,0.0509,-0.0683,-0.2763,-0.2765,-0.2778,-0.281,-0.281,-0.2825,-0.2855,-0.2855,-0.2861,-0.2875,-0.289,-0.5079,-0.8923,-1.2975,-1.4733,-1.4875,-1.4875,-1.4964,-1.5092,-1.5092,-1.5126,-1.5174,-1.5113,-1.5092,-1.5106,-1.516,-1.5181,-1.5181,-1.5181,-1.5181,-1.5181,-1.5181,-1.5181,-1.5181,-1.5181,-1.5181,-1.5181,-1.5181,-1.5181,-1.5181,-1.5181,-1.5248,-1.5337,-1.5398,-1.5547,-1.5703,-1.5825,-1.5927,-1.6008,-1.6069,-1.6083,-1.6062,-1.5995,-1.5988,-1.5967,-1.5906,-1.5893,-1.5893,-1.5893,-1.5974,-1.6616,-1.778,-1.8069,-1.8153,-1.8221,-1.8229,-1.7665,-1.6334,-1.7538,-1.8134,-1.8134,-2.1514,-2.2907,-2.1913,-2.4227,-2.5294,-2.4696,-2.4026,-2.2517,2.6568,2.6199,2.6069,2.4969,2.4567,2.4286,2.321,2.2323,2.1184,1.8957,1.7898,1.7111,1.5804,1.5302,1.5268,1.5366,1.3561,1.223,1.237,0.9433,0.715,0.7212,0.6218,0.539,0.5409,0.5395,0.5392,0.5409,0.4223,0.2714,0.1372,0.0,-0.1382,-0.2795,-0.2796,-0.2811,-0.2841,-0.2841,-0.2852,-0.2874,-0.2882,-0.2886,-0.2886,-0.4005,-0.6425,-0.9995,-1.3321,-1.4889,-1.5031,-1.5031,-1.5086,-1.5181,-1.5181,-1.5181,-1.5181,-1.5181,-1.5181,-1.5181,-1.5181,-1.5181,-1.5181,-1.5181,-1.5181,-1.5181,-1.5181,-1.5181,-1.5181,-1.5181,-1.5181,-1.5181,-1.5181,-1.5181,-1.5181,-1.5181,-1.5303,-1.5425,-1.5466,-1.5676,-1.5866,-1.5906,-1.6008,-1.6083,-1.6083,-1.6672,-1.6864,-1.6864,-1.7452,-1.765,-1.7062,-1.7452,-1.7665,-1.712,-1.7629,-1.8714,-2.035,-2.0679,-2.0376,-1.9825,-2.0426,-1.9841,-1.766,-1.9693,-2.0705,-2.0705,-2.4346,-2.5967,-2.5364,-2.7773,-2.8266,-2.6648,-2.6885,-2.6571,2.5547,2.5628,2.5678,2.3971,2.3628,2.3113,2.1519,2.0236,1.9057,1.8138,1.7102,1.6103,1.536,1.5236,1.535,1.5699,1.2814,1.0574,1.0688,0.7714,0.5549,0.5552,0.5384,0.5409,0.5466,0.542,0.5409,0.5469,0.4101,0.2746,0.1388,0.0,-0.1398,-0.2826,-0.2827,-0.2842,-0.2872,-0.2872,-0.2872,-0.2874,-0.2901,-0.2915,-0.3097,-0.6977,-1.0004,-1.2157,-1.4031,-1.5045,-1.5174,-1.5174,-1.5181,-1.5181,-1.5181,-1.5181,-1.5181,-1.5181,-1.5181,-1.5181,-1.5181,-1.5181,-1.5181,-1.5181,-1.5181,-1.5181,-1.5181,-1.5181,-1.5181,-1.5181,-1.5181,-1.5181,-1.5181,-1.5181,-1.5181,-1.5181,-1.5303,-1.5452,-1.5601,-1.575,-1.59,-1.6049,-1.6076,-1.6083,-1.6083,-1.7848,-1.9018,-1.9018,-2.0773,-2.1361,-1.9413,-2.0773,-2.1434,-1.9651,-2.1271,-2.2547,-2.2945,-2.2964,-2.225,-2.0209,-2.2043,-2.2328,-2.0255,-2.2329,-2.3568,-2.3568,-2.5635,-2.584,-2.3775,-2.5851,-2.6885,-2.6896,-2.7122,-2.8493,2.5761,2.5143,2.4337,2.3968,2.2917,2.1567,2.0556,1.9758,1.8805,1.7279,1.6698,1.6138,1.5548,1.552,1.5305,1.4113,1.208,1.0169,0.9045,0.6885,0.5384,0.5384,0.542,0.5452,0.5474,0.5455,0.5469,0.5526,0.3455,0.1909,0.1404,-0.0879,-0.2296,-0.2857,-0.2876,-0.2891,-0.2901,-0.2921,-0.2932,-0.2932,-0.2942,-0.3694,-0.5016,-0.7813,-1.011,-1.2273,-1.4351,-1.514,-1.5181,-1.5181,-1.5181,-1.5181,-1.5181,-1.5181,-1.5181,-1.5181,-1.5181,-1.5181,-1.5181,-1.5181,-1.5181,-1.5181,-1.5181,-1.5181,-1.5181,-1.5181,-1.5181,-1.5181,-1.5181,-1.5181,-1.5181,-1.5181,-1.5208,-1.5309,-1.5452,-1.5601,-1.575,-1.59,-1.6411,-1.7833,-1.8236,-1.8631,-1.9995,-2.0773,-2.1753,-2.3121,-2.2731,-2.2144,-2.1361,-2.2069,-2.2388,-2.1659,-2.2506,-2.3702,-2.5395,-2.555,-2.5257,-2.4714,-2.5338,-2.4744,-2.2554,-2.3174,-2.3587,-2.3587,-2.5861,-2.6487,-2.5861,-2.8096,-2.9431,-2.9431,-2.9687,-3.0231,2.5257,2.4242,2.3049,2.2643,2.1662,2.0374,1.9187,1.8825,1.8315,1.6769,1.6546,1.6337,1.5737,1.5207,1.4482,1.3391,1.1322,0.9378,0.8219,0.6553,0.5392,0.5414,0.5452,0.5493,0.5534,0.5537,0.538,0.4891,0.262,0.1055,0.0535,-0.1608,-0.2874,-0.2904,-0.2923,-0.2932,-0.2932,-0.2951,-0.2966,-0.2977,-0.2977,-0.4485,-0.7158,-0.8473,-1.0568,-1.3281,-1.461,-1.5181,-1.5181,-1.5181,-1.5181,-1.5181,-1.5181,-1.5181,-1.5181,-1.5181,-1.5181,-1.5181,-1.5181,-1.5181,-1.5181,-1.5181,-1.5181,-1.5181,-1.5181,-1.5181,-1.5181,-1.5181,-1.5181,-1.5181,-1.5181,-1.5181,-1.5221,-1.5371,-1.5527,-1.5676,-1.5825,-1.5974,-1.6672,-1.8821,-1.9216,-1.9798,-2.1949,-2.2926,-2.4095,-2.626,-2.5539,-2.4423,-2.363,-2.436,-2.471,-2.4267,-2.5142,-2.636,-2.7885,-2.8043,-2.7725,-2.6896,-2.7725,-2.7101,-2.4824,-2.545,-2.5861,-2.5861,-2.7393,-2.8268,-2.8268,-2.9983,-3.0745,-3.0757,-3.101,-3.1143,2.4168,2.305,2.1751,2.0113,1.9811,1.9218,1.774,1.7587,1.7418,1.6667,1.6669,1.6535,1.5917,1.4312,1.3214,1.3191,1.0382,0.8052,0.7885,0.6389,0.5412,0.5469,0.548,0.5529,0.564,0.5657,0.513,0.3537,0.2122,0.0713,-0.0728,-0.2188,-0.2931,-0.296,-0.2962,-0.2964,-0.2964,-0.2965,-0.298,-0.3009,-0.3009,-0.5096,-0.9122,-0.9122,-1.139,-1.5181,-1.5181,-1.5181,-1.5181,-1.5181,-1.5181,-1.5181,-1.5194,-1.5194,-1.5194,-1.5201,-1.5208,-1.5208,-1.5208,-1.5194,-1.5181,-1.5194,-1.5194,-1.5194,-1.5201,-1.5208,-1.5208,-1.5208,-1.5208,-1.5208,-1.5389,-1.5389,-1.543,-1.5772,-1.5925,-1.6077,-1.6223,-1.6369,-1.7062,-1.9216,-1.961,-2.0389,-2.234,-2.4289,-2.6249,-2.8236,-2.885,-2.8215,-2.6234,-2.7847,-2.8438,-2.7091,-2.8588,-2.9924,-3.0189,-3.0214,-2.9389,-2.7101,-2.8971,-2.9174,-2.7101,-2.9174,-3.0226,-3.0238,-3.0479,-3.0612,-3.0624,-3.089,-3.1022,-3.1022,-3.1288,-3.1409,2.2633,2.1554,2.0263,1.9962,1.8916,1.7912,1.7615,1.769,1.7501,1.7013,1.695,1.6725,1.6106,1.4482,1.284,1.154,0.955,0.755,0.6218,0.5761,0.5458,0.5474,0.5553,0.5619,0.5649,0.5733,0.4699,0.2169,0.1627,0.0727,-0.0737,-0.2212,-0.2953,-0.2961,-0.2983,-0.2995,-0.2995,-0.3017,-0.3033,-0.304,-0.304,-0.5128,-0.9122,-0.9122,-1.139,-1.5181,-1.5181,-1.5181,-1.5181,-1.5181,-1.5181,-1.5194,-1.5309,-1.535,-1.5364,-1.5479,-1.552,-1.552,-1.552,-1.5371,-1.5201,-1.5316,-1.535,-1.5371,-1.5486,-1.552,-1.552,-1.552,-1.552,-1.5904,-1.7413,-1.7795,-1.8216,-1.9923,-2.0386,-2.0474,-2.0659,-2.0738,-2.1361,-2.3511,-2.5087,-2.6454,-2.6851,-2.7442,-2.8031,-2.8428,-2.885,-2.8812,-2.8226,-2.895,-2.9447,-2.8966,-2.9569,-3.0141,-3.0214,-3.0214,-3.0011,-2.9389,-2.9808,-3.0011,-2.9389,-2.9808,-3.031,-3.0503,-3.0576,-3.0708,-3.0902,-3.1155,-3.1288,-3.1288,-3.1578,-3.1698,2.1107,1.9962,1.8774,1.8774,1.8094,1.7587,1.77,1.787,1.7752,1.7173,1.7126,1.6734,1.5193,1.3376,1.1546,0.9878,0.8052,0.6563,0.5589,0.5452,0.5493,0.5545,0.561,0.567,0.5725,0.5248,0.3839,0.166,0.1471,0.0553,-0.1676,-0.2608,-0.2987,-0.3001,-0.3018,-0.3026,-0.3026,-0.3044,-0.3052,-0.3052,-0.3052,-0.5142,-0.9122,-0.9122,-1.1421,-1.5282,-1.5282,-1.5323,-1.5384,-1.5384,-1.5384,-1.5391,-1.5479,-1.5513,-1.552,-1.5608,-1.5642,-1.5642,-1.5642,-1.5527,-1.5398,-1.5486,-1.5513,-1.5527,-1.5615,-1.6215,-1.6787,-1.5828,-1.6973,-1.8496,-1.8688,-1.9454,-2.0446,-2.1798,-2.2047,-2.2094,-2.2293,-2.234,-2.2926,-2.5076,-2.7237,-2.862,-2.862,-2.862,-2.862,-2.862,-2.8946,-2.9188,-2.9188,-2.9538,-2.9839,-2.9972,-3.0117,-3.0214,-3.0214,-3.0214,-3.0214,-3.0214,-3.0214,-3.0214,-3.0214,-3.0322,-3.0455,-3.06,-3.0829,-3.1022,-3.1167,-3.1445,-3.1578,-3.1578,-3.1735,-3.1807,1.9661,1.8471,1.7426,1.7426,1.7577,1.7738,1.7766,1.8068,1.8201,1.7252,1.724,1.6698,1.421,1.2056,1.0226,0.8553,0.6734,0.5422,0.5469,0.5488,0.5537,0.5638,0.5665,0.5717,0.582,0.4381,0.2946,0.1499,0.1305,0.0,-0.2823,-0.3013,-0.3025,-0.3051,-0.3052,-0.3052,-0.3052,-0.3052,-0.3054,-0.3058,-0.3058,-0.5156,-0.8778,-0.8968,-1.1302,-1.5056,-1.5247,-1.5513,-1.5642,-1.5642,-1.5642,-1.5642,-1.5662,-1.5669,-1.5669,-1.5689,-1.5696,-1.5696,-1.5696,-1.5696,-1.5696,-1.5676,-1.5669,-1.5669,-1.6077,-1.7418,-1.8568,-1.6845,-1.9137,-2.162,-2.0098,-2.1047,-2.2431,-2.2818,-2.305,-2.2906,-2.3082,-2.3121,-2.3706,-2.5475,-2.7442,-2.862,-2.862,-2.862,-2.862,-2.862,-2.9067,-2.9405,-2.9405,-2.967,-2.9948,-3.0189,-3.0214,-3.0214,-3.0214,-3.0214,-3.0214,-3.0214,-3.0214,-3.0238,-3.0262,-3.0491,-3.0636,-3.0708,-3.1155,-3.1409,-3.1445,-3.1686,-3.1807,-3.1807,-3.1807,-3.1807,1.8025,1.7578,1.7426,1.7426,1.7577,1.7776,1.7955,1.8182,1.8238,1.7439,1.7337,1.7035,1.5711,1.2971,1.0656,1.0226,0.7665,0.5518,0.548,0.5559,0.5627,0.5649,0.5739,0.5809,0.5828,0.4438,0.2992,0.15,0.0189,-0.1139,-0.3044,-0.3044,-0.3047,-0.3052,-0.3052,-0.3052,-0.3052,-0.3052,-0.3065,-0.3089,-0.3089,-0.4455,-0.6824,-0.8566,-1.0708,-1.3057,-1.4816,-1.5615,-1.5642,-1.5642,-1.5642,-1.5649,-1.5771,-1.5818,-1.5832,-1.5961,-1.6008,-1.6008,-1.6008,-1.6008,-1.5988,-1.5859,-1.5818,-1.6223,-1.8105,-1.893,-1.9314,-2.0676,-2.1652,-2.2625,-2.3983,-2.4563,-2.5356,-2.6976,-2.7384,-2.7395,-2.743,-2.7442,-2.7634,-2.8031,-2.8428,-2.862,-2.862,-2.862,-2.862,-2.862,-2.9067,-2.9405,-2.9405,-2.9839,-3.0165,-3.0214,-3.0214,-3.0214,-3.0214,-3.0214,-3.0214,-3.0214,-3.0214,-3.031,-3.0527,-3.0588,-3.0817,-3.124,-3.1348,-3.1505,-3.1735,-3.1783,-3.1807,-3.1807,-3.1807,-3.1807,1.7578,1.7426,1.7454,1.7558,1.7738,1.7946,1.8154,1.8371,1.8388,1.7828,1.7527,1.6862,1.5201,1.2656,1.0535,0.9469,0.7209,0.5561,0.5567,0.5616,0.5673,0.5739,0.5796,0.549,0.4808,0.336,0.1881,0.0378,-0.1141,-0.2288,-0.3052,-0.3052,-0.3052,-0.3052,-0.3052,-0.3059,-0.3076,-0.3076,-0.3091,-0.3122,-0.3122,-0.4102,-0.6273,-0.8412,-1.0588,-1.2602,-1.4769,-1.5798,-1.5872,-1.5872,-1.5872,-1.5879,-1.5947,-1.5974,-1.5981,-1.6056,-1.6083,-1.6083,-1.6083,-1.6083,-1.6268,-1.7363,-1.7531,-1.7932,-2.0166,-2.1557,-2.2535,-2.234,-2.39,-2.5475,-2.5464,-2.6249,-2.743,-2.8428,-2.862,-2.862,-2.862,-2.862,-2.862,-2.862,-2.862,-2.862,-2.862,-2.862,-2.862,-2.862,-2.9067,-2.9405,-2.9405,-2.9876,-3.0214,-3.0214,-3.0214,-3.0214,-3.0214,-3.0214,-3.0214,-3.0214,-3.0214,-3.0334,-3.06,-3.0733,-3.0986,-3.1384,-3.1529,-3.1674,-3.1807,-3.1807,-3.1807,-3.1807,-3.1807,-3.1807,1.7731,1.7426,1.7473,1.7672,1.7889,1.8106,1.8305,1.8522,1.851,1.8174,1.7682,1.6706,1.4405,1.2191,1.0253,0.8386,0.6759,0.561,0.5646,0.5662,0.5711,0.5818,0.5842,0.534,0.3749,0.2257,0.0756,-0.0762,-0.2288,-0.3052,-0.3052,-0.3052,-0.3055,-0.3062,-0.3062,-0.3077,-0.3107,-0.3107,-0.3123,-0.3153,-0.3153,-0.3943,-0.572,-0.8267,-1.0469,-1.2134,-1.4712,-1.5967,-1.6083,-1.6083,-1.6083,-1.6083,-1.6083,-1.6083,-1.6083,-1.6083,-1.6083,-1.6083,-1.6083,-1.6083,-1.6474,-1.9018,-1.961,-1.9602,-2.2144,-2.4095,-2.527,-2.39,-2.6067,-2.8224,-2.6647,-2.7442,-2.862,-2.862,-2.862,-2.862,-2.862,-2.862,-2.862,-2.862,-2.862,-2.862,-2.862,-2.862,-2.862,-2.862,-2.9067,-2.9405,-2.9405,-2.9876,-3.0214,-3.0214,-3.0214,-3.0214,-3.0214,-3.0214,-3.0214,-3.0214,-3.0214,-3.0358,-3.0672,-3.089,-3.1155,-3.1469,-3.1698,-3.1807,-3.1807,-3.1807,-3.1807,-3.1807,-3.1807,-3.1807,1.7883,1.7426,1.7473,1.7672,1.7889,1.8106,1.8305,1.8522,1.851,1.8174,1.7682,1.6749,1.4558,1.2331,1.0371,0.8482,0.6702,0.5706,0.5657,0.5698,0.5758,0.5823,0.588,0.5382,0.375,0.2271,0.0761,-0.0763,-0.2288,-0.3052,-0.3052,-0.3052,-0.3065,-0.3093,-0.3093,-0.3108,-0.3138,-0.3138,-0.3155,-0.3185,-0.3185,-0.3197,-0.3624,-0.7834,-0.984,-1.0249,-1.4253,-1.6069,-1.6083,-1.6083,-1.6083,-1.6083,-1.6083,-1.6083,-1.6083,-1.6083,-1.6083,-1.6083,-1.6083,-1.6083,-1.6665,-2.0782,-2.0773,-1.9995,-2.39,-2.527,-2.5862,-2.7634,-2.8236,-2.862,-2.8428,-2.8428,-2.862,-2.862,-2.862,-2.862,-2.862,-2.862,-2.862,-2.862,-2.862,-2.862,-2.862,-2.862,-2.862,-2.862,-2.9067,-2.9405,-2.9405,-2.9876,-3.0214,-3.0214,-3.0214,-3.0214,-3.0214,-3.0214,-3.0214,-3.0214,-3.0214,-3.0443,-3.0938,-3.0986,-3.124,-3.1759,-3.1795,-3.1807,-3.1807,-3.1807,-3.1807,-3.1807,-3.1807,-3.1807,1.8481,1.7817,1.7662,1.787,1.8078,1.8286,1.8503,1.8617,1.8673,1.851,1.811,1.7216,1.4922,1.2923,1.083,0.8577,0.6783,0.5788,0.5763,0.5812,0.5872,0.5935,0.5215,0.3934,0.2459,0.0951,-0.0572,-0.2098,-0.2671,-0.3061,-0.3078,-0.308,-0.3085,-0.3097,-0.3115,-0.314,-0.317,-0.317,-0.3185,-0.3213,-0.3213,-0.3219,-0.3431,-0.7653,-0.9661,-0.9861,-1.4271,-1.6083,-1.6083,-1.6083,-1.6083,-1.6083,-1.6083,-1.6083,-1.6083,-1.6083,-1.6083,-1.6083,-1.6083,-1.6083,-1.6864,-2.0969,-2.1753,-2.1753,-2.6067,-2.7442,-2.7634,-2.8428,-2.862,-2.862,-2.862,-2.862,-2.862,-2.862,-2.862,-2.862,-2.862,-2.862,-2.862,-2.862,-2.862,-2.862,-2.862,-2.862,-2.862,-2.862,-2.9067,-2.9405,-2.9405,-2.9876,-3.0214,-3.0214,-3.0214,-3.0214,-3.0214,-3.0214,-3.0214,-3.0214,-3.0214,-3.0455,-3.0974,-3.0998,-3.1252,-3.1795,-3.1807,-3.1807,-3.1807,-3.1807,-3.1807,-3.1807,-3.1807,-3.1807,1.8926,1.8325,1.8086,1.7993,1.8201,1.8409,1.8626,1.8673,1.8673,1.8673,1.8513,1.7486,1.4484,1.2822,1.0909,0.7964,0.6482,0.5831,0.5831,0.5883,0.5946,0.6006,0.5071,0.3581,0.1713,-0.0381,-0.1907,-0.3052,-0.3052,-0.3066,-0.3096,-0.3106,-0.3115,-0.3125,-0.3145,-0.3171,-0.3201,-0.3201,-0.321,-0.323,-0.323,-0.323,-0.323,-0.705,-0.9059,-0.9861,-1.3667,-1.5479,-1.6083,-1.6083,-1.6083,-1.6083,-1.6083,-1.6083,-1.6083,-1.6083,-1.6083,-1.6083,-1.6083,-1.6083,-1.6864,-2.0969,-2.234,-2.3121,-2.7249,-2.862,-2.862,-2.862,-2.862,-2.862,-2.862,-2.862,-2.862,-2.862,-2.862,-2.862,-2.862,-2.862,-2.862,-2.862,-2.862,-2.862,-2.862,-2.862,-2.862,-2.862,-2.9067,-2.9405,-2.9405,-2.9876,-3.0214,-3.0214,-3.0214,-3.0214,-3.0214,-3.0214,-3.0214,-3.0214,-3.0214,-3.0455,-3.0974,-3.0998,-3.1252,-3.1795,-3.1807,-3.1807,-3.1807,-3.1807,-3.1807,-3.1807,-3.1807,-3.1807,1.9067,1.8795,1.8707,1.815,1.8201,1.8409,1.8626,1.8673,1.8673,1.8673,1.8513,1.7019,1.2917,1.2021,1.058,0.6442,0.579,0.5831,0.5831,0.5883,0.5946,0.6006,0.6014,0.4715,0.1713,-0.1334,-0.3052,-0.3052,-0.3052,-0.3066,-0.3096,-0.3126,-0.3156,-0.3186,-0.3187,-0.3201,-0.323,-0.323,-0.323,-0.323,-0.323,-0.323,-0.323,-0.5443,-0.7653,-0.9861,-1.2058,-1.4065,-1.6083,-1.6083,-1.6083,-1.6083,-1.6083,-1.6083,-1.6083,-1.6083,-1.6083,-1.6083,-1.6083,-1.6083,-1.6864,-2.0969,-2.234,-2.3121,-2.7249,-2.862,-2.862,-2.862,-2.862,-2.862,-2.862,-2.862,-2.862,-2.862,-2.862,-2.862,-2.862,-2.862,-2.862,-2.862,-2.862,-2.862,-2.862,-2.862,-2.862,-2.862,-2.9067,-2.9405,-2.9405,-2.9876,-3.0214,-3.0214,-3.0214,-3.0214,-3.0214,-3.0214,-3.0214,-3.0214,-3.0214,-3.0455,-3.0974,-3.0998,-3.1252,-3.1795,-3.1807,-3.1807,-3.1807,-3.1807,-3.1807,-3.1807,-3.1807,-3.1807,2.0647,1.979,1.924,1.9165,1.8901,1.8588,1.8664,1.8673,1.8721,1.8853,1.8208,1.6697,1.3933,1.2161,1.0146,0.7167,0.6189,0.5894,0.5894,0.5045,0.4536,0.4553,0.2655,0.057,-0.1524,-0.2479,-0.3052,-0.3052,-0.3052,-0.3074,-0.3126,-0.3138,-0.3157,-0.3187,-0.3206,-0.3221,-0.323,-0.323,-0.323,-0.323,-0.323,-0.323,-0.323,-0.5443,-0.7653,-0.9861,-1.2058,-1.4065,-1.6083,-1.6083,-1.6083,-1.6083,-1.6083,-1.6083,-1.6083,-1.6083,-1.6083,-1.6083,-1.6083,-1.6083,-1.6864,-2.0969,-2.234,-2.3121,-2.7249,-2.862,-2.862,-2.862,-2.862,-2.862,-2.862,-2.862,-2.862,-2.862,-2.862,-2.862,-2.862,-2.862,-2.862,-2.862,-2.862,-2.862,-2.862,-2.862,-2.862,-2.862,-2.9067,-2.9405,-2.9405,-2.9876,-3.0214,-3.0214,-3.0214,-3.0214,-3.0214,-3.0214,-3.0214,-3.0214,-3.0214,-3.0455,-3.0974,-3.0998,-3.1252,-3.1795,-3.1807,-3.1807,-3.1807,-3.1807,-3.1807,-3.1807,-3.1807,-3.1807,2.138,2.0526,1.9666,1.9743,1.917,1.8673,1.8673,1.8673,1.873,1.8928,1.7962,1.6438,1.4354,1.222,1.0011,0.7527,0.6392,0.5924,0.5924,0.4706,0.3621,0.3048,0.0762,-0.1144,-0.2098,-0.2671,-0.3052,-0.3052,-0.3052,-0.3078,-0.314,-0.3142,-0.3161,-0.3202,-0.3221,-0.323,-0.323,-0.323,-0.323,-0.323,-0.323,-0.323,-0.323,-0.464,-0.6849,-0.9861,-1.1059,-1.3467,0.0,-1.6083,-1.6083,-1.6083,-1.6083,-1.6083,-1.6083,-1.6083,-1.6083,-1.6282,-1.7062,-1.7261,-1.8046,-2.2144,-2.4105,-2.5087,-2.7839,-2.862,-2.862,-2.862,-2.862,-2.862,-2.862,-2.862,-2.862,-2.862,-2.862,-2.862,-2.862,-2.862,-2.862,-2.862,-2.862,-2.862,-2.862,-2.862,-2.862,-2.862,-2.9067,-2.9405,-2.9405,-2.9876,-3.0214,-3.0214,-3.0214,-3.0214,-3.0214,-3.0214,-3.0214,-3.0214,-3.0214,-3.0455,-3.0974,-3.0998,-3.1252,-3.1795,-3.1807,-3.1807,-3.1807,-3.1807,-3.1807,-3.1807,-3.1807,-3.1807,0.0,2.1024,2.0483,1.9923,1.9179,1.8673,1.8673,1.8683,0.0,1.8957,1.798,1.6462,1.4368,1.2056,0.9833,0.7717,0.6574,0.5924,0.5929,0.452,0.3048,0.1333,0.0,-0.0954,-0.0954,-0.2288,-0.3052,-0.3052,-0.3052,-0.3078,-0.314,-0.3142,-0.317,-0.3228,-0.323,-0.323,-0.323,-0.323,-0.323,-0.323,-0.323,-0.323,-0.323,-0.323,-0.5645,-0.9661,-0.9661,-1.2063,-1.6083,-1.6083,-1.6083,-1.6083,-1.6083,-1.6083,-1.6083,-1.6083,-1.6083,-1.6474,-1.8434,-1.9216,-1.9995,-2.4095,-2.6851,-2.862,-2.862,-2.862,-2.862,-2.862,-2.862,-2.862,-2.862,-2.862,-2.862,-2.862,-2.862,-2.862,-2.862,-2.862,-2.862,-2.862,-2.862,-2.862,-2.862,-2.862,-2.862,-2.862,-2.9067,-2.9405,-2.9405,-2.9876,-3.0214,-3.0214,-3.0214,-3.0214,-3.0214,-3.0214,-3.0214,-3.0214,-3.0214,-3.0455,-3.0974,-3.0998,-3.1252,-3.1795,-3.1807,-3.1807,-3.1807,-3.1807,-3.1807,-3.1807,-3.1807,-3.1807,2.2745,0.0,2.0877,2.0954,1.9765,1.8673,0.0,1.8796,1.8966,1.9184,1.7494,1.5775,1.5418,1.1942,0.8977,0.8513,0.6971,0.5937,0.5987,0.3781,0.0953,-0.1716,-0.2288,-0.2479,-0.2479,-0.2862,-0.3052,-0.3052,-0.3052,-0.3078,-0.314,-0.3142,-0.317,-0.3228,-0.323,-0.323,-0.323,-0.323,-0.323,-0.323,-0.323,-0.323,-0.323,-0.323,-0.5645,-0.9661,-0.9661,-1.2063,-1.6083,-1.6083,-1.6083,-1.6083,-1.6083,-1.6083,-1.6083,-1.6083,-1.6083,-1.6474,-1.8434,-1.9216,-1.9995,-2.4095,-2.6851,-2.862,-2.862,-2.862,-2.862,-2.862,-2.862,-2.862,-2.862,-2.862,-2.862,-2.862,-2.862,-2.862,-2.862,-2.862,-2.862,-2.862,-2.862,-2.862,-2.862,-2.862,-2.862,-2.862,-2.9067,-2.9405,-2.9405,-2.9876,-3.0214,-3.0214,-3.0214,-3.0214,-3.0214,-3.0214,-3.0214,-3.0214,-3.0214,-3.0455,-3.0974,-3.0998,-3.1252,-3.1795,-3.1807,-3.1807,-3.1807,-3.1807,-3.1807,-3.1807,-3.1807,-3.1807,2.3007,2.1985,2.0963,2.119,1.9967,1.8673,1.8673,1.8834,1.8866,1.8397,1.6698,1.5307,1.4773,1.1438,0.8628,0.8717,0.6611,0.4649,0.3963,0.2468,0.0571,-0.1716,-0.267,-0.3052,-0.3052,-0.3052,-0.3052,-0.3052,-0.3052,-0.3078,-0.314,-0.3142,-0.317,-0.3228,-0.323,-0.323,-0.323,-0.323,-0.323,-0.323,-0.323,-0.323,-0.323,-0.4236,-0.6447,-0.9661,-1.0658,-1.3068,-1.6083,-1.6083,-1.6083,-1.6083,-1.6083,-1.6083,-1.6083,-1.6083,-1.6083,-1.6474,-1.9602,-2.1949,-2.391,-2.626,-2.7634,-2.862,-2.862,-2.862,-2.862,-2.862,-2.862,-2.862,-2.862,-2.862,-2.862,-2.862,-2.862,-2.862,-2.862,-2.862,-2.862,-2.862,-2.862,-2.862,-2.862,-2.862,-2.862,-2.862,-2.9067,-2.9405,-2.9405,-2.9876,-3.0214,-3.0214,-3.0214,-3.0214,-3.0214,-3.0214,-3.0214,-3.0214,-3.0214,-3.0455,-3.0974,-3.0998,-3.1252,-3.1795,-3.1807,-3.1807,-3.1807,-3.1807,-3.1807,-3.1807,-3.1807,-3.1807,2.3043,2.1851,2.0836,2.12,1.9795,1.8356,1.8383,1.8376,1.8067,1.7078,1.6051,1.4821,1.3545,1.0921,0.8828,0.8557,0.5713,0.299,0.133,0.1143,0.0572,-0.0953,-0.2288,-0.3052,-0.3052,-0.3052,-0.3052,-0.3052,-0.3052,-0.3078,-0.314,-0.3142,-0.317,-0.3228,-0.323,-0.323,-0.323,-0.323,-0.323,-0.323,-0.3431,-0.3431,-0.323,-0.5443,-0.7653,-0.9861,-1.1659,0.0,-1.6083,-1.6083,-1.6083,-1.6083,-1.6083,-1.6083,-1.6083,-1.6083,-1.6083,-1.6672,-2.0773,-2.4882,-2.8224,-2.8428,-2.862,-2.862,-2.862,-2.862,-2.862,-2.862,-2.862,-2.862,-2.862,-2.862,-2.862,-2.862,-2.862,-2.862,-2.862,-2.862,-2.862,-2.862,-2.862,-2.862,-2.862,-2.862,-2.862,-2.862,-2.9067,-2.9405,-2.9405,-2.9876,-3.0214,-3.0214,-3.0214,-3.0214,-3.0214,-3.0214,-3.0214,-3.0214,-3.0214,-3.0455,-3.0974,-3.1034,-3.1288,-3.1795,-3.1807,-3.1807,-3.1807,-3.1807,-3.1807,-3.1807,-3.1807,-3.1807,2.3043,2.132,1.9887,2.1071,1.9134,1.7061,1.7216,1.6389,1.5717,1.5706,1.466,1.3539,1.2491,1.0983,0.9463,0.7731,0.5433,0.2849,0.0,-0.0381,-0.0953,-0.2479,-0.2862,-0.3052,-0.3052,-0.3052,-0.3052,-0.3052,-0.3052,-0.3078,-0.314,-0.3142,-0.317,-0.3228,-0.323,-0.323,-0.323,-0.323,-0.323,-0.323,-0.504,-0.504,-0.323,-0.5443,-0.7653,-0.9661,0.0,-1.2463,-1.6083,-1.6083,-1.6083,-1.6083,-1.6083,-1.6083,-1.6083,-1.6083,-1.6083,-1.6672,-2.0773,-2.39,-2.6249,-2.8031,-2.862,-2.862,-2.862,-2.862,-2.862,-2.862,-2.862,-2.862,-2.862,-2.862,-2.862,-2.862,-2.862,-2.862,-2.862,-2.862,-2.862,-2.862,-2.862,-2.862,-2.862,-2.862,-2.862,-2.862,-2.9067,-2.9405,-2.9405,-2.9876,-3.0214,-3.0214,-3.0214,-3.0214,-3.0214,-3.0214,-3.0214,-3.0214,-3.0214,-3.0455,-3.0974,-3.1215,-3.1481,-3.1807,-3.1807,-3.1807,-3.1807,-3.1807,-3.1807,-3.1807,-3.1807,-3.1807,2.3043,2.1829,2.0424,2.0262,1.7973,1.5711,1.5624,1.5516,1.5049,1.4263,1.3941,1.3217,1.1976,0.9871,0.7064,0.3501,0.2633,0.1715,-0.0572,-0.0763,-0.1144,-0.1716,-0.267,-0.3052,-0.3052,-0.3052,-0.3052,-0.3052,-0.3052,-0.3078,-0.314,-0.3142,-0.317,-0.3228,-0.323,-0.323,-0.323,-0.323,-0.323,-0.323,-0.5443,-0.5843,-0.504,-0.7251,-0.9456,-1.1459,0.0,-1.3267,-1.6083,-1.6083,-1.6083,-1.6083,-1.6083,-1.6083,-1.6083,-1.6083,-1.6871,-1.8236,-2.1165,-2.3706,-2.5862,-2.7839,-2.862,-2.862,-2.862,-2.862,-2.862,-2.862,-2.862,-2.862,-2.862,-2.862,-2.862,-2.862,-2.862,-2.862,-2.862,-2.862,-2.862,-2.862,-2.862,-2.862,-2.862,-2.862,-2.862,-2.862,-2.9067,-2.9405,-2.9405,-2.9876,-3.0214,-3.0214,-3.0214,-3.0214,-3.0214,-3.0214,-3.0214,-3.0214,-3.0346,-3.06,-3.0986,-3.1252,-3.1517,-3.1807,-3.1807,-3.1807,-3.1807,-3.1807,-3.1807,-3.1807,-3.1807,-3.1807,2.3043,2.2156,2.0748,1.9267,1.682,1.4548,1.4297,1.4337,1.4029,1.2891,1.2898,1.2698,1.1487,0.8473,0.4912,0.1113,0.0754,0.0381,-0.1144,-0.1335,-0.1335,-0.1335,-0.2288,-0.3052,-0.3052,-0.3052,-0.3052,-0.3052,-0.3052,-0.3076,-0.3129,-0.314,-0.3167,-0.3219,-0.3227,-0.323,-0.323,-0.323,-0.323,-0.323,-0.5843,-0.6849,-0.6447,-0.9256,-1.1259,-1.2863,-1.2863,-1.4065,-1.6083,-1.6083,-1.6083,-1.6083,-1.6083,-1.6083,-1.6083,-1.6083,-1.7062,-1.8821,-2.1361,-2.3316,-2.527,-2.7827,-2.862,-2.862,-2.862,-2.862,-2.862,-2.862,-2.862,-2.862,-2.862,-2.862,-2.862,-2.862,-2.862,-2.862,-2.862,-2.862,-2.8644,-2.8705,-2.8717,-2.8729,-2.8801,-2.8753,-2.8717,-2.8717,-2.9055,-2.9332,-2.9393,-2.9827,-3.0141,-3.0214,-3.0214,-3.0214,-3.0214,-3.0214,-3.0214,-3.0214,-3.0407,-3.066,-3.0986,-3.1191,-3.1457,-3.1807,-3.1807,-3.1807,-3.1807,-3.1807,-3.1807,-3.1807,-3.1807,-3.1807,2.3043,2.1975,2.0069,1.7946,1.5999,1.4448,1.3396,1.2282,1.1507,1.1561,1.1621,1.1309,1.051,0.7558,0.5059,0.4353,0.1521,-0.1144,-0.2671,-0.2862,-0.2862,-0.2862,-0.3052,-0.3052,-0.3052,-0.3052,-0.3052,-0.3052,-0.3052,-0.3066,-0.3099,-0.3127,-0.3157,-0.319,-0.3216,-0.323,-0.323,-0.323,-0.323,-0.323,-0.7452,-0.8453,-0.6447,-1.0654,-1.2663,-1.2863,-1.2863,-1.4065,-1.6083,-1.6083,-1.6083,-1.6083,-1.6083,-1.6083,-1.6083,-1.6083,-1.6282,-1.6864,-2.0969,-2.234,-2.3121,-2.7249,-2.862,-2.862,-2.862,-2.862,-2.862,-2.862,-2.862,-2.862,-2.862,-2.862,-2.862,-2.862,-2.862,-2.862,-2.862,-2.862,-2.8693,-2.8934,-2.8982,-2.9067,-2.9308,-2.9151,-2.8982,-2.8982,-2.9019,-2.9127,-2.9369,-2.9646,-2.9924,-3.0189,-3.0214,-3.0214,-3.0214,-3.0214,-3.0214,-3.0214,-3.0238,-3.0467,-3.0974,-3.1022,-3.1276,-3.1795,-3.1807,-3.1807,-3.1807,-3.1807,-3.1807,-3.1807,-3.1807,-3.1807,2.1779,2.0538,1.9095,1.6319,1.4526,1.3098,1.1962,1.139,1.115,1.1308,1.14,1.0952,0.9247,0.5516,0.2609,0.2257,-0.019,-0.2479,-0.3052,-0.3052,-0.3052,-0.3052,-0.3052,-0.3052,-0.3052,-0.3052,-0.3052,-0.3052,-0.3052,-0.3066,-0.3096,-0.3126,-0.3157,-0.3187,-0.3216,-0.323,-0.323,-0.4438,-0.5242,-0.5242,-0.8252,-0.926,-0.8453,-1.1459,-1.3661,-1.4869,-1.3461,-1.4065,-1.6083,-1.6083,-1.6083,-1.6083,-1.6083,-1.6083,-1.6083,-1.6083,-1.6083,-1.6672,-2.0773,-2.234,-2.2926,-2.7249,-2.862,-2.862,-2.862,-2.862,-2.862,-2.862,-2.8741,-2.8825,-2.8669,-2.8741,-2.8862,-2.8862,-2.8994,-2.9103,-2.9103,-2.9103,-2.9139,-2.9236,-2.926,-2.9284,-2.9393,-2.932,-2.926,-2.926,-2.9393,-2.9538,-2.9634,-2.9888,-3.0093,-3.0202,-3.0214,-3.0214,-3.0214,-3.0214,-3.0214,-3.0214,-3.0214,-3.0383,-3.0745,-3.0914,-3.1167,-3.1541,-3.1722,-3.1807,-3.1807,-3.1807,-3.1807,-3.1807,-3.1807,-3.1807,2.0522,1.9583,1.8128,1.5185,1.3873,1.2765,1.1278,1.1041,1.1145,1.1297,1.146,1.0685,0.7656,0.443,0.2055,0.094,-0.1327,-0.3052,-0.3052,-0.3052,-0.3052,-0.3052,-0.3052,-0.3052,-0.3052,-0.3052,-0.3052,-0.3052,-0.3052,-0.3061,-0.3082,-0.3112,-0.3533,-0.4159,-0.4197,-0.4626,-0.5242,-0.6648,-0.7452,-0.7449,-0.9657,-1.0658,-1.0858,-1.2863,-1.4669,-1.6083,-1.447,-1.4669,-1.6083,-1.6083,-1.6083,-1.6083,-1.6083,-1.6083,-1.6083,-1.6083,-1.6083,-1.6672,-2.0773,-2.234,-2.2926,-2.7249,-2.862,-2.862,-2.862,-2.862,-2.8644,-2.8729,-2.8874,-2.8994,-2.8898,-2.9006,-2.9139,-2.9139,-2.9272,-2.9405,-2.9405,-2.9405,-2.9429,-2.9513,-2.9526,-2.9562,-2.9646,-2.9586,-2.9526,-2.9526,-2.961,-2.9707,-2.9791,-2.996,-3.0117,-3.0202,-3.0214,-3.0214,-3.0214,-3.0214,-3.0214,-3.0214,-3.0214,-3.0334,-3.06,-3.0853,-3.1119,-3.1384,-3.1662,-3.1807,-3.1807,-3.1807,-3.1807,-3.1807,-3.1807,-3.1807,1.9886,1.8935,1.7302,1.4683,1.4031,1.3451,1.1555,1.1101,1.1172,1.1406,1.1645,1.0335,0.5905,0.4876,0.38,0.1141,-0.1333,-0.3052,-0.3052,-0.3052,-0.3052,-0.3052,-0.3052,-0.3052,-0.3052,-0.3052,-0.3052,-0.3052,-0.3052,-0.3052,-0.3052,-0.3081,-0.4079,-0.6264,-0.6324,-0.7579,-0.9657,-0.9661,-0.9661,-0.9661,-1.1858,-1.2863,-1.3062,-1.5074,-1.6083,-1.6083,-1.6083,-1.6083,-1.6083,-1.6083,-1.6083,-1.6083,-1.6083,-1.6083,-1.6083,-1.6083,-1.6083,-1.6672,-2.0773,-2.234,-2.2926,-2.7237,-2.862,-2.862,-2.862,-2.862,-2.8681,-2.8946,-2.9019,-2.9079,-2.9344,-2.9417,-2.9417,-2.9405,-2.9417,-2.9417,-2.9417,-2.9417,-2.9489,-2.9755,-2.9803,-2.9888,-3.0165,-2.9984,-2.9803,-2.9803,-2.9574,-2.9501,-2.9767,-2.9803,-2.9912,-3.0189,-3.0214,-3.0214,-3.0214,-3.0214,-3.0214,-3.0214,-3.0214,-3.0334,-3.06,-3.0853,-3.1119,-3.1384,-3.1662,-3.1807,-3.1807,-3.1807,-3.1807,-3.1807,-3.1807,-3.1807,1.8779,1.7012,1.5185,1.3217,1.2222,1.1634,1.1218,1.1101,1.082,0.9619,0.7415,0.5493,0.5715,0.2799,0.0567,0.114,-0.1143,-0.3052,-0.3052,-0.3052,-0.3052,-0.3052,-0.3052,-0.3052,-0.3052,-0.3052,-0.3052,-0.3052,-0.3052,-0.3052,-0.3052,-0.4424,-0.5629,-0.646,-0.7701,-0.8971,-0.9657,-1.1259,-1.1858,-1.2058,-1.4065,-1.4271,-1.3062,-1.5074,-1.6083,-1.6083,-1.6083,-1.6083,-1.6083,-1.6083,-1.6083,-1.6083,-1.6083,-1.6083,-1.6083,-1.6083,-1.6083,-1.6474,-1.9216,-2.1165,-2.2731,-2.5475,-2.7442,-2.862,-2.862,-2.8753,-2.891,-2.8994,-2.9284,-2.9586,-2.9658,-2.9827,-2.9924,-2.9731,-2.9827,-2.9972,-2.9972,-2.9972,-2.9996,-3.0081,-3.0093,-3.0117,-3.0202,-3.0153,-3.0093,-3.0093,-3.002,-2.9996,-3.0081,-3.0093,-3.0117,-3.0202,-3.0214,-3.0214,-3.0214,-3.0214,-3.0214,-3.0214,-3.0214,-3.025,-3.0334,-3.0757,-3.1034,-3.1107,-3.1578,-3.1807,-3.1807,-3.1807,-3.1807,-3.1807,-3.1807,-3.1807,1.6501,1.4807,1.3052,1.1896,1.1109,1.0704,1.0071,1.0155,0.9338,0.6783,0.5072,0.3852,0.3322,0.1309,-0.0189,0.019,-0.1525,-0.3052,-0.2862,-0.3052,-0.3052,-0.3052,-0.3052,-0.3052,-0.3052,-0.3052,-0.3432,-0.4192,-0.4383,-0.4573,-0.5522,-0.6696,-0.7708,-0.8749,-1.0006,-1.1092,-1.2196,-1.3439,-1.4265,-1.4265,-1.5479,-1.5472,-1.4265,-1.5479,-1.6083,-1.6083,-1.6083,-1.6083,-1.6083,-1.6083,-1.6083,-1.6083,-1.6083,-1.6083,-1.6083,-1.6083,-1.6083,-1.6474,-1.8434,-2.0585,-2.2731,-2.4872,-2.6851,-2.8644,-2.8753,-2.8886,-2.9055,-2.926,-2.955,-2.9815,-2.9936,-3.0093,-3.0177,-3.0008,-3.0093,-3.0214,-3.0214,-3.0214,-3.0214,-3.0214,-3.0214,-3.0214,-3.0214,-3.0214,-3.0214,-3.0214,-3.0214,-3.0214,-3.0214,-3.0214,-3.0214,-3.0214,-3.0214,-3.0214,-3.0214,-3.0214,-3.0214,-3.0214,-3.0214,-3.0214,-3.0214,-3.0624,-3.089,-3.0998,-3.1421,-3.1698,-3.1807,-3.1807,-3.1807,-3.1807,-3.1807,-3.1807,1.3908,1.2604,1.1237,1.0904,1.0667,1.0134,0.8586,0.8168,0.7156,0.3583,0.4189,0.4065,0.0,0.0376,0.0571,-0.1144,-0.2288,-0.2862,-0.2288,-0.2671,-0.3052,-0.3052,-0.3052,-0.3052,-0.3052,-0.3242,-0.4192,-0.59,-0.628,-0.7226,-0.8932,-0.9311,-1.0303,-1.2324,-1.2643,-1.3939,-1.5852,-1.6001,-1.6083,-1.6083,-1.6083,-1.6083,-1.6083,-1.6083,-1.6083,-1.6083,-1.6083,-1.6083,-1.6083,-1.6083,-1.6083,-1.6083,-1.6083,-1.6083,-1.6083,-1.6083,-1.6083,-1.6275,-1.8236,-2.0389,-2.2535,-2.4484,-2.684,-2.8669,-2.8934,-2.9031,-2.9151,-2.9658,-2.9815,-2.9888,-3.0153,-3.0214,-3.0214,-3.0214,-3.0214,-3.0214,-3.0214,-3.0214,-3.0214,-3.0214,-3.0214,-3.0214,-3.0214,-3.0214,-3.0214,-3.0214,-3.0214,-3.0214,-3.0214,-3.0214,-3.0214,-3.0214,-3.0214,-3.0214,-3.0214,-3.0214,-3.0214,-3.0214,-3.0214,-3.0214,-3.0214,-3.0467,-3.0733,-3.0986,-3.1252,-3.1529,-3.1807,-3.1807,-3.1807,-3.1807,-3.1807,-3.1807,1.4562,1.3097,1.1403,1.1237,1.0043,0.8321,0.6495,0.5152,0.3939,0.3046,0.2006,0.0925,0.0,-0.0564,-0.0953,-0.0954,-0.2098,-0.2862,-0.2288,-0.2671,-0.3052,-0.3052,-0.3052,-0.3052,-0.3052,-0.4573,-0.5713,-0.609,-0.7606,-0.8554,-0.9122,-1.0635,-1.182,-1.2324,-1.4,-1.5314,-1.5852,-1.6001,-1.6083,-1.6083,-1.6083,-1.6083,-1.6083,-1.6083,-1.6083,-1.6083,-1.6083,-1.6083,-1.6083,-1.6083,-1.6083,-1.6083,-1.6083,-1.6083,-1.6083,-1.6083,-1.6083,-1.6083,-1.6672,-1.9216,-2.234,-2.2926,-2.5475,-2.8669,-2.8934,-2.9163,-2.9393,-2.9707,-2.9948,-3.0141,-3.0202,-3.0214,-3.0214,-3.0214,-3.0214,-3.0214,-3.0214,-3.0214,-3.0214,-3.0214,-3.0214,-3.0214,-3.0214,-3.0214,-3.0214,-3.0214,-3.0214,-3.0214,-3.0214,-3.0214,-3.0214,-3.0214,-3.0214,-3.0214,-3.0214,-3.0214,-3.0214,-3.0214,-3.0214,-3.0214,-3.0214,-3.0467,-3.0733,-3.0986,-3.1252,-3.1529,-3.1807,-3.1807,-3.1807,-3.1807,-3.1807,-3.1807,1.322,1.2332,1.1432,1.1222,0.9112,0.6618,0.5836,0.339,0.1435,0.1435,0.073,0.0,0.0,-0.0753,-0.1335,-0.0954,-0.2098,-0.2862,-0.2288,-0.2671,-0.3052,-0.3052,-0.4002,-0.4573,-0.4573,-0.628,-0.7985,-0.8928,-1.0063,-1.1013,-1.1962,-1.3093,-1.3694,-1.3767,-1.4872,-1.5601,-1.575,-1.59,-1.6008,-1.6083,-1.6083,-1.6083,-1.6083,-1.6083,-1.6083,-1.6083,-1.6083,-1.6083,-1.6083,-1.6083,-1.6083,-1.6083,-1.6083,-1.6083,-1.6083,-1.6083,-1.6083,-1.6083,-1.6083,-1.8236,-2.0969,-2.1949,-2.4494,-2.7306,-2.8688,-2.9296,-2.9489,-2.9888,-3.0105,-3.0214,-3.0214,-3.0214,-3.0214,-3.0214,-3.0214,-3.0214,-3.0214,-3.0214,-3.0214,-3.0214,-3.0214,-3.0214,-3.0214,-3.0214,-3.0214,-3.0214,-3.0214,-3.0214,-3.0214,-3.0214,-3.0214,-3.0214,-3.0214,-3.0214,-3.0214,-3.0214,-3.0214,-3.0214,-3.0214,-3.0214,-3.0214,-3.0346,-3.06,-3.0986,-3.1131,-3.1397,-3.1807,-3.1807,-3.1807,-3.1807,-3.1807,-3.1807,1.17,1.1403,1.1126,1.0693,0.7976,0.5409,0.5167,0.2509,0.0,0.0,0.0,0.0,0.0,-0.0753,-0.1335,-0.0954,-0.1907,-0.2671,-0.2288,-0.267,-0.3052,-0.3052,-0.4573,-0.5713,-0.609,-0.7985,-0.9879,-1.1956,-1.2522,-1.3469,-1.5181,-1.5181,-1.5181,-1.5181,-1.533,-1.5486,-1.5635,-1.5784,-1.5934,-1.6083,-1.6083,-1.6083,-1.6083,-1.6083,-1.6083,-1.6083,-1.6083,-1.6083,-1.6083,-1.6083,-1.6083,-1.6083,-1.6083,-1.6083,-1.6083,-1.6083,-1.6083,-1.6083,-1.6083,-1.7452,-1.9602,-2.1557,-2.3706,-2.595,-2.8634,-2.9405,-2.9513,-3.0069,-3.0214,-3.0214,-3.0214,-3.0214,-3.0214,-3.0214,-3.0214,-3.0214,-3.0214,-3.0214,-3.0214,-3.0214,-3.0214,-3.0214,-3.0214,-3.0214,-3.0214,-3.0214,-3.0214,-3.0214,-3.0214,-3.0214,-3.0214,-3.0214,-3.0214,-3.0214,-3.0214,-3.0214,-3.0214,-3.0214,-3.0214,-3.0214,-3.0214,-3.0214,-3.0443,-3.0914,-3.0974,-3.124,-3.1735,-3.1783,-3.1807,-3.1807,-3.1807,-3.1807,1.2032,1.1403,1.0456,0.8968,0.6938,0.5061,0.3566,0.1614,0.0,0.0,0.0,0.0,0.0,-0.0565,-0.0954,-0.0763,-0.1335,-0.1907,-0.2288,-0.2288,-0.267,-0.3052,-0.3243,-0.4192,-0.59,-0.7985,-0.9879,-1.1956,-1.3852,-1.4993,-1.5181,-1.5181,-1.5181,-1.5181,-1.533,-1.5486,-1.5635,-1.5784,-1.5934,-1.6083,-1.6083,-1.6083,-1.6083,-1.6083,-1.6083,-1.6083,-1.6083,-1.6083,-1.6083,-1.6083,-1.6083,-1.6083,-1.6083,-1.6083,-1.6083,-1.6083,-1.6083,-1.6083,-1.6083,-1.7452,-1.9602,-2.1557,-2.3706,-2.595,-2.8634,-2.9405,-2.9513,-3.0069,-3.0214,-3.0214,-3.0214,-3.0214,-3.0214,-3.0214,-3.0214,-3.0214,-3.0214,-3.0214,-3.0214,-3.0214,-3.0214,-3.0214,-3.0214,-3.0214,-3.0214,-3.0214,-3.0214,-3.0214,-3.0214,-3.0214,-3.0214,-3.0214,-3.0214,-3.0214,-3.0214,-3.0214,-3.0214,-3.0214,-3.0214,-3.0214,-3.0214,-3.0214,-3.0358,-3.0648,-3.0877,-3.1143,-3.1445,-3.1686,-3.1807,-3.1807,-3.1807,-3.1807,1.1042,0.9938,0.884,0.7083,0.5227,0.3693,0.3036,0.1435,0.0,0.0,0.0,0.0,0.0,-0.0377,-0.0763,-0.0763,-0.1144,-0.1526,-0.1907,-0.2098,-0.2479,-0.267,-0.4002,-0.5142,-0.609,-0.8928,-1.1202,-1.2145,-1.404,-1.5181,-1.5181,-1.5181,-1.5181,-1.5181,-1.5248,-1.5357,-1.5506,-1.5662,-1.5852,-1.6083,-1.6083,-1.6083,-1.6083,-1.6083,-1.6083,-1.6083,-1.6083,-1.6083,-1.6083,-1.6083,-1.6083,-1.6083,-1.6083,-1.6083,-1.6083,-1.6083,-1.6083,-1.6083,-1.6083,-1.6672,-1.8038,-2.1165,-2.2926,-2.4371,-2.8241,-2.9405,-2.9513,-3.0069,-3.0214,-3.0214,-3.0214,-3.0214,-3.0214,-3.0214,-3.0214,-3.0214,-3.0214,-3.0214,-3.0214,-3.0214,-3.0214,-3.0214,-3.0214,-3.0214,-3.0214,-3.0214,-3.0214,-3.0214,-3.0214,-3.0214,-3.0214,-3.0214,-3.0214,-3.0214,-3.0214,-3.0214,-3.0214,-3.0214,-3.0214,-3.0214,-3.0214,-3.0214,-3.0274,-3.0383,-3.0793,-3.1131,-3.1384,-3.1674,-3.1807,-3.1807,-3.1807,-3.1807,1.0554,0.9464,0.8211,0.6055,0.4372,0.3182,0.2325,0.1076,0.0,0.0,0.0,0.0,0.0,-0.0377,-0.0572,-0.0763,-0.0954,-0.1144,-0.1526,-0.1716,-0.2098,-0.2288,-0.4,-0.5332,-0.609,-0.8928,-1.1008,-1.2145,-1.3657,-1.461,-1.5181,-1.5181,-1.5181,-1.5181,-1.5181,-1.5255,-1.5411,-1.5601,-1.5825,-1.6083,-1.6083,-1.6083,-1.6083,-1.6083,-1.6083,-1.6083,-1.6083,-1.6083,-1.6083,-1.6083,-1.6083,-1.6083,-1.6083,-1.6083,-1.6083,-1.6083,-1.6083,-1.6083,-1.6672,-1.6864,-1.7452,-2.1165,-2.2731,-2.3786,-2.7441,-2.8998,-2.9513,-3.0069,-3.0214,-3.0214,-3.0214,-3.0214,-3.0214,-3.0214,-3.0214,-3.0214,-3.0214,-3.0214,-3.0214,-3.0214,-3.0214,-3.0214,-3.0214,-3.0214,-3.0214,-3.0214,-3.0214,-3.0214,-3.0214,-3.0214,-3.0214,-3.0214,-3.0214,-3.0214,-3.0214,-3.0214,-3.0214,-3.0214,-3.0214,-3.0214,-3.0214,-3.0214,-3.0214,-3.0214,-3.066,-3.1022,-3.1288,-3.1638,-3.1807,-3.1807,-3.1807,-3.1807,1.2069,1.1328,0.9918,0.6228,0.542,0.4417,0.0895,0.0,0.0,0.0,0.0,0.0,0.0,0.0,-0.0191,-0.0763,-0.0382,-0.0382,-0.1335,-0.1144,-0.1144,-0.2098,-0.2479,-0.3431,-0.59,-0.628,-0.7985,-1.1956,-1.2334,-1.3281,-1.5181,-1.5181,-1.5181,-1.5181,-1.5181,-1.5255,-1.5411,-1.5696,-1.5927,-1.6083,-1.6083,-1.6083,-1.6083,-1.6083,-1.6083,-1.6083,-1.6083,-1.6083,-1.6083,-1.6083,-1.6083,-1.6083,-1.6083,-1.6083,-1.6083,-1.6083,-1.6083,-1.6474,-1.8434,-1.9018,-1.9413,-2.1557,-2.3706,-2.555,-2.6244,-2.7798,-2.9513,-3.0069,-3.0214,-3.0214,-3.0214,-3.0214,-3.0214,-3.0214,-3.0214,-3.0214,-3.0214,-3.0214,-3.0214,-3.0214,-3.0214,-3.0214,-3.0214,-3.0214,-3.0214,-3.0214,-3.0214,-3.0214,-3.0214,-3.0214,-3.0214,-3.0214,-3.0214,-3.0214,-3.0214,-3.0214,-3.0214,-3.0214,-3.0214,-3.0214,-3.0214,-3.0214,-3.0214,-3.0214,-3.0491,-3.0757,-3.1022,-3.1553,-3.1807,-3.1807,-3.1807,-3.1807,1.0226,0.9516,0.8281,0.4509,0.3693,0.321,0.0538,0.0,0.0,0.0,0.0,0.0,0.0,0.0,0.0,-0.0191,-0.0191,-0.0191,-0.0572,-0.0763,-0.0954,-0.1716,-0.2098,-0.286,-0.4002,-0.5332,-0.7226,-1.0068,-1.139,-1.3093,-1.5181,-1.5181,-1.5181,-1.5181,-1.5181,-1.5255,-1.5411,-1.5615,-1.5791,-1.5934,-1.6035,-1.6083,-1.6083,-1.6083,-1.6083,-1.6083,-1.6083,-1.6083,-1.6083,-1.6083,-1.6083,-1.6083,-1.6083,-1.6083,-1.6083,-1.6083,-1.6083,-1.6474,-1.8434,-1.9216,-1.9798,-2.3316,-2.4882,-2.5755,-2.7638,-2.88,-2.9513,-3.0069,-3.0214,-3.0214,-3.0214,-3.0214,-3.0214,-3.0214,-3.0214,-3.0214,-3.0214,-3.0214,-3.0214,-3.0214,-3.0214,-3.0214,-3.0214,-3.0214,-3.0214,-3.0214,-3.0214,-3.0214,-3.0214,-3.0214,-3.0214,-3.0214,-3.0214,-3.0214,-3.0214,-3.0214,-3.0214,-3.0214,-3.0214,-3.0214,-3.0214,-3.0214,-3.0214,-3.0214,-3.0467,-3.0733,-3.0998,-3.136,-3.1626,-3.1807,-3.1807,-3.1807,0.9938,0.9403,0.8502,0.5401,0.4242,0.3404,0.1435,0.0538,0.0,0.0,0.0,0.0,0.0,0.0,0.0,0.0,0.0,0.0,0.0,-0.0382,-0.0763,-0.1335,-0.1907,-0.2288,-0.3052,-0.4383,-0.628,-0.8932,-1.0446,0.0,-1.4993,-1.5181,-1.5181,-1.5181,-1.5181,-1.5255,-1.5411,-1.556,-1.571,-1.5852,-1.6008,-1.6083,-1.6083,-1.6083,-1.6083,-1.6083,-1.6083,-1.6083,-1.6083,-1.6083,-1.6083,-1.6083,-1.6083,-1.6083,-1.6083,-1.6083,-1.6083,-1.6474,-1.9216,-2.0192,-2.0773,-2.4289,-2.6056,-2.6737,-2.8044,-2.88,-2.9513,-3.0069,-3.0214,-3.0214,-3.0214,-3.0214,-3.0214,-3.0214,-3.0214,-3.0214,-3.0214,-3.0214,-3.0214,-3.0214,-3.0214,-3.0214,-3.0214,-3.0214,-3.0214,-3.0214,-3.0214,-3.0214,-3.0214,-3.0214,-3.0214,-3.0214,-3.0214,-3.0214,-3.0214,-3.0214,-3.0214,-3.0214,-3.0214,-3.0214,-3.0214,-3.0214,-3.0214,-3.0214,-3.0383,-3.06,-3.0865,-3.1215,-3.1529,-3.1807,-3.1807,-3.1807,0.0,0.0,0.0,0.8782,0.7098,0.5191,0.3404,0.1435,0.0,0.0,0.0,0.0,0.0,0.0,0.0,0.0,0.0,0.0,0.0,0.0,-0.0382,-0.1335,-0.1526,-0.1907,-0.3052,-0.3052,-0.4764,-0.8743,-0.9122,-1.0824,-1.4993,-1.5181,-1.5181,-1.5181,-1.5181,-1.5255,-1.5404,-1.5554,-1.5703,-1.5852,-1.6001,-1.6076,-1.6083,-1.6083,-1.6083,-1.6083,-1.6083,-1.6083,-1.6083,-1.6083,-1.6083,-1.6083,-1.6083,-1.6083,-1.6083,-1.6083,-1.6083,-1.6672,-2.0773,-2.234,-2.2731,-2.4882,-2.7044,-2.8331,-2.6848,-2.7798,-2.9513,-3.0069,-3.0214,-3.0214,-3.0214,-3.0214,-3.0214,-3.0214,-3.0214,-3.0214,-3.0214,-3.0214,-3.0214,-3.0214,-3.0214,-3.0214,-3.0214,-3.0214,-3.0214,-3.0214,-3.0214,-3.0214,-3.0214,-3.0214,-3.0214,-3.0214,-3.0214,-3.0214,-3.0214,-3.0214,-3.0214,-3.0214,-3.0214,-3.0214,-3.0214,-3.0214,-3.0214,-3.0214,-3.0214,-3.0346,-3.0612,-3.1119,-3.1517,-3.1795,-3.1807,-3.1807,1.0715,0.0,0.0,0.0,0.0,0.0,0.3583,0.2524,0.1639,0.0369,0.0,0.0,0.0,0.0,0.0,0.0,0.0,0.0,0.0,0.0,-0.0191,-0.0954,-0.1335,-0.1716,-0.2479,-0.2862,-0.4192,0.0,-0.8364,-1.0257,-1.2904,-1.4422,-1.5181,-1.5181,-1.5181,-1.5201,-1.5248,-1.5398,-1.5547,-1.5703,-1.5845,-1.5974,-1.6083,-1.6083,-1.6083,-1.6083,-1.6083,-1.6083,-1.6083,-1.6083,-1.6083,-1.6083,-1.6083,-1.6083,-1.6083,-1.6083,-1.6083,-1.6672,-2.0773,-2.234,-2.2926,-2.6647,-2.8031,-2.8524,-2.8646,-2.8998,-2.9513,-3.0069,-3.0214,-3.0214,-3.0214,-3.0214,-3.0214,-3.0214,-3.0214,-3.0214,-3.0214,-3.0214,-3.0214,-3.0214,-3.0214,-3.0214,-3.0214,-3.0214,-3.0214,-3.0214,-3.0214,-3.0214,-3.0214,-3.0214,-3.0214,-3.0214,-3.0214,-3.0214,-3.0214,-3.0214,-3.0214,-3.0214,-3.0214,-3.0214,-3.0214,-3.0214,-3.0214,-3.0214,-3.0214,-3.0346,-3.0612,-3.0938,-3.124,-3.1505,-3.171,-3.1807,0.839,0.8654,0.8748,0.8485,0.0,0.0,0.4476,0.2881,0.1454,0.0185,0.0,0.0,0.0,0.0,0.0,0.0,0.0,0.0,0.0,0.0,-0.0191,-0.0763,-0.0954,-0.1335,-0.1907,-0.2479,-0.3621,-0.571,-0.7037,-0.9122,-1.1956,-1.404,-1.5181,-1.5181,-1.5181,-1.5181,-1.5181,-1.5337,-1.5452,-1.5547,-1.5757,-1.59,-1.5988,-1.6049,-1.6083,-1.6083,-1.6083,-1.6083,-1.6083,-1.6083,-1.6083,-1.6083,-1.6083,-1.6083,-1.6282,-1.7062,-1.6864,-1.6672,-2.0773,-2.234,-2.2926,-2.626,-2.7839,-2.8705,-2.9115,-2.932,-2.9489,-2.9924,-3.0129,-3.0214,-3.0214,-3.0214,-3.0214,-3.0214,-3.0214,-3.0214,-3.0214,-3.0214,-3.0214,-3.0214,-3.0214,-3.0214,-3.0214,-3.0214,-3.0214,-3.0214,-3.0214,-3.0214,-3.0214,-3.0214,-3.0214,-3.0214,-3.0214,-3.0214,-3.0214,-3.0214,-3.0214,-3.0214,-3.0214,-3.0214,-3.0214,-3.0214,-3.0214,-3.0214,-3.0214,-3.0346,-3.0612,-3.0865,-3.1191,-3.1566,-3.1735,-3.1807,0.5369,0.5422,0.6004,0.7851,0.5906,0.0,0.537,0.3052,0.0543,0.0369,0.0186,0.0,0.0,0.0,0.0,0.0,0.0,0.0,0.0,0.0,-0.0191,-0.0572,-0.0763,-0.0954,-0.1335,-0.1907,-0.305,-0.4757,-0.59,-0.8174,-1.1956,-1.404,-1.5181,-1.5181,-1.5181,-1.5181,-1.5181,-1.5316,-1.5391,-1.5411,-1.5696,-1.5839,-1.5859,-1.6008,-1.6083,-1.6083,-1.6083,-1.6083,-1.6083,-1.6083,-1.6083,-1.6083,-1.6083,-1.6083,-1.6275,-1.8434,-1.8038,-1.7062,-2.0969,-2.2535,-2.2926,-2.4882,-2.6851,-2.8669,-2.8934,-2.92,-2.9465,-2.9755,-3.002,-3.0214,-3.0214,-3.0214,-3.0214,-3.0214,-3.0214,-3.0214,-3.0214,-3.0214,-3.0214,-3.0214,-3.0214,-3.0214,-3.0214,-3.0214,-3.0214,-3.0214,-3.0214,-3.0214,-3.0214,-3.0214,-3.0214,-3.0214,-3.0214,-3.0214,-3.0214,-3.0214,-3.0214,-3.0214,-3.0214,-3.0214,-3.0214,-3.0214,-3.0214,-3.0214,-3.0214,-3.0346,-3.0612,-3.0865,-3.1264,-3.1759,-3.1795,-3.1807,0.5068,0.5451,0.5649,0.6068,0.6799,0.0,0.5906,0.5079,0.4228,0.2586,0.1125,0.0,0.0,0.0,0.0,0.0,0.0,0.0,0.0,0.0,0.0,-0.0191,-0.0572,-0.0763,-0.0954,-0.1716,-0.2479,-0.2859,-0.6467,-0.95,-1.2145,-1.404,-1.5181,-1.5181,-1.5181,-1.5181,-1.5181,-1.5215,-1.5289,-1.5411,-1.5594,-1.5744,-1.5859,-1.6008,-1.6083,-1.6083,-1.6083,-1.6083,-1.6083,-1.6083,-1.6083,-1.6083,-1.6083,-1.6083,-1.6275,-1.8434,-1.9018,-1.9018,-2.1361,-2.3511,-2.4882,-2.527,-2.6851,-2.8669,-2.8934,-2.92,-2.9501,-2.9996,-3.0177,-3.0214,-3.0214,-3.0214,-3.0214,-3.0214,-3.0214,-3.0214,-3.0214,-3.0214,-3.0214,-3.0214,-3.0214,-3.0214,-3.0214,-3.0214,-3.0214,-3.0214,-3.0214,-3.0214,-3.0214,-3.0214,-3.0214,-3.0214,-3.0214,-3.0214,-3.0214,-3.0214,-3.0214,-3.0214,-3.0214,-3.0214,-3.0214,-3.0214,-3.0214,-3.0214,-3.0214,-3.0346,-3.0612,-3.0865,-3.1155,-3.1481,-3.1698,-3.1807,0.2283,0.2833,0.3026,0.4112,0.5013,0.0,0.0,0.4894,0.4039,0.3139,0.1311,0.0,0.0,0.0,0.0,0.0,0.0,0.0,0.0,0.0,0.0,0.0,-0.0191,-0.0382,-0.0382,-0.1144,-0.1716,-0.2288,-0.552,-0.8554,-1.0635,-1.2528,-1.4228,-1.5181,-1.5181,-1.5181,-1.5181,-1.5181,-1.5221,-1.5303,-1.5527,-1.5676,-1.575,-1.5981,-1.6083,-1.6083,-1.6083,-1.6672,-1.765,-1.6474,-1.6672,-1.7452,-1.6474,-1.6083,-1.6474,-1.961,-1.9995,-1.961,-2.2731,-2.4678,-2.5464,-2.5464,-2.6851,-2.8644,-2.8777,-2.9091,-2.9513,-3.0069,-3.0214,-3.0214,-3.0214,-3.0214,-3.0214,-3.0214,-3.0214,-3.0214,-3.0214,-3.0214,-3.0214,-3.0214,-3.0214,-3.0214,-3.0214,-3.0214,-3.0214,-3.0214,-3.0214,-3.0214,-3.0214,-3.0214,-3.0214,-3.0214,-3.0214,-3.0214,-3.0214,-3.0214,-3.0214,-3.0214,-3.0214,-3.0214,-3.0214,-3.0214,-3.0274,-3.0407,-3.0539,-3.0672,-3.0805,-3.1071,-3.1336,-3.1614,-3.2012,-3.2133,-0.053,0.0,0.0359,0.1972,0.0,0.3404,0.0,0.0,0.0,0.3506,0.1867,0.0378,0.0,0.0,0.0,0.0,0.0,0.0,0.0,0.0,0.0,0.0,0.0,0.0,0.0,-0.0572,-0.1144,-0.2288,-0.4571,-0.6847,-0.8932,-1.1013,-1.3093,-1.5181,-1.5181,-1.5181,-1.5181,-1.5181,-1.5181,-1.5187,-1.5466,-1.5608,-1.5649,-1.5913,-1.6056,-1.6083,-1.6083,-1.7261,-1.9018,-1.7452,-1.7848,-1.9602,-1.7062,-1.6083,-1.6672,-2.0782,-2.1165,-2.0389,-2.4095,-2.5669,-2.6056,-2.5658,-2.6851,-2.8644,-2.8741,-2.9067,-2.9513,-3.0069,-3.0214,-3.0214,-3.0214,-3.0214,-3.0214,-3.0214,-3.0214,-3.0214,-3.0214,-3.0214,-3.0214,-3.0214,-3.0214,-3.0214,-3.0214,-3.0214,-3.0214,-3.0214,-3.0214,-3.0214,-3.0214,-3.0214,-3.0214,-3.0214,-3.0214,-3.0214,-3.0214,-3.0214,-3.0214,-3.0214,-3.0214,-3.0238,-3.0286,-3.0334,-3.0467,-3.0672,-3.089,-3.0998,-3.0998,-3.1312,-3.159,-3.1819,-3.229,-3.2423,-0.0536,0.0,0.0,0.0,0.1614,0.0,0.0,0.0,0.5531,0.5354,0.0,0.2092,0.0382,0.0,0.0,0.0,0.0,0.0,0.0,0.0,0.0,0.0,0.0,0.0,0.0,-0.0572,-0.1144,-0.2288,-0.4189,-0.6467,-0.8932,-1.1013,-1.3093,-1.5181,-1.5181,-1.5181,-1.5181,-1.5181,-1.5181,-1.5181,-1.5357,-1.5506,-1.5642,-1.5805,-1.5954,-1.6083,-1.6083,-1.7261,-1.9216,-1.9018,-1.9995,-2.1557,-1.765,-1.6083,-1.6672,-2.0782,-2.2144,-2.234,-2.4688,-2.6647,-2.8031,-2.6056,-2.6851,-2.8717,-2.9175,-2.9357,-2.9513,-3.0069,-3.0214,-3.0214,-3.0214,-3.0214,-3.0214,-3.0214,-3.0214,-3.0214,-3.0214,-3.0214,-3.0214,-3.0214,-3.0214,-3.0214,-3.0214,-3.0214,-3.0214,-3.0214,-3.0214,-3.0214,-3.0214,-3.0214,-3.0214,-3.0214,-3.0214,-3.0214,-3.0214,-3.0214,-3.0214,-3.0214,-3.0214,-3.0322,-3.0552,-3.0781,-3.0926,-3.095,-3.0986,-3.0998,-3.0998,-3.1505,-3.1771,-3.1819,-3.2109,-3.235,-0.0716,-0.0897,0.0,0.0,0.0,0.0,0.3582,0.0,0.5907,0.0,0.0,0.0,0.0,0.0,0.0,0.0,0.0,0.0,0.0,0.0,0.0,0.0,0.0,0.0,0.0,-0.0572,-0.1144,-0.1716,-0.2859,-0.4759,-0.7226,-0.9311,-1.139,-1.3469,-1.461,-1.5181,-1.5181,-1.5181,-1.5181,-1.5181,-1.5337,-1.5493,-1.5642,-1.5784,-1.594,-1.6083,-1.6083,-1.8046,-2.0969,-1.9602,-2.1165,-2.39,-2.0773,-1.9018,-1.8038,-1.9798,-2.1361,-2.2731,-2.4688,-2.684,-2.8428,-2.7634,-2.7044,-2.7136,-2.8843,-2.9405,-2.9513,-3.0069,-3.0214,-3.0214,-3.0214,-3.0214,-3.0214,-3.0214,-3.0214,-3.0214,-3.0214,-3.0214,-3.0214,-3.0214,-3.0214,-3.0214,-3.0214,-3.0214,-3.0214,-3.0214,-3.0214,-3.0214,-3.0214,-3.0214,-3.0214,-3.0214,-3.0214,-3.0214,-3.0214,-3.0214,-3.0214,-3.0214,-3.0358,-3.0491,-3.06,-3.101,-3.1228,-3.1228,-3.1384,-3.1469,-3.1469,-3.1698,-3.1891,-3.2048,-3.2459,-3.2724,-0.1789,0.0,0.0,0.0,0.0,0.0,0.0,0.0,0.0,0.0,0.0,0.0,0.0,0.0,0.1716,0.1716,0.0,0.1525,0.0954,0.1334,0.1335,0.0191,0.0,0.0,0.0,-0.0382,-0.0763,-0.1526,-0.1907,-0.324,-0.59,-0.7985,-1.0068,-1.2145,-1.4228,-1.5181,-1.5181,-1.5181,-1.5181,-1.5181,-1.5296,-1.5432,-1.5581,-1.573,-1.5879,-1.6022,-1.6062,-1.8434,-2.2144,-2.0576,-2.2535,-2.6056,-2.4095,-2.234,-2.0969,-2.0969,-2.1949,-2.3511,-2.5669,-2.7249,-2.862,-2.862,-2.7634,-2.6726,-2.876,-2.9344,-2.9501,-2.9972,-3.0153,-3.0214,-3.0214,-3.0214,-3.0214,-3.0214,-3.0214,-3.0214,-3.0214,-3.0214,-3.0214,-3.0214,-3.0214,-3.0214,-3.0214,-3.0214,-3.0214,-3.0214,-3.0214,-3.0214,-3.0214,-3.0214,-3.0214,-3.0214,-3.0214,-3.0214,-3.0214,-3.0214,-3.025,-3.0526,-3.0769,-3.0951,-3.1231,-3.1671,-3.1928,-3.1928,-3.2124,-3.2234,-3.2234,-3.202,-3.2154,-3.2421,-3.2664,-3.2917,0.0,0.0,0.0,-0.0538,0.0,0.0,0.0,0.0,0.3651,0.0,0.0,0.0,0.0,0.0,0.5895,0.5895,0.5895,0.0,0.0,0.4565,0.4377,0.0382,0.0,0.0,0.0,0.0,-0.0382,-0.1335,-0.1526,-0.2858,-0.59,-0.7985,-1.0068,-1.2145,-1.4228,-1.5181,-1.5181,-1.5181,-1.5181,-1.5181,-1.5187,-1.5269,-1.5425,-1.5574,-1.5723,-1.5866,-1.6015,-1.8434,-2.234,-2.2144,-2.4688,-2.8224,-2.6249,-2.527,-2.527,-2.527,-2.527,-2.5669,-2.7827,-2.862,-2.862,-2.862,-2.862,-2.8476,-2.8946,-2.92,-2.9465,-2.9731,-3.0008,-3.0214,-3.0214,-3.0214,-3.0214,-3.0214,-3.0214,-3.0214,-3.0214,-3.0214,-3.0214,-3.0214,-3.0214,-3.0214,-3.0214,-3.0214,-3.0214,-3.0214,-3.0214,-3.0214,-3.0214,-3.0214,-3.0214,-3.0214,-3.0214,-3.0214,-3.0214,-3.0214,-3.0526,-3.1396,-3.1656,-3.2124,-3.3027,-3.3333,-3.3485,-3.3485,-3.3498,-3.3498,-3.3498,-3.286,-3.2784,-3.3057,-3.2689,-3.2748,0.0,0.0,-0.6793,-0.3224,0.0,0.0,0.0,0.0,0.0,0.0,0.0,0.0,0.0,0.0,0.3995,0.3995,0.5135,0.5895,0.0,0.5705,0.5515,0.4187,0.3997,0.3426,0.2095,0.0,0.0762,-0.1335,-0.1907,-0.267,-0.4002,-0.609,-0.7985,-1.0068,-1.2145,-1.3852,-1.5181,-1.5181,-1.5181,-1.5181,-1.5181,-1.5262,-1.5418,-1.5567,-1.5716,-1.6055,-1.7575,-1.9798,-2.234,-2.39,-2.6067,-2.862,-2.7827,-2.7634,-2.7237,-2.4494,-2.4289,-2.5862,-2.7839,-2.7634,-2.684,-2.8224,-2.7634,-2.6897,-2.8533,-2.92,-2.9465,-2.9719,-2.9996,-3.0214,-3.0214,-3.0214,-3.0214,-3.0214,-3.0214,-3.0214,-3.0214,-3.0416,-3.0619,-3.0214,-3.0416,-3.0822,-3.0822,-3.0822,-3.0822,-3.0822,-3.0822,-3.0809,-3.1214,-3.1012,-3.0822,-3.0822,-3.0822,-3.0822,-3.0822,-3.1012,-3.1541,-3.2022,-3.2287,-3.2565,-3.3053,-3.3345,-3.3498,-3.3498,-3.3498,-3.3498,-3.3498,-3.3286,-3.3336,-3.3437,-3.35,-3.321,-0.9273,-0.9282,0.0,-0.5722,-0.5722,0.0,-0.215,0.0,0.0,0.0,0.0,0.0,0.0,0.0,0.3803,0.2849,0.5318,0.7413,0.0,0.7602,0.7413,0.8171,0.7033,0.5133,0.3044,0.2664,0.1333,-0.1526,-0.1907,-0.2288,-0.3052,-0.4952,-0.704,-0.9122,-1.1202,-1.3093,-1.5181,-1.5181,-1.5181,-1.5181,-1.5181,-1.5605,-1.6459,-1.6685,-1.6838,-1.694,-1.9306,-2.0969,-2.2535,-2.4678,-2.6647,-2.862,-2.862,-2.862,-2.8236,-2.5475,-2.5475,-2.684,-2.8224,-2.7634,-2.684,-2.8416,-2.7827,-2.6874,-2.862,-2.9311,-2.9417,-2.9501,-3.0052,-3.0392,-3.0295,-3.0343,-3.0619,-3.0809,-3.0619,-3.0619,-3.0822,-3.1012,-3.1214,-3.0809,-3.1012,-3.1214,-3.1214,-3.1214,-3.1214,-3.1214,-3.1214,-3.1416,-3.1819,-3.1416,-3.1214,-3.1214,-3.1214,-3.1214,-3.1214,-3.1617,-3.1934,-3.2621,-3.2905,-3.3188,-3.368,-3.3978,-3.4134,-3.4134,-3.4134,-3.4134,-3.4134,-3.3922,-3.371,-3.371,-3.4515,-3.4828]},{"header":{"parameterUnit":"m.s-1","parameterCategory":1,"la1":30.6,"la2":29.2853,"lo1":-89.7004,"lo2":-87.6739,"dy":0.0162,"dx":0.0183,"nx":112,"ny":82,"refTime":"2023-04-09T00:00:00:Z","depth":0,"parameterNumber":3,"parameterNumberName":"V-component_of_WINDS"},"data":[0.0,0.0,0.0,0.0,0.0,0.0,0.0,0.0,0.0,0.0,0.0,0.0,0.0,0.0,0.0,0.0,0.0,0.0,0.0,0.0,0.0,0.0,0.0,0.0,0.0,0.0,0.0,0.0,0.0,0.0,0.0,0.0,0.0,0.0,0.0,0.0,0.0,0.0,0.0,0.0,0.0,0.0,0.0,0.0,0.0,0.0,0.0,0.0,0.0,0.0,0.0,0.0,0.0,0.0,0.0,0.0,0.0,0.0,0.0,0.0,0.0,0.0,0.0,0.0,0.0,0.0,0.0,0.0,0.0,0.0,0.0,0.0,0.0,0.0,0.0,0.0,0.0,0.0,0.0,0.0,0.0,0.0,0.0,0.0,0.0,0.0,0.0,0.0,0.0,0.0,6.9844,7.0469,6.9961,6.957,6.9492,6.9609,6.9609,6.9414,0.0,0.0,0.0,0.0,0.0,0.0,0.0,0.0,0.0,0.0,0.0,0.0,0.0,0.0,0.0,0.0,0.0,0.0,0.0,0.0,0.0,0.0,0.0,0.0,0.0,0.0,0.0,0.0,0.0,0.0,0.0,0.0,0.0,0.0,0.0,0.0,0.0,0.0,0.0,0.0,0.0,0.0,0.0,0.0,0.0,0.0,0.0,0.0,0.0,0.0,0.0,0.0,0.0,0.0,0.0,0.0,0.0,0.0,0.0,0.0,0.0,0.0,0.0,0.0,0.0,0.0,0.0,0.0,0.0,0.0,0.0,0.0,0.0,0.0,0.0,0.0,0.0,0.0,0.0,0.0,0.0,0.0,0.0,0.0,0.0,0.0,0.0,0.0,0.0,0.0,0.0,0.0,0.0,0.0,0.0,0.0,0.0,0.0,0.0,0.0,0.0,0.0,0.0,0.0,7.0273,6.9726,7.0156,7.0195,6.9492,7.0078,7.0195,6.9453,0.0,0.0,0.0,0.0,0.0,0.0,0.0,0.0,0.0,0.0,0.0,0.0,0.0,0.0,0.0,0.0,0.0,0.0,0.0,0.0,0.0,0.0,0.0,0.0,0.0,0.0,0.0,0.0,0.0,0.0,0.0,0.0,0.0,0.0,0.0,0.0,0.0,0.0,0.0,0.0,0.0,0.0,0.0,0.0,0.0,0.0,0.0,0.0,0.0,0.0,0.0,0.0,0.0,0.0,0.0,0.0,0.0,0.0,0.0,0.0,0.0,0.0,0.0,0.0,0.0,0.0,0.0,0.0,0.0,0.0,0.0,0.0,0.0,0.0,0.0,0.0,0.0,0.0,0.0,0.0,0.0,0.0,0.0,0.0,0.0,0.0,0.0,0.0,0.0,0.0,0.0,0.0,0.0,0.0,0.0,0.0,0.0,0.0,0.0,0.0,0.0,0.0,0.0,7.0703,7.039,6.9531,6.9805,6.9883,6.9453,6.9765,6.9844,6.9492,6.9492,0.0,0.0,0.0,0.0,0.0,0.0,0.0,0.0,0.0,0.0,0.0,0.0,0.0,0.0,0.0,0.0,0.0,0.0,0.0,0.0,0.0,0.0,0.0,0.0,0.0,0.0,0.0,0.0,0.0,0.0,0.0,0.0,0.0,0.0,0.0,0.0,0.0,0.0,0.0,0.0,0.0,0.0,0.0,0.0,0.0,0.0,0.0,0.0,0.0,0.0,0.0,0.0,0.0,0.0,0.0,0.0,0.0,0.0,0.0,0.0,0.0,0.0,0.0,0.0,0.0,0.0,0.0,0.0,0.0,0.0,0.0,0.0,0.0,0.0,0.0,0.0,0.0,0.0,0.0,0.0,0.0,0.0,0.0,0.0,0.0,0.0,0.0,0.0,0.0,0.0,0.0,0.0,0.0,0.0,0.0,0.0,0.0,0.0,0.0,0.0,0.0,0.0,7.0505,7.0192,6.9724,6.9921,7.0156,7.0312,7.0508,7.0664,7.0703,7.0312,0.0,0.0,0.0,0.0,0.0,0.0,0.0,0.0,0.0,0.0,0.0,0.0,0.0,0.0,0.0,0.0,0.0,0.0,0.0,0.0,0.0,0.0,0.0,0.0,0.0,0.0,0.0,0.0,0.0,0.0,0.0,0.0,0.0,0.0,0.0,0.0,0.0,0.0,0.0,0.0,0.0,0.0,0.0,0.0,0.0,0.0,0.0,0.0,0.0,0.0,0.0,0.0,0.0,0.0,0.0,0.0,0.0,0.0,0.0,0.0,0.0,0.0,0.0,0.0,0.0,0.0,0.0,0.0,0.0,0.0,0.0,0.0,0.0,0.0,0.0,0.0,0.0,0.0,0.0,0.0,0.0,0.0,0.0,0.0,0.0,0.0,0.0,0.0,0.0,0.0,0.0,0.0,0.0,0.0,0.0,0.0,0.0,0.0,0.0,0.0,0.0,0.0,6.9884,6.9689,7.0431,7.1283,7.2148,7.2969,7.3789,7.4258,7.4258,7.2734,0.0,0.0,0.0,0.0,0.0,0.0,0.0,0.0,0.0,0.0,0.0,0.0,0.0,0.0,0.0,0.0,0.0,0.0,0.0,0.0,0.0,0.0,0.0,0.0,0.0,0.0,0.0,0.0,0.0,0.0,0.0,0.0,0.0,0.0,0.0,0.0,0.0,0.0,0.0,0.0,0.0,0.0,0.0,0.0,0.0,0.0,0.0,0.0,0.0,0.0,0.0,0.0,0.0,0.0,0.0,0.0,0.0,0.0,0.0,0.0,0.0,0.0,0.0,0.0,0.0,0.0,0.0,0.0,0.0,0.0,0.0,0.0,0.0,0.0,0.0,0.0,0.0,0.0,0.0,0.0,0.0,0.0,0.0,0.0,0.0,0.0,0.0,0.0,0.0,0.0,0.0,0.0,0.0,0.0,0.0,0.0,0.0,0.0,0.0,0.0,0.0,0.0,7.2253,7.2491,7.2803,7.315,7.3516,7.3829,7.4141,7.4396,7.4471,0.0,0.0,0.0,0.0,0.0,0.0,0.0,0.0,0.0,0.0,0.0,0.0,0.0,0.0,0.0,0.0,0.0,0.0,0.0,0.0,0.0,0.0,0.0,0.0,0.0,0.0,0.0,0.0,0.0,0.0,0.0,0.0,0.0,0.0,0.0,0.0,0.0,0.0,0.0,0.0,0.0,0.0,0.0,0.0,0.0,0.0,0.0,0.0,0.0,0.0,0.0,0.0,0.0,0.0,0.0,0.0,0.0,0.0,0.0,0.0,0.0,0.0,0.0,0.0,0.0,0.0,0.0,0.0,0.0,0.0,0.0,0.0,0.0,0.0,0.0,0.0,0.0,0.0,0.0,0.0,0.0,0.0,0.0,0.0,0.0,0.0,0.0,0.0,0.0,0.0,0.0,0.0,0.0,0.0,0.0,0.0,0.0,0.0,0.0,0.0,0.0,0.0,7.331,7.382,7.4236,7.4509,7.4587,7.4728,7.5,7.5039,7.5073,7.5148,0.0,0.0,0.0,0.0,0.0,0.0,0.0,0.0,0.0,0.0,0.0,0.0,0.0,0.0,0.0,0.0,0.0,0.0,0.0,0.0,0.0,0.0,0.0,0.0,0.0,0.0,0.0,0.0,0.0,0.0,0.0,0.0,0.0,0.0,0.0,0.0,0.0,0.0,0.0,0.0,0.0,0.0,0.0,0.0,0.0,0.0,0.0,0.0,0.0,0.0,0.0,0.0,0.0,0.0,0.0,0.0,0.0,0.0,0.0,0.0,0.0,0.0,0.0,0.0,0.0,0.0,0.0,0.0,0.0,0.0,0.0,0.0,0.0,0.0,0.0,0.0,0.0,0.0,0.0,0.0,0.0,0.0,0.0,0.0,0.0,0.0,0.0,0.0,0.0,0.0,0.0,0.0,0.0,0.0,0.0,0.0,0.0,0.0,0.0,0.0,0.0,0.0,7.3989,7.4028,7.4377,7.5249,7.5468,7.5896,7.6754,7.6832,7.6843,0.0,0.0,0.0,0.0,0.0,0.0,0.0,0.0,0.0,0.0,0.0,0.0,0.0,0.0,0.0,0.0,0.0,0.0,0.0,0.0,0.0,0.0,0.0,0.0,0.0,0.0,0.0,0.0,0.0,0.0,0.0,0.0,0.0,0.0,0.0,0.0,0.0,0.0,0.0,0.0,0.0,0.0,0.0,0.0,0.0,0.0,0.0,0.0,0.0,0.0,0.0,0.0,0.0,0.0,0.0,0.0,0.0,0.0,0.0,0.0,0.0,0.0,0.0,0.0,0.0,0.0,0.0,0.0,0.0,0.0,0.0,0.0,0.0,0.0,0.0,0.0,0.0,0.0,0.0,0.0,0.0,0.0,0.0,0.0,0.0,0.0,0.0,0.0,0.0,0.0,0.0,0.0,0.0,0.0,0.0,0.0,0.0,0.0,0.0,0.0,0.0,0.0,0.0,7.4921,7.5934,7.6682,7.6975,7.756,7.8067,7.8339,7.8339,7.8399,7.8504,0.0,0.0,0.0,0.0,0.0,0.0,0.0,0.0,0.0,0.0,0.0,0.0,0.0,0.0,0.0,0.0,0.0,0.0,0.0,0.0,0.0,0.0,0.0,0.0,0.0,0.0,0.0,0.0,0.0,0.0,0.0,0.0,0.0,0.0,0.0,0.0,0.0,0.0,0.0,0.0,0.0,0.0,0.0,0.0,0.0,0.0,0.0,0.0,0.0,0.0,0.0,0.0,0.0,0.0,0.0,0.0,0.0,0.0,0.0,0.0,0.0,0.0,0.0,0.0,0.0,0.0,0.0,0.0,0.0,0.0,0.0,0.0,0.0,0.0,0.0,0.0,0.0,0.0,0.0,0.0,0.0,0.0,0.0,0.0,0.0,0.0,0.0,0.0,0.0,0.0,0.0,0.0,0.0,0.0,0.0,0.0,0.0,0.0,0.0,0.0,0.0,0.0,7.6749,7.7611,7.8216,7.8216,7.868,7.8989,7.8989,7.8989,7.9021,7.9114,0.0,0.0,0.0,0.0,0.0,0.0,0.0,0.0,0.0,0.0,0.0,0.0,0.0,0.0,0.0,0.0,0.0,0.0,0.0,0.0,0.0,0.0,0.0,0.0,0.0,0.0,0.0,0.0,0.0,0.0,0.0,0.0,0.0,0.0,0.0,0.0,0.0,0.0,0.0,0.0,0.0,0.0,0.0,0.0,0.0,0.0,0.0,0.0,0.0,0.0,0.0,0.0,0.0,0.0,0.0,0.0,0.0,0.0,0.0,0.0,0.0,0.0,0.0,0.0,0.0,0.0,0.0,0.0,0.0,0.0,0.0,0.0,0.0,0.0,0.0,0.0,0.0,0.0,0.0,0.0,0.0,0.0,0.0,0.0,0.0,0.0,0.0,0.0,0.0,0.0,0.0,0.0,0.0,0.0,0.0,0.0,0.0,0.0,0.0,0.0,0.0,0.0,7.8873,7.9042,7.9081,7.9081,7.9158,7.9197,7.9197,7.9197,7.9221,7.9221,0.0,0.0,0.0,0.0,0.0,0.0,0.0,0.0,0.0,0.0,0.0,0.0,0.0,0.0,0.0,0.0,0.0,0.0,0.0,0.0,0.0,0.0,0.0,0.0,0.0,0.0,0.0,0.0,0.0,0.0,0.0,0.0,0.0,0.0,0.0,0.0,0.0,0.0,0.0,0.0,0.0,0.0,0.0,0.0,0.0,0.0,0.0,0.0,0.0,0.0,0.0,0.0,0.0,0.0,0.0,0.0,0.0,0.0,0.0,0.0,6.6805,6.7018,0.0,0.0,0.0,0.0,0.0,0.0,0.0,0.0,0.0,0.0,0.0,0.0,0.0,0.0,0.0,0.0,0.0,0.0,0.0,0.0,0.0,0.0,0.0,0.0,0.0,0.0,0.0,0.0,0.0,0.0,0.0,0.0,0.0,0.0,0.0,0.0,0.0,0.0,0.0,0.0,7.8838,7.9404,7.9802,7.9802,8.042,8.0806,8.0806,8.0833,8.0886,8.0886,8.0937,0.0,0.0,0.0,0.0,0.0,0.0,0.0,0.0,0.0,0.0,0.0,0.0,0.0,0.0,0.0,0.0,0.0,0.0,0.0,0.0,0.0,0.0,0.0,0.0,0.0,0.0,0.0,0.0,0.0,0.0,0.0,0.0,0.0,0.0,0.0,0.0,0.0,0.0,0.0,0.0,0.0,0.0,0.0,0.0,0.0,0.0,0.0,0.0,0.0,0.0,0.0,0.0,0.0,0.0,0.0,0.0,0.0,0.0,0.0,6.833,6.8327,0.0,0.0,0.0,0.0,0.0,0.0,0.0,0.0,0.0,0.0,0.0,0.0,0.0,0.0,0.0,0.0,0.0,0.0,0.0,0.0,0.0,0.0,0.0,0.0,0.0,0.0,0.0,0.0,0.0,0.0,0.0,0.0,0.0,0.0,0.0,0.0,0.0,0.0,0.0,0.0,8.0589,8.101,8.1407,8.1793,8.2217,8.2487,8.2487,8.2516,8.2543,8.2543,8.2598,0.0,0.0,0.0,0.0,0.0,0.0,0.0,0.0,0.0,0.0,0.0,0.0,0.0,0.0,0.0,0.0,0.0,0.0,0.0,0.0,0.0,0.0,0.0,0.0,0.0,0.0,0.0,0.0,0.0,0.0,0.0,0.0,0.0,0.0,0.0,0.0,0.0,0.0,0.0,0.0,0.0,0.0,0.0,0.0,0.0,0.0,0.0,0.0,0.0,0.0,0.0,0.0,0.0,6.9557,6.9585,6.9528,6.9584,6.985,7.0266,6.9561,6.9267,6.9321,6.9535,0.0,0.0,0.0,0.0,0.0,0.0,0.0,0.0,0.0,0.0,0.0,0.0,0.0,0.0,0.0,0.0,0.0,0.0,0.0,0.0,0.0,0.0,7.5856,7.6708,7.7272,7.7053,7.4988,0.0,0.0,0.0,0.0,0.0,0.0,0.0,0.0,0.0,0.0,0.0,8.2659,8.2834,8.3037,8.3693,8.377,8.377,8.377,8.377,8.377,8.377,8.3856,8.3884,0.0,0.0,0.0,0.0,0.0,0.0,0.0,0.0,0.0,0.0,0.0,0.0,0.0,0.0,0.0,0.0,0.0,0.0,0.0,0.0,0.0,0.0,0.0,0.0,0.0,0.0,0.0,0.0,0.0,0.0,0.0,0.0,5.4972,5.528,0.0,0.0,0.0,0.0,0.0,0.0,0.0,0.0,0.0,0.0,0.0,0.0,0.0,6.6995,6.8756,6.8893,6.9061,6.9335,7.0139,7.0364,7.0105,7.0868,7.1068,7.0799,7.0684,0.0,7.0932,7.1125,0.0,0.0,0.0,0.0,0.0,0.0,0.0,0.0,0.0,0.0,0.0,0.0,0.0,0.0,0.0,0.0,0.0,0.0,0.0,0.0,0.0,0.0,7.7235,7.8045,7.8296,7.8276,7.7929,7.8073,7.8232,7.8359,7.8475,7.9053,0.0,0.0,0.0,0.0,0.0,0.0,8.3556,8.3534,8.351,8.3625,8.3625,8.3625,8.3625,8.3688,8.371,8.371,8.377,8.3799,8.3799,8.3884,0.0,0.0,0.0,0.0,0.0,0.0,0.0,0.0,0.0,0.0,0.0,0.0,0.0,0.0,0.0,0.0,0.0,0.0,0.0,0.0,0.0,0.0,0.0,0.0,0.0,0.0,0.0,0.0,0.0,5.4665,5.5828,5.6478,5.7566,5.8643,0.0,0.0,0.0,0.0,0.0,0.0,0.0,0.0,0.0,6.7953,6.8031,6.8669,7.0,7.0074,7.0341,7.0809,7.1221,7.1308,7.107,7.1373,7.1339,7.1053,7.0979,7.094,7.1077,7.126,7.1319,7.1317,0.0,0.0,0.0,0.0,7.1753,7.225,7.2119,7.2344,7.2771,7.3159,0.0,0.0,0.0,0.0,0.0,0.0,0.0,7.7328,7.7512,7.7819,7.8332,7.9045,7.9246,7.9477,8.0439,8.0692,8.0568,8.0145,8.0799,8.1685,8.2486,8.2631,0.0,0.0,0.0,8.3873,8.4373,8.4388,8.4516,8.4939,8.5016,8.5016,8.5016,8.501,8.5043,8.5043,8.5105,8.5167,8.5167,8.5227,8.5092,0.0,0.0,0.0,0.0,0.0,0.0,0.0,0.0,0.0,0.0,0.0,0.0,0.0,0.0,0.0,0.0,0.0,0.0,0.0,0.0,0.0,0.0,0.0,0.0,0.0,0.0,0.0,0.0,5.6035,5.7001,5.7881,5.929,6.0513,0.0,0.0,0.0,0.0,0.0,0.0,6.6877,6.713,6.7926,6.9499,6.9577,7.0036,7.1011,7.1011,7.1363,7.1987,7.1987,7.1862,7.1653,7.1544,7.1474,7.1448,7.1313,7.136,7.1541,7.1246,7.1231,7.1414,7.1495,7.1704,7.1979,7.1897,7.2347,7.294,7.2788,7.3141,7.3682,7.3876,7.4286,7.4757,7.5061,0.0,0.0,0.0,0.0,7.8905,7.8864,7.9114,7.9544,8.0269,8.0631,8.1093,8.2362,8.2824,8.2708,8.19,8.2747,8.367,8.3901,8.3965,0.0,8.4265,8.4304,8.4535,8.5228,8.5241,8.544,8.6055,8.6094,8.6094,8.6094,8.6094,8.6094,8.6094,8.6159,8.6153,8.6153,8.6285,8.6075,8.5478,0.0,0.0,0.0,0.0,0.0,0.0,0.0,0.0,0.0,0.0,0.0,0.0,0.0,0.0,0.0,0.0,0.0,0.0,0.0,0.0,0.0,0.0,0.0,0.0,0.0,0.0,0.0,0.0,0.0,5.9669,6.1242,0.0,0.0,0.0,0.0,6.5572,6.6629,6.773,6.8981,6.9072,6.9499,7.0494,7.0536,7.0976,7.1909,7.1948,7.1948,7.1987,7.1987,7.1828,7.1497,7.1481,7.1745,7.2157,7.2129,7.2591,7.3245,7.1618,7.1505,7.2407,7.2225,7.2847,7.3819,7.3498,7.3472,7.3628,7.3509,7.3504,7.3658,7.4389,7.5851,7.7432,7.8083,7.8502,0.0,0.0,7.8468,7.8699,7.9515,8.0362,8.1201,8.1977,8.2824,8.3439,8.3516,8.417,8.4516,8.3632,8.3516,8.3862,8.4709,0.0,8.5093,8.5863,8.5978,8.5978,8.6055,8.6055,8.6055,8.6094,8.6094,8.6094,8.6094,8.6094,8.6094,8.6094,8.6094,8.6094,8.6094,8.6191,8.6184,8.6146,8.6366,0.0,0.0,0.0,0.0,0.0,0.0,0.0,0.0,0.0,0.0,0.0,0.0,0.0,0.0,0.0,0.0,0.0,0.0,0.0,0.0,0.0,0.0,0.0,0.0,0.0,0.0,0.0,0.0,6.1243,6.2542,0.0,6.4403,6.5462,6.656,6.7658,6.8296,6.9046,7.003,7.0084,7.0512,7.1392,7.1444,7.1636,7.1987,7.1987,7.1987,7.1987,7.1987,7.2101,7.2258,7.2258,7.2538,7.3053,7.3053,7.3206,7.3437,7.2822,7.28,7.315,7.3042,7.3278,7.3664,7.3532,7.384,7.4422,7.4928,7.5476,7.6092,7.6861,7.7603,7.8199,7.843,7.8951,7.9432,7.9353,8.0092,8.1016,8.1323,8.2054,8.2785,8.3054,8.3362,8.3747,8.4324,8.467,8.4978,8.517,8.5209,8.5324,8.5632,8.567,8.5786,8.6055,8.6094,8.6094,8.6094,8.6094,8.6094,8.6094,8.6094,8.6094,8.6094,8.6094,8.6094,8.6094,8.6094,8.6094,8.6094,8.6126,8.6159,8.6184,8.6285,8.6375,0.0,0.0,0.0,0.0,0.0,0.0,0.0,0.0,0.0,0.0,0.0,0.0,0.0,0.0,0.0,0.0,0.0,0.0,0.0,0.0,0.0,0.0,0.0,0.0,0.0,6.1429,6.2554,6.2784,6.4133,6.5341,6.6315,6.7255,6.8219,6.9195,6.9565,7.0102,7.0959,7.1035,7.1441,7.2294,7.2344,7.2489,7.2846,7.2846,7.2846,7.2846,7.2846,7.2959,7.3152,7.3152,7.3429,7.3899,7.3899,7.4091,7.4361,7.4668,7.4784,7.4707,7.413,7.4245,7.4784,7.4784,7.5284,7.6053,7.663,7.7207,7.7823,7.8669,7.8938,7.9054,7.9592,8.0169,8.0708,8.1016,8.1862,8.2747,8.2747,8.3401,8.4055,8.4055,8.4247,8.4593,8.517,8.5286,8.5478,8.6017,8.6094,8.6094,8.6094,8.6094,8.6094,8.6094,8.6094,8.6094,8.6094,8.6094,8.6094,8.6094,8.6094,8.6094,8.6094,8.6363,8.6401,8.6132,8.6363,8.6401,8.6094,8.6363,8.6434,8.6191,8.6184,8.6285,8.6472,0.0,0.0,0.0,0.0,0.0,0.0,0.0,0.0,0.0,0.0,0.0,0.0,0.0,0.0,0.0,0.0,0.0,0.0,0.0,0.0,0.0,0.0,0.0,6.1612,6.2485,6.3651,6.4519,6.5994,6.728,6.8191,6.8723,6.936,7.0192,7.0512,7.0998,7.1788,7.1932,7.2378,7.3194,7.3242,7.366,7.4486,7.4486,7.4486,7.4486,7.4486,7.4324,7.4045,7.4045,7.4281,7.4745,7.4784,7.5245,7.6092,7.6976,7.7323,7.7169,7.5476,7.5861,7.7323,7.7323,7.7861,7.8515,7.8515,7.8554,7.8707,7.9592,7.99,8.0208,8.1823,8.2324,8.2516,8.3362,8.3593,8.3632,8.3632,8.4286,8.4939,8.4939,8.5517,8.6094,8.6094,8.6094,8.6094,8.6094,8.6094,8.6094,8.6094,8.6094,8.6094,8.6094,8.6094,0.0,8.6094,8.6132,8.6132,8.6094,8.6132,8.6132,8.6094,8.6863,8.7017,8.6209,8.694,8.7017,8.6209,8.6978,8.7055,8.6209,8.6268,8.6331,8.6461,0.0,0.0,0.0,0.0,0.0,0.0,0.0,0.0,0.0,0.0,0.0,0.0,0.0,0.0,0.0,0.0,0.0,0.0,0.0,0.0,0.0,6.4176,6.4784,6.3841,6.4845,6.6026,6.6864,6.7535,6.8321,6.9324,6.9672,7.0261,7.1303,7.2,7.255,7.2799,7.3437,7.3897,7.414,7.4126,7.4262,7.4486,7.4486,7.4486,7.4486,7.4486,7.4749,7.5145,7.4989,7.5294,7.589,7.637,7.6707,7.7015,7.7823,7.8169,7.813,7.763,7.7746,7.8169,7.8169,7.8707,7.9438,7.9438,7.9862,8.0516,8.1362,8.1593,8.1823,8.2901,8.3247,8.3285,8.3516,8.4055,8.4555,8.4555,8.517,8.5786,8.5786,8.594,8.6094,8.6094,8.6094,8.6094,8.6094,8.6094,8.6094,8.6094,8.6094,8.6094,8.6094,8.6094,0.0,8.6094,8.6632,8.6786,8.617,8.6671,8.6786,8.617,8.6324,8.6632,8.7017,8.7286,8.7594,8.7979,8.8209,8.8209,8.7979,8.8078,8.8111,0.0,0.0,0.0,0.0,0.0,0.0,0.0,0.0,0.0,0.0,0.0,0.0,0.0,0.0,0.0,0.0,0.0,0.0,0.0,0.0,0.0,0.0,6.5993,6.6657,6.6543,6.693,6.7515,6.8356,6.8767,6.934,7.0324,7.1021,7.1667,7.2284,7.3142,7.3651,7.3719,7.4193,7.4684,7.5036,7.5052,7.5227,7.5579,7.5579,7.5579,7.5579,7.5579,7.5967,7.6649,7.6459,7.673,7.7365,7.7659,7.7784,7.7861,7.8707,7.9054,7.9015,0.0,0.0,0.0,0.0,7.99,8.04,8.0746,8.117,8.1747,8.2554,8.2824,8.3016,8.3862,8.4132,8.4209,8.4555,8.5016,8.5401,8.5401,8.5747,8.6094,8.6094,8.6094,8.6094,8.6094,8.6094,8.6094,8.6094,8.6094,0.0,8.6594,8.6324,8.6094,8.6094,8.6094,8.6094,8.6094,8.6555,8.6671,8.617,8.6555,8.6632,8.6132,8.644,0.0,0.0,0.0,8.7632,8.8132,8.7786,0.0,0.0,0.0,8.8392,8.8738,8.8804,0.0,0.0,8.7434,8.7665,0.0,0.0,0.0,0.0,0.0,0.0,0.0,0.0,0.0,0.0,0.0,0.0,0.0,0.0,0.0,0.0,6.7604,6.8356,6.9196,6.8738,6.8616,6.9298,6.9849,7.0462,7.1218,7.2477,7.3258,7.3258,7.4038,7.4548,7.4545,7.4701,0.0,0.0,0.0,7.632,7.7101,7.7101,7.714,7.7257,7.7257,7.7614,7.8269,7.8069,7.8282,7.8843,7.8756,7.8661,7.8707,7.9592,8.0015,8.0015,7.9131,7.9285,8.0054,8.0939,8.1246,8.1362,8.217,0.0,0.0,8.3439,8.3747,8.3901,8.4786,8.5055,8.517,8.5901,8.6094,8.6094,8.6094,8.6094,8.6094,8.6094,8.6094,8.6094,8.6094,8.6094,8.6132,8.6247,8.6247,8.6517,8.7401,8.6824,8.6247,8.6247,8.6247,8.6209,8.6094,8.6209,8.6209,8.6094,0.0,0.0,8.6094,8.6824,8.6978,8.6286,8.7055,8.7555,8.7555,8.6786,8.7132,8.8671,8.794,8.794,8.8709,8.8709,8.8671,8.8637,8.8688,8.8752,0.0,0.0,0.0,0.0,0.0,0.0,0.0,0.0,0.0,0.0,0.0,0.0,0.0,0.0,0.0,6.7884,6.8552,6.9234,7.0037,7.061,7.0821,7.0518,7.1323,7.2073,7.2422,7.3483,7.4155,7.4155,7.4973,7.5464,7.5525,7.6157,7.6601,7.6844,7.6834,7.6945,7.7101,7.7101,7.7453,7.8155,7.8155,0.0,7.9385,7.9166,7.9057,7.9059,7.9579,7.9709,7.9631,8.0477,8.1246,8.1747,8.09,8.0708,8.0939,8.1785,8.2054,8.217,8.3054,8.3362,8.3478,8.4362,8.467,8.4786,8.5632,8.5863,0.0,8.6055,8.6094,8.6094,8.6094,8.6094,8.6094,8.6094,8.6094,8.6094,8.6094,8.6094,8.6324,8.7017,8.7132,8.744,8.8286,8.7709,8.7132,8.7132,8.7132,8.6901,8.6209,8.6709,8.6863,8.617,8.6748,8.6863,8.617,8.6247,8.6594,8.7094,8.7979,8.844,8.844,8.8286,8.8363,8.8671,8.8517,8.8517,8.8709,8.8709,8.8493,8.8078,8.7798,8.8051,0.0,0.0,0.0,0.0,0.0,0.0,0.0,0.0,0.0,0.0,0.0,6.4572,6.5948,0.0,6.796,6.9129,6.9565,7.0075,7.0916,7.1535,7.1765,7.1514,7.239,7.3158,7.3407,7.4431,7.5051,7.5051,7.5869,7.637,7.6391,7.6785,7.7031,7.7101,7.7101,7.7296,7.7765,7.7765,7.8194,7.9053,7.9053,7.9522,8.0341,8.0134,8.0192,8.0398,8.0655,8.0652,8.0516,8.1362,8.217,8.2901,8.2516,8.2362,8.2401,8.2785,8.2939,8.3093,8.3939,8.4247,8.4401,8.5247,8.5517,8.5593,8.5978,8.6094,8.6094,8.6094,8.6094,8.6094,8.6094,8.6094,8.6094,8.6094,8.6094,8.6094,8.6094,8.644,8.6863,8.7325,8.7748,8.8325,8.9171,8.894,8.8517,8.8094,8.8055,8.7902,8.744,8.7786,8.7863,8.744,8.7786,8.7863,8.744,8.7401,8.7594,8.8017,8.844,8.8709,8.8709,8.8457,8.85,8.8883,8.8689,8.8759,8.9141,8.96,8.9791,8.9832,8.9572,8.9075,0.0,0.0,0.0,0.0,0.0,0.0,0.0,6.14,6.2512,6.4016,6.5201,6.6462,6.7906,6.8451,6.9093,7.0366,7.0648,7.1013,7.1893,7.239,7.2688,7.2739,7.3489,7.4111,7.4405,7.534,7.5947,7.5947,7.661,7.6995,7.7016,7.698,7.7109,7.7341,7.7335,7.7765,7.8624,7.8663,7.9092,7.9951,7.9951,8.042,8.1239,8.109,8.1272,8.1679,8.1615,8.1561,8.1631,8.2285,8.3054,8.3862,8.3862,8.3939,8.4055,8.3901,8.3862,8.3978,8.4824,8.5132,8.5247,8.5901,8.6094,8.6094,8.6094,8.6094,8.6094,8.6094,8.6094,8.6094,8.6094,8.6094,8.6094,8.6094,8.6094,8.617,8.6324,8.6901,8.7517,8.7825,8.844,8.9171,9.0017,9.0171,8.9902,8.9056,8.894,8.8863,8.8709,8.8709,8.8709,8.8709,8.8709,8.8709,8.8709,8.8709,8.8748,8.8902,8.894,8.9017,8.9171,8.8769,8.8842,8.9493,8.9025,8.9146,8.9885,9.0514,9.095,9.1266,9.1353,9.0444,5.436,5.6307,5.8388,5.9229,6.0624,6.1951,0.0,6.3998,6.5014,6.5434,6.6754,6.7947,6.8376,6.9353,7.0366,7.1379,7.1743,7.2178,7.3024,7.3999,7.4763,7.4906,7.5059,7.5222,7.5482,7.6325,7.6843,7.6843,7.696,7.6995,7.7016,7.698,7.7383,7.8239,7.8233,7.8663,7.9561,7.9561,7.999,8.0849,8.0849,8.1317,8.2137,8.2131,8.1984,8.1718,8.2042,8.2624,8.3324,8.3401,8.3978,8.4747,8.4747,8.5209,8.5747,8.5016,8.4747,8.4863,8.567,8.5978,8.5978,8.6055,8.6094,8.6094,8.6094,8.6094,8.6094,8.6094,8.6094,8.6094,8.6094,8.6094,8.6094,8.6094,8.6094,8.6324,8.7094,8.7325,8.7825,8.9325,8.971,9.0056,9.0902,9.1056,9.0748,8.9902,8.9787,8.9517,8.8786,8.8709,8.8709,8.8709,8.8709,8.8709,8.8709,8.8709,8.8979,8.971,8.9787,9.0133,9.0902,9.0867,9.087,9.0947,9.0449,9.0447,9.0989,9.0638,9.0212,8.9849,9.0301,9.1066,5.6571,5.8142,5.9638,6.0804,6.2023,6.3202,6.4234,6.5367,6.6371,6.6979,6.8128,6.9094,6.9505,7.0404,7.1226,7.1642,7.234,7.308,7.3966,7.4711,7.541,7.5988,7.6202,7.6313,7.6454,7.6804,7.6999,7.6999,7.7004,7.7231,7.7722,7.7772,7.8239,7.9131,7.917,7.9561,8.0459,8.0459,8.0888,8.1747,8.1747,8.1942,8.2332,8.2762,8.3048,8.3155,8.3094,8.3555,8.4362,8.4362,8.4863,8.5593,8.5593,8.5786,8.6055,8.5709,8.5593,8.567,8.5978,8.6094,8.6094,8.6094,8.6094,8.6094,8.6094,8.6094,8.6094,8.6094,8.6094,8.6094,8.6094,8.6094,8.6094,8.6094,8.6478,8.6978,8.7325,8.8171,8.9056,8.9748,9.0325,9.0787,9.1133,9.121,9.1095,9.071,9.0671,9.0556,9.021,9.0133,9.0133,9.0133,9.0594,9.0757,9.0417,9.0837,9.1259,9.1604,9.1642,9.1951,9.2633,9.2373,9.2218,9.2218,9.1368,9.1029,9.1273,9.1212,9.1206,9.1369,9.2073,9.2896,5.8979,6.0254,6.1415,6.2586,6.3583,6.4526,6.5543,6.6716,6.7701,6.8357,6.9207,6.9929,7.0556,7.1226,7.1833,7.2291,7.3168,7.4075,7.4923,7.5467,7.5992,7.6653,7.6858,7.7077,7.735,7.7155,7.7116,7.735,7.7346,7.7726,7.8621,7.8711,7.9167,8.0029,8.0068,8.0498,8.1356,8.1356,8.1669,8.2293,8.2528,8.2645,8.2645,8.338,8.3973,8.4449,8.4108,8.4439,8.5247,8.5247,8.5555,8.6094,8.6094,8.6094,8.6094,8.6094,8.6094,8.6094,8.6094,8.6094,8.6094,8.6094,8.6094,8.6094,8.6094,8.6094,8.6094,8.6094,8.6094,8.6094,8.6094,8.6094,8.6094,8.6094,8.6786,8.7478,8.7709,8.8902,8.9979,9.021,9.0787,9.121,9.121,9.1064,9.0989,9.0989,9.0839,9.08,9.0952,9.0839,9.0877,9.1259,9.1759,9.1983,9.1794,9.2322,9.2869,9.3268,9.3098,9.3344,9.4139,9.3655,9.3396,9.3396,9.2474,9.2072,9.224,9.2278,9.2455,9.2934,9.376,9.4215,6.1676,6.3036,6.4363,6.4977,6.5809,6.6653,6.7226,6.8316,6.9303,6.9508,6.9891,7.0449,7.1494,7.168,7.2215,7.3858,7.4571,7.5237,7.6049,7.6605,7.6948,7.6987,7.6999,7.735,7.8168,7.7506,7.735,7.8207,7.8252,7.8624,7.9519,7.9609,8.0066,8.0927,8.0966,8.1396,8.2254,8.2254,8.2254,8.2293,8.3074,8.3465,8.3458,8.3968,8.4527,8.5152,8.4982,8.5324,8.6055,8.6055,8.6094,8.6094,8.6094,8.6094,8.6094,8.6094,8.6094,8.6094,8.6094,8.6094,8.6094,8.6094,8.6094,8.6094,8.6094,8.6094,8.6094,8.6094,8.6094,8.6094,8.6094,8.6094,8.6094,8.6094,8.6786,8.7632,8.8479,8.9325,9.0171,9.1018,9.1171,9.121,9.121,9.0762,9.0444,9.0444,8.9977,8.9839,9.036,8.9977,9.0143,9.1467,9.1225,9.128,9.2026,9.2102,9.2679,9.4064,9.3611,9.3905,9.5293,9.4828,9.4528,9.4528,9.4029,9.3973,9.4476,9.401,9.376,9.3798,9.4586,9.4672,6.3362,6.4239,6.5091,6.5852,6.6555,6.7374,6.8302,6.8903,6.9574,7.0612,7.0912,7.1322,7.2372,7.3017,7.3581,7.4336,7.5208,7.5963,7.642,7.6762,7.6999,7.6999,7.7506,7.7973,7.8285,7.8012,7.8207,7.9026,7.9143,7.9547,8.0417,8.0542,8.0944,8.1825,8.2371,8.2801,8.3074,8.366,8.3972,8.3972,8.4245,8.4607,8.5047,8.5032,8.5419,8.5964,8.576,8.5863,8.6094,8.6094,8.6094,8.6094,8.6094,8.6094,8.6094,8.6094,8.6094,8.6094,8.6094,8.6094,8.6094,8.6094,8.6094,8.6094,8.6094,8.6094,8.6094,8.6094,8.6094,8.6094,8.6094,8.6094,8.6247,8.6824,8.7632,8.8479,8.9325,9.0171,9.0754,9.0685,9.0645,9.0564,9.0193,8.9977,8.9745,8.9402,8.9502,8.9649,8.9839,9.019,9.0635,9.1093,9.1974,9.248,9.2353,9.2918,9.3443,9.3871,9.3745,9.3985,9.4855,9.4706,9.4604,9.4604,9.4048,9.3914,9.4048,9.4098,9.4057,9.4057,9.4878,9.5157,6.4949,6.571,6.6468,6.7185,6.7672,6.8234,6.9185,6.9649,7.0189,7.1216,7.1669,7.2198,7.325,7.3921,7.4504,7.4985,7.576,7.6379,7.6591,7.683,7.7116,7.7428,7.7973,7.8558,7.9142,7.9181,7.9427,7.9968,8.0035,8.0579,8.1756,8.1859,8.2293,8.3152,8.3699,8.3972,8.3972,8.4519,8.4948,8.526,8.526,8.5585,8.6148,8.6029,8.6072,8.6288,8.6153,8.6094,8.6094,8.6094,8.6094,8.6094,8.6094,8.6094,8.6094,8.6094,8.6094,8.6094,8.6094,8.6094,8.6094,8.6094,8.6094,8.6094,8.6094,8.6094,8.6094,8.6094,8.6094,8.6094,8.6094,8.6094,8.6324,8.7171,8.8055,8.8902,8.9748,9.0594,9.1064,9.0485,9.0402,9.0236,8.9697,8.9452,8.9145,8.8653,8.9067,8.9582,8.9754,9.0125,9.0637,9.1363,9.222,9.2692,9.2652,9.3176,9.3597,9.3798,9.3597,9.3739,9.4287,9.416,9.4048,9.4048,9.398,9.3924,9.3924,9.4375,9.4622,9.466,9.544,9.5848,6.6402,6.7418,6.8464,6.9003,6.9091,6.9298,6.9853,7.0536,7.1181,7.1481,7.2202,7.3074,7.4091,7.4497,7.4938,7.5774,7.6289,7.6609,7.6626,7.6883,7.7389,7.8207,7.8363,7.9065,8.0662,8.0896,8.097,8.1016,8.1027,8.1755,8.3473,8.3565,8.3933,8.4753,8.4831,8.487,8.487,8.4909,8.5338,8.6158,8.6158,8.6412,8.6787,8.6787,8.6519,8.6094,8.6094,8.6094,8.6094,8.6094,8.6094,8.6094,8.617,8.617,8.617,8.6209,8.6247,8.6247,8.6247,8.617,8.6094,8.617,8.617,8.617,8.6209,8.6247,8.6247,8.6247,8.6247,8.6247,8.6176,8.6176,8.6406,8.7218,8.8064,8.8909,8.9717,9.0524,9.0952,9.0402,9.0317,9.0105,8.9601,8.9092,8.8616,8.8208,8.879,8.9485,9.0004,8.9682,9.0193,9.2196,9.207,9.2096,9.2914,9.2988,9.3211,9.3739,9.3301,9.3237,9.3739,9.3237,9.3025,9.3062,9.3805,9.4214,9.4251,9.5068,9.5477,9.5477,9.6294,9.6666,6.7642,6.8362,6.8959,6.9047,6.9382,6.9889,7.0649,7.0953,7.1522,7.2965,7.342,7.3912,7.4969,7.5379,7.5716,7.6083,7.6397,7.666,7.6858,7.752,7.8051,7.8285,7.9415,8.035,8.0779,8.1987,8.2757,8.2823,8.2835,8.3317,8.4411,8.4463,8.4558,8.4792,8.5416,8.5768,8.5768,8.6392,8.6861,8.7056,8.7056,8.6958,8.6787,8.6787,8.6519,8.6094,8.6094,8.6094,8.6094,8.6094,8.6094,8.617,8.6824,8.7055,8.7132,8.7786,8.8017,8.8017,8.8017,8.7171,8.6209,8.6863,8.7055,8.7171,8.7825,8.8017,8.8017,8.8017,8.8017,8.7948,8.7543,8.7466,8.7578,8.8047,8.8302,8.8683,8.9482,8.9825,8.9839,8.93,8.8952,8.8596,8.8517,8.8376,8.8232,8.8146,8.879,8.9336,8.9523,9.044,9.1306,9.187,9.2375,9.2765,9.2988,9.2988,9.3054,9.3211,9.3119,9.3054,9.3211,9.3119,9.3285,9.3879,9.4102,9.4511,9.5105,9.5886,9.6294,9.6294,9.7186,9.7557,6.8502,6.9047,6.946,6.946,6.9964,7.0536,7.0991,7.1673,7.2547,7.3649,7.4181,7.4711,7.5518,7.5861,7.6121,7.6316,7.6609,7.6947,7.7494,7.7973,7.8558,7.9298,8.0234,8.1091,8.187,8.2842,8.374,8.4554,8.4284,8.4451,8.5335,8.5351,8.5534,8.5924,8.6431,8.6666,8.6666,8.7173,8.7407,8.7407,8.7407,8.7192,8.6787,8.6787,8.6751,8.6671,8.6671,8.6901,8.7248,8.7248,8.7248,8.7286,8.7786,8.7979,8.8017,8.8517,8.8709,8.8709,8.8709,8.8055,8.7325,8.7825,8.7979,8.8055,8.8556,8.8567,8.842,8.8637,8.8345,8.7959,8.7918,8.7752,8.7687,8.8246,8.8426,8.8615,8.9411,8.9601,8.9452,8.8914,8.8399,8.8084,8.8084,8.8084,8.8084,8.8084,8.9087,8.983,8.983,9.0907,9.1836,9.2245,9.2691,9.2988,9.2988,9.2988,9.2988,9.2988,9.2988,9.2988,9.2988,9.3322,9.3731,9.4177,9.4883,9.5477,9.5923,9.6777,9.7186,9.7186,9.7669,9.7892,6.9134,6.9542,6.9891,6.9891,7.0498,7.1142,7.1256,7.2469,7.3684,7.3992,7.4676,7.532,7.5749,7.6121,7.6389,7.6555,7.6971,7.7545,7.8207,7.848,7.9181,8.0623,8.1013,8.1753,8.3234,8.3596,8.4362,8.5885,8.5459,8.5469,8.6243,8.6275,8.6627,8.7368,8.7407,8.7407,8.7407,8.7407,8.7446,8.7564,8.7564,8.7426,8.7176,8.7157,8.7318,8.7622,8.7589,8.7979,8.8709,8.8709,8.8709,8.8709,8.8825,8.8863,8.8863,8.8979,8.9017,8.9017,8.9017,8.9017,8.9017,8.8902,8.8863,8.8863,8.8909,8.8577,8.8303,8.8727,8.8141,8.7525,8.7927,8.7665,8.7523,8.823,8.8331,8.857,8.9251,8.9402,8.9249,8.8841,8.8376,8.8084,8.8084,8.8084,8.8084,8.8084,8.9459,9.0499,9.0499,9.1316,9.2171,9.2914,9.2988,9.2988,9.2988,9.2988,9.2988,9.2988,9.2988,9.3062,9.3136,9.3842,9.4288,9.4511,9.5886,9.6666,9.6777,9.752,9.7892,9.7892,9.7892,9.7892,6.9699,6.9853,6.9891,6.9891,7.0498,7.1294,7.2014,7.2924,7.3835,7.4791,7.5095,7.5284,7.5532,7.6486,7.704,7.6389,7.7826,7.8909,7.8363,7.9493,8.0467,8.0779,8.2065,8.3078,8.3351,8.4688,8.569,8.5963,8.6601,8.7024,8.7173,8.7173,8.7251,8.7407,8.7407,8.7407,8.7407,8.7407,8.7759,8.8461,8.8461,8.8716,8.9192,8.8963,8.881,8.8692,8.8534,8.8556,8.8709,8.8709,8.8709,8.8748,8.944,8.971,8.9787,9.0517,9.0787,9.0787,9.0787,9.0787,9.0671,8.994,8.971,8.9717,8.9994,9.0023,8.9902,8.9558,8.9327,8.9086,8.873,8.8571,8.8428,8.8234,8.819,8.8227,8.8339,8.8376,8.8316,8.8232,8.8146,8.8084,8.8084,8.8084,8.8084,8.8084,8.9459,9.0499,9.0499,9.1836,9.2839,9.2988,9.2988,9.2988,9.2988,9.2988,9.2988,9.2988,9.2988,9.3285,9.3954,9.414,9.4845,9.6146,9.648,9.6963,9.7669,9.7817,9.7892,9.7892,9.7892,9.7892,6.9853,6.9891,7.0005,7.0422,7.1142,7.1976,7.281,7.3682,7.4442,7.498,7.5171,7.5283,7.5556,7.6657,7.7411,7.7116,7.8458,7.9532,7.961,8.0312,8.113,8.2065,8.2883,8.3765,8.4668,8.552,8.619,8.6679,8.7141,8.7392,8.7407,8.7407,8.7407,8.7407,8.7407,8.7603,8.8071,8.8071,8.8501,8.9398,8.9398,8.9476,8.9703,8.941,8.9454,8.9665,8.9453,8.9594,9.0017,9.0017,9.0017,9.0056,9.0441,9.0594,9.0633,9.1056,9.121,9.121,9.121,9.121,9.1098,9.0378,9.0187,9.0148,9.0035,8.9792,8.9552,8.9601,8.9197,8.8841,8.8804,8.8616,8.8339,8.8146,8.8084,8.8084,8.8084,8.8084,8.8084,8.8084,8.8084,8.8084,8.8084,8.8084,8.8084,8.8084,8.9459,9.0499,9.0499,9.1948,9.2988,9.2988,9.2988,9.2988,9.2988,9.2988,9.2988,9.2988,9.2988,9.3359,9.4177,9.4585,9.5365,9.6591,9.7037,9.7483,9.7892,9.7892,9.7892,9.7892,9.7892,9.7892,6.9815,6.9891,7.0081,7.0877,7.1749,7.262,7.3416,7.4288,7.4935,7.4977,7.5095,7.5358,7.5871,7.697,7.7882,7.8145,7.9243,8.0234,8.074,8.0974,8.1675,8.3195,8.3546,8.4284,8.5856,8.6181,8.6598,8.734,8.7392,8.7407,8.7407,8.7407,8.7486,8.7681,8.7681,8.811,8.8969,8.8969,8.9437,9.0296,9.0296,9.0304,9.0288,8.9972,9.0136,9.0637,9.0333,9.0556,9.121,9.121,9.121,9.121,9.121,9.121,9.121,9.121,9.121,9.121,9.121,9.121,9.11,9.0444,9.0317,9.0279,8.9649,8.9145,8.8859,8.9197,8.871,8.8171,8.8538,8.8376,8.8084,8.8084,8.8084,8.8084,8.8084,8.8084,8.8084,8.8084,8.8084,8.8084,8.8084,8.8084,8.8084,8.8084,8.9459,9.0499,9.0499,9.1948,9.2988,9.2988,9.2988,9.2988,9.2988,9.2988,9.2988,9.2988,9.2988,9.3434,9.44,9.5068,9.5886,9.6852,9.7557,9.7892,9.7892,9.7892,9.7892,9.7892,9.7892,9.7892,6.9776,6.9891,7.0081,7.0877,7.1749,7.262,7.3416,7.4288,7.4935,7.4977,7.5095,7.5548,7.6677,7.7857,7.8773,7.9038,8.0659,8.1597,8.0896,8.1481,8.2338,8.3273,8.4091,8.4947,8.5895,8.6728,8.7223,8.7379,8.7392,8.7407,8.7407,8.7407,8.7759,8.8579,8.8579,8.9008,8.9867,8.9867,9.0335,9.1194,9.1194,9.1546,9.2233,9.1854,9.17,9.1734,9.1277,9.1133,9.121,9.121,9.121,9.121,9.121,9.121,9.121,9.121,9.121,9.121,9.121,9.121,9.1026,9.0015,8.9977,9.0193,8.9197,8.8859,8.8729,8.8316,8.8208,8.8084,8.8146,8.8146,8.8084,8.8084,8.8084,8.8084,8.8084,8.8084,8.8084,8.8084,8.8084,8.8084,8.8084,8.8084,8.8084,8.8084,8.9459,9.0499,9.0499,9.1948,9.2988,9.2988,9.2988,9.2988,9.2988,9.2988,9.2988,9.2988,9.2988,9.3694,9.5217,9.5365,9.6146,9.7743,9.7855,9.7892,9.7892,9.7892,9.7892,9.7892,9.7892,9.7892,6.9579,7.0155,7.0839,7.1673,7.2507,7.3341,7.4212,7.4667,7.4895,7.4935,7.5434,7.6084,7.6766,7.8276,7.9579,7.9932,8.1633,8.2766,8.2416,8.3117,8.3974,8.4871,8.527,8.5808,8.6684,8.7143,8.7381,8.7397,8.742,8.7642,8.8149,8.8188,8.8344,8.8696,8.9203,8.9906,9.0765,9.0765,9.1194,9.2014,9.2014,9.217,9.2475,9.2104,9.1915,9.1894,9.1392,9.121,9.121,9.121,9.121,9.121,9.121,9.121,9.121,9.121,9.121,9.121,9.121,9.121,9.0989,8.9931,8.9745,8.9745,8.871,8.8376,8.8316,8.8146,8.8084,8.8084,8.8084,8.8084,8.8084,8.8084,8.8084,8.8084,8.8084,8.8084,8.8084,8.8084,8.8084,8.8084,8.8084,8.8084,8.8084,8.8084,8.9459,9.0499,9.0499,9.1948,9.2988,9.2988,9.2988,9.2988,9.2988,9.2988,9.2988,9.2988,9.2988,9.3731,9.5328,9.5403,9.6183,9.7855,9.7892,9.7892,9.7892,9.7892,9.7892,9.7892,9.7892,9.7892,6.9419,7.0226,7.1216,7.2166,7.2999,7.3833,7.4705,7.4895,7.4895,7.4895,7.5658,7.6503,7.7208,7.8728,8.0159,8.0859,8.2362,8.339,8.339,8.413,8.5027,8.5884,8.5983,8.6332,8.721,8.7343,8.7401,8.7407,8.7407,8.7798,8.8657,8.893,8.9203,8.9477,9.0062,9.0804,9.1663,9.1663,9.1936,9.2482,9.2482,9.2482,9.2482,9.2152,9.1977,9.1894,9.1445,9.1275,9.121,9.121,9.121,9.121,9.121,9.121,9.121,9.121,9.121,9.121,9.121,9.121,9.0989,8.9931,8.9601,8.9402,8.8436,8.8084,8.8084,8.8084,8.8084,8.8084,8.8084,8.8084,8.8084,8.8084,8.8084,8.8084,8.8084,8.8084,8.8084,8.8084,8.8084,8.8084,8.8084,8.8084,8.8084,8.8084,8.9459,9.0499,9.0499,9.1948,9.2988,9.2988,9.2988,9.2988,9.2988,9.2988,9.2988,9.2988,9.2988,9.3731,9.5328,9.5403,9.6183,9.7855,9.7892,9.7892,9.7892,9.7892,9.7892,9.7892,9.7892,9.7892,6.934,7.0143,7.1055,7.2126,7.2999,7.3833,7.4705,7.4895,7.4895,7.4895,7.5658,7.6769,7.8238,7.925,8.0361,8.1856,8.2805,8.339,8.339,8.413,8.5027,8.5884,8.6001,8.6356,8.721,8.7372,8.7407,8.7407,8.7407,8.7798,8.8657,8.9516,9.0374,9.1233,9.1272,9.1663,9.2482,9.2482,9.2482,9.2482,9.2482,9.2482,9.2482,9.23,9.2104,9.1894,9.1592,9.1385,9.121,9.121,9.121,9.121,9.121,9.121,9.121,9.121,9.121,9.121,9.121,9.121,9.0989,8.9931,8.9601,8.9402,8.8436,8.8084,8.8084,8.8084,8.8084,8.8084,8.8084,8.8084,8.8084,8.8084,8.8084,8.8084,8.8084,8.8084,8.8084,8.8084,8.8084,8.8084,8.8084,8.8084,8.8084,8.8084,8.9459,9.0499,9.0499,9.1948,9.2988,9.2988,9.2988,9.2988,9.2988,9.2988,9.2988,9.2988,9.2988,9.3731,9.5328,9.5403,9.6183,9.7855,9.7892,9.7892,9.7892,9.7892,9.7892,9.7892,9.7892,9.7892,6.9702,7.0761,7.1803,7.2793,7.3749,7.4553,7.4857,7.4895,7.5084,7.5615,7.6576,7.7719,7.9015,8.0176,8.1165,8.1913,8.3286,8.4286,8.4286,8.5554,8.6561,8.6873,8.6912,8.7068,8.733,8.7387,8.7407,8.7407,8.7407,8.8032,8.9516,8.9867,9.0413,9.1272,9.1819,9.2248,9.2482,9.2482,9.2482,9.2482,9.2482,9.2482,9.2482,9.23,9.2104,9.1894,9.1592,9.1385,9.121,9.121,9.121,9.121,9.121,9.121,9.121,9.121,9.121,9.121,9.121,9.121,9.0989,8.9931,8.9601,8.9402,8.8436,8.8084,8.8084,8.8084,8.8084,8.8084,8.8084,8.8084,8.8084,8.8084,8.8084,8.8084,8.8084,8.8084,8.8084,8.8084,8.8084,8.8084,8.8084,8.8084,8.8084,8.8084,8.9459,9.0499,9.0499,9.1948,9.2988,9.2988,9.2988,9.2988,9.2988,9.2988,9.2988,9.2988,9.2988,9.3731,9.5328,9.5403,9.6183,9.7855,9.7892,9.7892,9.7892,9.7892,9.7892,9.7892,9.7892,9.7892,6.993,7.0998,7.2133,7.3043,7.4124,7.4895,7.4895,7.4895,7.5122,7.5918,7.7035,7.8173,7.9377,8.0563,8.1536,8.192,8.3545,8.4715,8.4715,8.62,8.7308,8.729,8.734,8.7414,8.7397,8.742,8.7407,8.7407,8.7407,8.8149,8.9906,8.9984,9.0531,9.1702,9.2248,9.2482,9.2482,9.2482,9.2482,9.2482,9.2482,9.2482,9.2482,9.2383,9.2168,9.1894,9.1718,9.1475,0.0,9.121,9.121,9.121,9.121,9.121,9.121,9.121,9.121,9.1175,9.0952,9.0915,9.0722,8.9649,8.9182,8.8952,8.8293,8.8084,8.8084,8.8084,8.8084,8.8084,8.8084,8.8084,8.8084,8.8084,8.8084,8.8084,8.8084,8.8084,8.8084,8.8084,8.8084,8.8084,8.8084,8.8084,8.8084,8.8084,8.9459,9.0499,9.0499,9.1948,9.2988,9.2988,9.2988,9.2988,9.2988,9.2988,9.2988,9.2988,9.2988,9.3731,9.5328,9.5403,9.6183,9.7855,9.7892,9.7892,9.7892,9.7892,9.7892,9.7892,9.7892,9.7892,0.0,7.0975,7.2027,7.3075,7.4161,7.4895,7.4895,7.4932,0.0,7.6032,7.7111,7.8288,7.9453,8.0666,8.1558,8.202,8.3531,8.4715,8.4793,8.6249,8.729,8.7294,8.7344,8.7416,8.7416,8.7392,8.7407,8.7407,8.7407,8.8149,8.9906,8.9984,9.0765,9.2443,9.2482,9.2482,9.2482,9.2482,9.2482,9.2482,9.2482,9.2482,9.2482,9.2482,9.2288,9.1915,9.1915,9.1631,9.121,9.121,9.121,9.121,9.121,9.121,9.121,9.121,9.121,9.11,9.0605,9.0402,9.0193,8.9145,8.8517,8.8084,8.8084,8.8084,8.8084,8.8084,8.8084,8.8084,8.8084,8.8084,8.8084,8.8084,8.8084,8.8084,8.8084,8.8084,8.8084,8.8084,8.8084,8.8084,8.8084,8.8084,8.8084,8.8084,8.9459,9.0499,9.0499,9.1948,9.2988,9.2988,9.2988,9.2988,9.2988,9.2988,9.2988,9.2988,9.2988,9.3731,9.5328,9.5403,9.6183,9.7855,9.7892,9.7892,9.7892,9.7892,9.7892,9.7892,9.7892,9.7892,7.0524,0.0,7.2808,7.368,7.4412,7.4895,0.0,7.5387,7.6069,7.6941,7.8104,7.9305,8.0251,8.1118,8.1971,8.2727,8.389,8.491,8.5611,8.6597,8.7338,8.7366,8.7392,8.7387,8.7387,8.7414,8.7407,8.7407,8.7407,8.8149,8.9906,8.9984,9.0765,9.2443,9.2482,9.2482,9.2482,9.2482,9.2482,9.2482,9.2482,9.2482,9.2482,9.2482,9.2288,9.1915,9.1915,9.1631,9.121,9.121,9.121,9.121,9.121,9.121,9.121,9.121,9.121,9.11,9.0605,9.0402,9.0193,8.9145,8.8517,8.8084,8.8084,8.8084,8.8084,8.8084,8.8084,8.8084,8.8084,8.8084,8.8084,8.8084,8.8084,8.8084,8.8084,8.8084,8.8084,8.8084,8.8084,8.8084,8.8084,8.8084,8.8084,8.8084,8.9459,9.0499,9.0499,9.1948,9.2988,9.2988,9.2988,9.2988,9.2988,9.2988,9.2988,9.2988,9.2988,9.3731,9.5328,9.5403,9.6183,9.7855,9.7892,9.7892,9.7892,9.7892,9.7892,9.7892,9.7892,9.7892,7.0809,7.1909,7.3108,7.3897,7.4519,7.4895,7.4895,7.5539,7.6376,7.7374,7.8557,7.9676,8.069,8.1387,8.2087,8.2941,8.3998,8.5146,8.6432,8.6996,8.7303,8.7405,8.7381,8.7407,8.7407,8.7407,8.7407,8.7407,8.7407,8.8149,8.9906,8.9984,9.0765,9.2443,9.2482,9.2482,9.2482,9.2482,9.2482,9.2482,9.2482,9.2482,9.2482,9.2403,9.2197,9.1915,9.1766,9.1533,9.121,9.121,9.121,9.121,9.121,9.121,9.121,9.121,9.121,9.11,9.0279,8.9697,8.9235,8.8653,8.8316,8.8084,8.8084,8.8084,8.8084,8.8084,8.8084,8.8084,8.8084,8.8084,8.8084,8.8084,8.8084,8.8084,8.8084,8.8084,8.8084,8.8084,8.8084,8.8084,8.8084,8.8084,8.8084,8.8084,8.9459,9.0499,9.0499,9.1948,9.2988,9.2988,9.2988,9.2988,9.2988,9.2988,9.2988,9.2988,9.2988,9.3731,9.5328,9.5403,9.6183,9.7855,9.7892,9.7892,9.7892,9.7892,9.7892,9.7892,9.7892,9.7892,7.092,7.2032,7.3267,7.3934,7.4525,7.5013,7.5127,7.5812,7.6729,7.7836,7.8891,7.9966,8.0945,8.1577,8.2262,8.3154,8.4338,8.5612,8.7099,8.7336,8.7342,8.7377,8.7392,8.7407,8.7407,8.7407,8.7407,8.7407,8.7407,8.8149,8.9906,8.9984,9.0765,9.2443,9.2482,9.2482,9.2482,9.2482,9.2482,9.2482,9.2475,9.2475,9.2482,9.23,9.2104,9.1894,9.1644,0.0,9.121,9.121,9.121,9.121,9.121,9.121,9.121,9.121,9.121,9.1064,8.9977,8.8969,8.8171,8.8146,8.8084,8.8084,8.8084,8.8084,8.8084,8.8084,8.8084,8.8084,8.8084,8.8084,8.8084,8.8084,8.8084,8.8084,8.8084,8.8084,8.8084,8.8084,8.8084,8.8084,8.8084,8.8084,8.8084,8.8084,8.9459,9.0499,9.0499,9.1948,9.2988,9.2988,9.2988,9.2988,9.2988,9.2988,9.2988,9.2988,9.2988,9.3731,9.5328,9.5514,9.6294,9.7855,9.7892,9.7892,9.7892,9.7892,9.7892,9.7892,9.7892,9.7892,7.092,7.2557,7.4218,7.4093,7.4657,7.5398,7.6084,7.7105,7.8122,7.8961,8.0075,8.0906,8.1154,8.2041,8.3056,8.4138,8.5765,8.7023,8.7344,8.7382,8.7377,8.7387,8.7414,8.7407,8.7407,8.7407,8.7407,8.7407,8.7407,8.8149,8.9906,8.9984,9.0765,9.2443,9.2482,9.2482,9.2482,9.2482,9.2482,9.2482,9.2323,9.2323,9.2482,9.23,9.2104,9.1915,0.0,9.1577,9.121,9.121,9.121,9.121,9.121,9.121,9.121,9.121,9.121,9.1064,8.9977,8.9197,8.8616,8.8232,8.8084,8.8084,8.8084,8.8084,8.8084,8.8084,8.8084,8.8084,8.8084,8.8084,8.8084,8.8084,8.8084,8.8084,8.8084,8.8084,8.8084,8.8084,8.8084,8.8084,8.8084,8.8084,8.8084,8.8084,8.9459,9.0499,9.0499,9.1948,9.2988,9.2988,9.2988,9.2988,9.2988,9.2988,9.2988,9.2988,9.2988,9.3731,9.5328,9.6071,9.6889,9.7892,9.7892,9.7892,9.7892,9.7892,9.7892,9.7892,9.7892,9.7892,7.092,7.2528,7.4274,7.4319,7.4865,7.5532,7.5948,7.7126,7.8333,7.8877,8.0085,8.1157,8.135,8.1868,8.2824,8.4419,8.6171,8.7327,8.7381,8.7418,8.7414,8.7405,8.7381,8.7407,8.7407,8.7407,8.7407,8.7407,8.7407,8.8149,8.9906,8.9984,9.0765,9.2443,9.2482,9.2482,9.2482,9.2482,9.2482,9.2482,9.23,9.2237,9.2323,9.2137,9.1897,9.1669,0.0,9.1504,9.121,9.121,9.121,9.121,9.121,9.121,9.121,9.121,9.1028,9.0645,8.9885,8.9249,8.8729,8.8293,8.8084,8.8084,8.8084,8.8084,8.8084,8.8084,8.8084,8.8084,8.8084,8.8084,8.8084,8.8084,8.8084,8.8084,8.8084,8.8084,8.8084,8.8084,8.8084,8.8084,8.8084,8.8084,8.8084,8.8084,8.9459,9.0499,9.0499,9.1948,9.2988,9.2988,9.2988,9.2988,9.2988,9.2988,9.2988,9.2988,9.3397,9.4177,9.5365,9.6183,9.7,9.7892,9.7892,9.7892,9.7892,9.7892,9.7892,9.7892,9.7892,9.7892,7.092,7.247,7.4184,7.4502,7.5092,7.5724,7.6209,7.7354,7.8562,7.9152,8.0299,8.1319,8.1736,8.2338,8.3293,8.5032,8.6442,8.7343,8.7375,8.7411,8.7411,8.7411,8.7392,8.7407,8.7407,8.7407,8.7407,8.7407,8.7407,8.8071,8.9594,8.9906,9.0687,9.217,9.2404,9.2482,9.2482,9.2482,9.2482,9.2482,9.2237,9.2168,9.2197,9.1918,9.1694,9.1522,9.1522,9.1385,9.121,9.121,9.121,9.121,9.121,9.121,9.121,9.121,9.0952,9.0485,8.9839,8.9352,8.8859,8.8256,8.8084,8.8084,8.8084,8.8084,8.8084,8.8084,8.8084,8.8084,8.8084,8.8084,8.8084,8.8084,8.8084,8.8084,8.8084,8.8084,8.8158,8.8344,8.8381,8.8418,8.8641,8.8493,8.8381,8.8381,8.9421,9.0276,9.0462,9.1799,9.2765,9.2988,9.2988,9.2988,9.2988,9.2988,9.2988,9.2988,9.3582,9.4362,9.5365,9.5997,9.6814,9.7892,9.7892,9.7892,9.7892,9.7892,9.7892,9.7892,9.7892,9.7892,7.092,7.2443,7.4249,7.4751,7.5271,7.6101,7.7959,7.8656,7.9365,8.0976,8.1401,8.176,8.2615,8.4271,8.5788,8.6687,8.7135,8.7375,8.742,8.7414,8.7414,8.7414,8.7407,8.7407,8.7407,8.7407,8.7407,8.7407,8.7407,8.7798,8.8735,8.9555,9.0413,9.135,9.2092,9.2482,9.2482,9.2482,9.2482,9.2482,9.2121,9.1995,9.2197,9.1727,9.155,9.1522,9.1522,9.1385,9.121,9.121,9.121,9.121,9.121,9.121,9.121,9.121,9.1175,9.0989,8.9931,8.9601,8.9402,8.8436,8.8084,8.8084,8.8084,8.8084,8.8084,8.8084,8.8084,8.8084,8.8084,8.8084,8.8084,8.8084,8.8084,8.8084,8.8084,8.8084,8.8307,8.905,8.9198,8.9459,9.0202,8.9719,8.9198,8.9198,8.931,8.9644,9.0387,9.1242,9.2096,9.2914,9.2988,9.2988,9.2988,9.2988,9.2988,9.2988,9.3062,9.3768,9.5328,9.5477,9.6257,9.7855,9.7892,9.7892,9.7892,9.7892,9.7892,9.7892,9.7892,9.7892,7.1237,7.2823,7.4506,7.5163,7.5609,7.6226,7.7717,7.8553,7.9337,8.0459,8.1117,8.1809,8.2766,8.4155,8.539,8.6181,8.6914,8.7387,8.7407,8.7407,8.7407,8.7407,8.7407,8.7407,8.7407,8.7407,8.7407,8.7407,8.7407,8.7798,8.8657,8.9516,9.0413,9.1272,9.2092,9.2482,9.2482,9.2393,9.2312,9.2312,9.2013,9.1957,9.1995,9.1669,9.1406,9.1297,9.1436,9.1385,9.121,9.121,9.121,9.121,9.121,9.121,9.121,9.121,9.121,9.1064,8.9977,8.9601,8.9452,8.8436,8.8084,8.8084,8.8084,8.8084,8.8084,8.8084,8.8455,8.8716,8.8233,8.8455,8.8827,8.8827,8.9236,8.957,8.957,8.957,8.9681,8.9979,9.0053,9.0127,9.0462,9.0239,9.0053,9.0053,9.0462,9.0907,9.1205,9.1985,9.2616,9.2951,9.2988,9.2988,9.2988,9.2988,9.2988,9.2988,9.2988,9.3508,9.4622,9.5143,9.5923,9.7074,9.7632,9.7892,9.7892,9.7892,9.7892,9.7892,9.7892,9.7892,7.1569,7.3086,7.4787,7.548,7.5772,7.6283,7.778,7.8564,7.9299,8.0382,8.1542,8.2553,8.3321,8.4532,8.56,8.6206,8.6904,8.7407,8.7407,8.7407,8.7407,8.7407,8.7407,8.7407,8.7407,8.7407,8.7407,8.7407,8.7407,8.7642,8.8266,8.9125,8.993,9.0725,9.1544,9.211,9.2312,9.2182,9.2121,9.2082,9.1877,9.1766,9.1742,9.1522,9.1329,9.121,9.1361,9.1329,9.121,9.121,9.121,9.121,9.121,9.121,9.121,9.121,9.121,9.1064,8.9977,8.9601,8.9452,8.8436,8.8084,8.8084,8.8084,8.8084,8.8158,8.8418,8.8864,8.9236,8.8938,8.9273,8.9681,8.9681,9.009,9.0499,9.0499,9.0499,9.0573,9.0833,9.087,9.0982,9.1242,9.1056,9.087,9.087,9.113,9.1428,9.1688,9.2208,9.2691,9.2951,9.2988,9.2988,9.2988,9.2988,9.2988,9.2988,9.2988,9.3359,9.4177,9.4957,9.5774,9.6591,9.7446,9.7892,9.7892,9.7892,9.7892,9.7892,9.7892,9.7892,7.1707,7.3216,7.4943,7.5539,7.5703,7.6284,7.849,7.8989,7.9492,8.1155,8.2857,8.4172,8.4442,8.5877,8.7026,8.718,8.7294,8.7407,8.7407,8.7407,8.7407,8.7407,8.7407,8.7407,8.7407,8.7407,8.7407,8.7407,8.7407,8.7407,8.7407,8.8227,8.8969,8.9586,9.0443,9.1209,9.1877,9.1915,9.1915,9.1915,9.1618,9.1522,9.1494,9.1303,9.121,9.121,9.121,9.121,9.121,9.121,9.121,9.121,9.121,9.121,9.121,9.121,9.121,9.1064,8.9977,8.9601,8.9452,8.8399,8.8084,8.8084,8.8084,8.8084,8.827,8.9087,8.931,8.9496,9.0313,9.0536,9.0536,9.0499,9.0536,9.0536,9.0536,9.0536,9.0759,9.1576,9.1725,9.1985,9.2839,9.2282,9.1725,9.1725,9.1019,9.0796,9.1613,9.1725,9.2059,9.2914,9.2988,9.2988,9.2988,9.2988,9.2988,9.2988,9.2988,9.3359,9.4177,9.4957,9.5774,9.6591,9.7446,9.7892,9.7892,9.7892,9.7892,9.7892,9.7892,9.7892,7.1965,7.3687,7.548,7.5928,7.6095,7.6701,7.8578,7.8989,7.9501,8.1269,8.2676,8.3804,8.4377,8.5501,8.656,8.7102,8.7297,8.7407,8.7407,8.7407,8.7407,8.7407,8.7407,8.7407,8.7407,8.7407,8.7407,8.7407,8.7407,8.7407,8.7407,8.8092,8.8845,8.9572,9.0297,9.1083,9.1877,9.1694,9.1618,9.1592,9.1385,9.1392,9.1494,9.1303,9.121,9.121,9.121,9.121,9.121,9.121,9.121,9.121,9.121,9.121,9.121,9.121,9.121,9.11,9.0402,8.9885,8.9502,8.8841,8.8376,8.8084,8.8084,8.8493,8.8976,8.9236,9.0127,9.1056,9.1279,9.1799,9.2096,9.1502,9.1799,9.2245,9.2245,9.2245,9.2319,9.2579,9.2616,9.2691,9.2951,9.2802,9.2616,9.2616,9.2393,9.2319,9.2579,9.2616,9.2691,9.2951,9.2988,9.2988,9.2988,9.2988,9.2988,9.2988,9.2988,9.3099,9.3359,9.466,9.5514,9.5737,9.7186,9.7892,9.7892,9.7892,9.7892,9.7892,9.7892,9.7892,7.2922,7.444,7.5957,7.6186,7.662,7.7388,7.9166,7.9825,8.0397,8.1633,8.2931,8.4013,8.4544,8.5693,8.6718,8.7187,8.7369,8.7407,8.7414,8.7407,8.7407,8.7407,8.7407,8.7407,8.7407,8.7407,8.7354,8.7282,8.7273,8.7263,8.7169,8.7517,8.8101,8.8828,8.956,9.0337,9.1101,9.1281,9.1354,9.1354,9.1275,9.1236,9.1354,9.1275,9.121,9.121,9.121,9.121,9.121,9.121,9.121,9.121,9.121,9.121,9.121,9.121,9.121,9.11,9.0605,9.006,8.9502,8.8931,8.8517,8.8158,8.8493,8.8901,8.9421,9.0053,9.0945,9.1762,9.2133,9.2616,9.2876,9.2356,9.2616,9.2988,9.2988,9.2988,9.2988,9.2988,9.2988,9.2988,9.2988,9.2988,9.2988,9.2988,9.2988,9.2988,9.2988,9.2988,9.2988,9.2988,9.2988,9.2988,9.2988,9.2988,9.2988,9.2988,9.2988,9.2988,9.2988,9.4251,9.5068,9.5403,9.6703,9.7557,9.7892,9.7892,9.7892,9.7892,9.7892,9.7892,7.4136,7.532,7.6326,7.6374,7.7117,7.8292,8.0009,8.1113,8.1797,8.207,8.341,8.4629,8.4844,8.6171,8.7264,8.7375,8.7392,8.7414,8.7392,8.742,8.7407,8.7407,8.7407,8.7407,8.7407,8.7362,8.7282,8.7105,8.7078,8.6966,8.6807,8.6767,8.7048,8.7693,8.8555,8.927,8.9902,9.0748,9.121,9.121,9.121,9.121,9.121,9.121,9.121,9.121,9.121,9.121,9.121,9.121,9.121,9.121,9.121,9.121,9.121,9.121,9.121,9.1136,9.0645,9.0105,8.9552,8.9039,8.8479,8.8233,8.905,8.9347,8.9719,9.1279,9.1762,9.1985,9.2802,9.2988,9.2988,9.2988,9.2988,9.2988,9.2988,9.2988,9.2988,9.2988,9.2988,9.2988,9.2988,9.2988,9.2988,9.2988,9.2988,9.2988,9.2988,9.2988,9.2988,9.2988,9.2988,9.2988,9.2988,9.2988,9.2988,9.2988,9.2988,9.2988,9.2988,9.3768,9.4585,9.5365,9.6183,9.7037,9.7892,9.7892,9.7892,9.7892,9.7892,9.7892,7.405,7.5236,7.6301,7.6326,7.7595,7.9173,8.0284,8.1321,8.2015,8.2092,8.3569,8.4839,8.4883,8.6248,8.7377,8.7416,8.7397,8.7414,8.7392,8.742,8.7407,8.7407,8.7407,8.7407,8.7407,8.7263,8.7157,8.7092,8.6933,8.6845,8.6787,8.6615,8.6855,8.7693,8.839,8.9123,8.9902,9.0748,9.121,9.121,9.121,9.121,9.121,9.121,9.121,9.121,9.121,9.121,9.121,9.121,9.121,9.121,9.121,9.121,9.121,9.121,9.121,9.121,9.1064,9.0402,8.9601,8.9452,8.8841,8.8233,8.905,8.9756,9.0462,9.1428,9.2171,9.2765,9.2951,9.2988,9.2988,9.2988,9.2988,9.2988,9.2988,9.2988,9.2988,9.2988,9.2988,9.2988,9.2988,9.2988,9.2988,9.2988,9.2988,9.2988,9.2988,9.2988,9.2988,9.2988,9.2988,9.2988,9.2988,9.2988,9.2988,9.2988,9.2988,9.2988,9.2988,9.3768,9.4585,9.5365,9.6183,9.7037,9.7892,9.7892,9.7892,9.7892,9.7892,9.7892,7.4976,7.5721,7.6494,7.7394,7.8457,7.9647,8.0922,8.1726,8.2214,8.2214,8.3629,8.4883,8.4883,8.6286,8.7411,8.7416,8.7397,8.7414,8.7392,8.742,8.7407,8.7407,8.7291,8.7263,8.7263,8.7078,8.6899,8.6768,8.6644,8.6568,8.6481,8.6317,8.6461,8.6924,8.7693,8.8479,8.9325,9.0171,9.0787,9.121,9.121,9.121,9.121,9.121,9.121,9.121,9.121,9.121,9.121,9.121,9.121,9.121,9.121,9.121,9.121,9.121,9.121,9.121,9.121,9.0645,8.9931,8.9697,8.9076,8.8623,8.9622,9.0164,9.0759,9.1985,9.2653,9.2988,9.2988,9.2988,9.2988,9.2988,9.2988,9.2988,9.2988,9.2988,9.2988,9.2988,9.2988,9.2988,9.2988,9.2988,9.2988,9.2988,9.2988,9.2988,9.2988,9.2988,9.2988,9.2988,9.2988,9.2988,9.2988,9.2988,9.2988,9.2988,9.2988,9.2988,9.2988,9.3397,9.4177,9.5365,9.5811,9.6629,9.7892,9.7892,9.7892,9.7892,9.7892,9.7892,7.6019,7.6301,7.6736,7.8572,7.9209,7.9856,8.1555,8.211,8.2304,8.2304,8.3672,8.4883,8.4883,8.6286,8.7411,8.7416,8.7401,8.742,8.7392,8.7381,8.7407,8.7407,8.7263,8.7157,8.7092,8.6899,8.6704,8.6442,8.6362,8.6259,8.6094,8.6094,8.6094,8.6094,8.694,8.7825,8.8671,8.9517,9.0364,9.121,9.121,9.121,9.121,9.121,9.121,9.121,9.121,9.121,9.121,9.121,9.121,9.121,9.121,9.121,9.121,9.121,9.121,9.121,9.121,9.0839,9.0279,8.9792,8.9249,8.9029,9.0131,9.0499,9.0833,9.2542,9.2988,9.2988,9.2988,9.2988,9.2988,9.2988,9.2988,9.2988,9.2988,9.2988,9.2988,9.2988,9.2988,9.2988,9.2988,9.2988,9.2988,9.2988,9.2988,9.2988,9.2988,9.2988,9.2988,9.2988,9.2988,9.2988,9.2988,9.2988,9.2988,9.2988,9.2988,9.2988,9.2988,9.2988,9.3694,9.5143,9.5328,9.6146,9.7669,9.7817,9.7892,9.7892,9.7892,9.7892,7.5967,7.6301,7.6831,7.8709,7.9306,7.9879,8.168,8.2171,8.2304,8.2304,8.3672,8.4883,8.4883,8.6287,8.7416,8.7418,8.7411,8.7401,8.7392,8.7392,8.7381,8.7407,8.7401,8.7282,8.7105,8.6899,8.6704,8.6442,8.6238,8.6126,8.6094,8.6094,8.6094,8.6094,8.694,8.7825,8.8671,8.9517,9.0364,9.121,9.121,9.121,9.121,9.121,9.121,9.121,9.121,9.121,9.121,9.121,9.121,9.121,9.121,9.121,9.121,9.121,9.121,9.121,9.121,9.0839,9.0279,8.9792,8.9249,8.9029,9.0131,9.0499,9.0833,9.2542,9.2988,9.2988,9.2988,9.2988,9.2988,9.2988,9.2988,9.2988,9.2988,9.2988,9.2988,9.2988,9.2988,9.2988,9.2988,9.2988,9.2988,9.2988,9.2988,9.2988,9.2988,9.2988,9.2988,9.2988,9.2988,9.2988,9.2988,9.2988,9.2988,9.2988,9.2988,9.2988,9.2988,9.2988,9.3434,9.4325,9.5031,9.5848,9.6777,9.752,9.7892,9.7892,9.7892,9.7892,7.6157,7.6781,7.7584,7.898,7.9751,8.054,8.1819,8.2214,8.2422,8.2929,8.4023,8.4883,8.4883,8.6288,8.7418,8.7418,8.7414,8.7408,8.7401,8.7397,8.7387,8.7381,8.7291,8.7192,8.7092,8.6768,8.6544,8.6416,8.6208,8.6094,8.6094,8.6094,8.6094,8.6094,8.6478,8.7094,8.794,8.8825,8.9902,9.121,9.121,9.121,9.121,9.121,9.121,9.121,9.121,9.121,9.121,9.121,9.121,9.121,9.121,9.121,9.121,9.121,9.121,9.121,9.121,9.1064,9.0684,8.9885,8.9452,8.9393,9.0255,9.0499,9.0833,9.2542,9.2988,9.2988,9.2988,9.2988,9.2988,9.2988,9.2988,9.2988,9.2988,9.2988,9.2988,9.2988,9.2988,9.2988,9.2988,9.2988,9.2988,9.2988,9.2988,9.2988,9.2988,9.2988,9.2988,9.2988,9.2988,9.2988,9.2988,9.2988,9.2988,9.2988,9.2988,9.2988,9.2988,9.2988,9.3174,9.3508,9.4771,9.5811,9.6591,9.7483,9.7892,9.7892,9.7892,9.7892,7.6305,7.7077,7.8124,7.9144,8.0076,8.0992,8.1959,8.2219,8.2539,8.3437,8.4297,8.4961,8.5195,8.6444,8.742,8.7418,8.7416,8.7414,8.7408,8.7405,8.7397,8.7392,8.7252,8.7181,8.7092,8.6768,8.6529,8.6416,8.623,8.6153,8.6094,8.6094,8.6094,8.6094,8.6094,8.6517,8.7401,8.8479,8.9748,9.121,9.121,9.121,9.121,9.121,9.121,9.121,9.121,9.121,9.121,9.121,9.121,9.121,9.121,9.121,9.121,9.121,9.121,9.121,9.1064,9.0989,9.0839,8.9885,8.9502,8.9551,9.0461,9.0589,9.0833,9.2542,9.2988,9.2988,9.2988,9.2988,9.2988,9.2988,9.2988,9.2988,9.2988,9.2988,9.2988,9.2988,9.2988,9.2988,9.2988,9.2988,9.2988,9.2988,9.2988,9.2988,9.2988,9.2988,9.2988,9.2988,9.2988,9.2988,9.2988,9.2988,9.2988,9.2988,9.2988,9.2988,9.2988,9.2988,9.2988,9.2988,9.4362,9.5477,9.6294,9.7372,9.7892,9.7892,9.7892,9.7892,7.6198,7.6944,7.7965,7.913,8.0012,8.0895,8.2026,8.2304,8.2539,8.3437,8.4297,8.5156,8.5976,8.6875,8.7461,8.7418,8.746,8.746,8.7411,8.7414,8.7414,8.7397,8.7387,8.7315,8.7105,8.7078,8.6899,8.6442,8.6389,8.6288,8.6094,8.6094,8.6094,8.6094,8.6094,8.6517,8.7401,8.9017,9.0325,9.121,9.121,9.121,9.121,9.121,9.121,9.121,9.121,9.121,9.121,9.121,9.121,9.121,9.121,9.121,9.121,9.121,9.121,9.11,9.0605,9.0444,9.036,8.9792,8.9249,8.9104,9.0774,9.0923,9.0833,9.2542,9.2988,9.2988,9.2988,9.2988,9.2988,9.2988,9.2988,9.2988,9.2988,9.2988,9.2988,9.2988,9.2988,9.2988,9.2988,9.2988,9.2988,9.2988,9.2988,9.2988,9.2988,9.2988,9.2988,9.2988,9.2988,9.2988,9.2988,9.2988,9.2988,9.2988,9.2988,9.2988,9.2988,9.2988,9.2988,9.2988,9.3842,9.466,9.5477,9.7112,9.7892,9.7892,9.7892,9.7892,7.6389,7.7504,7.8785,7.9403,8.054,8.1695,8.2186,8.2304,8.2695,8.414,8.4687,8.5351,8.6758,8.7304,8.75,8.7461,8.7461,8.75,8.7459,8.7418,8.7416,8.7405,8.7397,8.7375,8.7291,8.7181,8.6966,8.6683,8.6519,8.6317,8.6094,8.6094,8.6094,8.6094,8.6094,8.6517,8.7401,8.8556,8.9556,9.0364,9.0941,9.121,9.121,9.121,9.121,9.121,9.121,9.121,9.121,9.121,9.121,9.121,9.121,9.121,9.121,9.121,9.121,9.11,9.0605,9.0402,9.0236,8.9352,8.8969,8.9086,9.04,9.0652,9.0833,9.2542,9.2988,9.2988,9.2988,9.2988,9.2988,9.2988,9.2988,9.2988,9.2988,9.2988,9.2988,9.2988,9.2988,9.2988,9.2988,9.2988,9.2988,9.2988,9.2988,9.2988,9.2988,9.2988,9.2988,9.2988,9.2988,9.2988,9.2988,9.2988,9.2988,9.2988,9.2988,9.2988,9.2988,9.2988,9.2988,9.2988,9.3768,9.4585,9.5403,9.6517,9.7334,9.7892,9.7892,9.7892,7.6781,7.799,7.9232,7.9739,8.0943,8.2078,8.2214,8.2264,8.2773,8.4531,8.4883,8.5429,8.7187,8.75,8.75,8.75,8.75,8.75,8.75,8.746,8.7418,8.7411,8.7401,8.7392,8.7407,8.7273,8.7078,8.6807,8.6638,0.0,8.6126,8.6094,8.6094,8.6094,8.6094,8.6517,8.7401,8.8248,8.9094,8.9902,9.0787,9.121,9.121,9.121,9.121,9.121,9.121,9.121,9.121,9.121,9.121,9.121,9.121,9.121,9.121,9.121,9.121,9.11,9.0402,9.0149,8.9977,8.9092,8.8673,8.8837,9.0316,9.0652,9.0833,9.2542,9.2988,9.2988,9.2988,9.2988,9.2988,9.2988,9.2988,9.2988,9.2988,9.2988,9.2988,9.2988,9.2988,9.2988,9.2988,9.2988,9.2988,9.2988,9.2988,9.2988,9.2988,9.2988,9.2988,9.2988,9.2988,9.2988,9.2988,9.2988,9.2988,9.2988,9.2988,9.2988,9.2988,9.2988,9.2988,9.2988,9.3508,9.4177,9.4994,9.6071,9.7037,9.7892,9.7892,9.7892,0.0,0.0,0.0,8.0184,8.1135,8.1945,8.2078,8.2214,8.2812,8.4531,8.4922,8.5469,8.7187,8.75,8.75,8.75,8.75,8.75,8.75,8.75,8.7499,8.7411,8.7408,8.7401,8.7407,8.7407,8.7253,8.6826,8.6787,8.6592,8.6126,8.6094,8.6094,8.6094,8.6094,8.6517,8.7363,8.8209,8.9056,8.9902,9.0748,9.1171,9.121,9.121,9.121,9.121,9.121,9.121,9.121,9.121,9.121,9.121,9.121,9.121,9.121,9.121,9.121,9.1064,8.9977,8.9601,8.9502,8.8969,8.8458,8.8506,9.0638,9.0923,9.0833,9.2542,9.2988,9.2988,9.2988,9.2988,9.2988,9.2988,9.2988,9.2988,9.2988,9.2988,9.2988,9.2988,9.2988,9.2988,9.2988,9.2988,9.2988,9.2988,9.2988,9.2988,9.2988,9.2988,9.2988,9.2988,9.2988,9.2988,9.2988,9.2988,9.2988,9.2988,9.2988,9.2988,9.2988,9.2988,9.2988,9.2988,9.2988,9.3397,9.4214,9.5774,9.7,9.7855,9.7892,9.7892,7.7465,0.0,0.0,0.0,0.0,0.0,8.207,8.2618,8.346,8.4647,8.539,8.6172,8.7304,8.75,8.75,8.75,8.75,8.75,8.75,8.75,8.7461,8.7416,8.7411,8.7405,8.7387,8.7414,8.7282,0.0,8.6864,8.6661,8.6346,8.6184,8.6094,8.6094,8.6094,8.6209,8.6478,8.7325,8.8171,8.9056,8.9863,9.0594,9.121,9.121,9.121,9.121,9.121,9.121,9.121,9.121,9.121,9.121,9.121,9.121,9.121,9.121,9.121,9.1064,8.9977,8.9601,8.9452,8.8538,8.8232,8.8444,9.0168,9.0589,9.0833,9.2542,9.2988,9.2988,9.2988,9.2988,9.2988,9.2988,9.2988,9.2988,9.2988,9.2988,9.2988,9.2988,9.2988,9.2988,9.2988,9.2988,9.2988,9.2988,9.2988,9.2988,9.2988,9.2988,9.2988,9.2988,9.2988,9.2988,9.2988,9.2988,9.2988,9.2988,9.2988,9.2988,9.2988,9.2988,9.2988,9.2988,9.2988,9.3397,9.4214,9.5217,9.6146,9.6963,9.7595,9.7892,7.8184,7.902,7.9874,8.0727,0.0,0.0,8.1987,8.2489,8.3307,8.4648,8.5312,8.6054,8.7265,8.75,8.75,8.75,8.75,8.75,8.75,8.75,8.7461,8.7418,8.7416,8.7411,8.7401,8.7387,8.7308,8.7118,8.6981,8.6787,8.6442,8.6208,8.6094,8.6094,8.6094,8.6094,8.6094,8.6978,8.7632,8.8171,8.9363,9.0171,9.0671,9.1018,9.121,9.121,9.121,9.121,9.121,9.121,9.121,9.121,9.121,9.121,9.1175,9.0952,9.0989,9.1064,8.9977,8.9601,8.9452,8.8653,8.8293,8.8344,8.9607,9.0239,9.0759,9.2096,9.2728,9.2988,9.2988,9.2988,9.2988,9.2988,9.2988,9.2988,9.2988,9.2988,9.2988,9.2988,9.2988,9.2988,9.2988,9.2988,9.2988,9.2988,9.2988,9.2988,9.2988,9.2988,9.2988,9.2988,9.2988,9.2988,9.2988,9.2988,9.2988,9.2988,9.2988,9.2988,9.2988,9.2988,9.2988,9.2988,9.2988,9.3397,9.4214,9.4994,9.5997,9.7149,9.7669,9.7892,7.9271,8.0051,8.0793,8.1537,8.1896,0.0,8.1933,8.2248,8.3006,8.4569,8.5039,8.5664,8.7226,8.75,8.75,8.75,8.75,8.75,8.75,8.75,8.7461,8.742,8.7418,8.7416,8.7411,8.7401,8.7329,8.7136,8.7105,8.6882,8.6442,8.6208,8.6094,8.6094,8.6094,8.6094,8.6094,8.6863,8.7286,8.7401,8.9017,8.9825,8.994,9.0787,9.121,9.121,9.121,9.121,9.121,9.121,9.121,9.121,9.121,9.121,9.1136,9.0605,9.0684,9.0952,8.9931,8.9552,8.9452,8.8969,8.8517,8.8233,8.905,8.9867,9.0685,9.1576,9.2393,9.2988,9.2988,9.2988,9.2988,9.2988,9.2988,9.2988,9.2988,9.2988,9.2988,9.2988,9.2988,9.2988,9.2988,9.2988,9.2988,9.2988,9.2988,9.2988,9.2988,9.2988,9.2988,9.2988,9.2988,9.2988,9.2988,9.2988,9.2988,9.2988,9.2988,9.2988,9.2988,9.2988,9.2988,9.2988,9.2988,9.3397,9.4214,9.4994,9.622,9.7743,9.7855,9.7892,7.9996,8.0479,8.0779,8.165,8.1827,0.0,8.1896,8.3048,8.4191,8.4648,8.593,8.7109,8.7422,8.75,8.75,8.75,8.75,8.75,8.75,8.75,8.75,8.7461,8.742,8.7418,8.7416,8.7405,8.7387,8.7336,8.7025,8.6747,8.6416,8.6208,8.6094,8.6094,8.6094,8.6094,8.6094,8.6286,8.6709,8.7401,8.844,8.9286,8.994,9.0787,9.121,9.121,9.121,9.121,9.121,9.121,9.121,9.121,9.121,9.121,9.1136,9.0605,9.0444,9.0444,8.9839,8.93,8.8969,8.8859,8.8517,8.8233,8.905,8.9867,9.0796,9.2319,9.2876,9.2988,9.2988,9.2988,9.2988,9.2988,9.2988,9.2988,9.2988,9.2988,9.2988,9.2988,9.2988,9.2988,9.2988,9.2988,9.2988,9.2988,9.2988,9.2988,9.2988,9.2988,9.2988,9.2988,9.2988,9.2988,9.2988,9.2988,9.2988,9.2988,9.2988,9.2988,9.2988,9.2988,9.2988,9.2988,9.2988,9.3397,9.4214,9.4994,9.5886,9.6889,9.7557,9.7892,8.0475,8.1122,8.1545,8.1889,8.1956,0.0,0.0,8.2981,8.4083,8.459,8.5849,8.6992,8.7422,8.75,8.75,8.75,8.75,8.75,8.75,8.75,8.75,8.75,8.7461,8.746,8.746,8.7414,8.7405,8.7392,8.713,8.6845,8.6615,8.6401,8.6177,8.6094,8.6094,8.6094,8.6094,8.6094,8.6324,8.6786,8.8055,8.8902,8.9325,9.0633,9.121,9.121,9.121,9.1064,9.08,9.11,9.1064,9.0839,9.11,9.121,9.11,9.0317,9.0193,9.0317,8.9502,8.8985,8.8804,8.8804,8.8517,8.8158,8.8567,8.9533,9.0833,9.2542,9.2988,9.2988,9.2988,9.2988,9.2988,9.2988,9.2988,9.2988,9.2988,9.2988,9.2988,9.2988,9.2988,9.2988,9.2988,9.2988,9.2988,9.2988,9.2988,9.2988,9.2988,9.2988,9.2988,9.2988,9.2988,9.2988,9.2988,9.2988,9.2988,9.2988,9.2988,9.2988,9.2988,9.2988,9.3174,9.3582,9.3991,9.44,9.4808,9.5626,9.6443,9.7297,9.8523,9.8895,8.0975,8.1758,8.2265,8.2164,0.0,8.2078,0.0,0.0,0.0,8.4536,8.5565,8.664,8.7344,8.75,8.75,8.75,8.75,8.75,8.75,8.75,0.0,8.75,8.75,8.75,8.75,8.742,8.7414,8.7392,8.7224,8.6996,8.6807,8.6568,8.6317,8.6094,8.6094,8.6094,8.6094,8.6094,8.6094,8.6132,8.7709,8.8517,8.8748,9.0248,9.1056,9.121,9.121,9.0915,9.0444,9.0839,9.0762,9.0279,9.0952,9.121,9.1064,9.0015,8.9885,9.0105,8.9145,8.8786,8.8673,8.8748,8.8517,8.8158,8.8455,8.9459,9.0833,9.2542,9.2988,9.2988,9.2988,9.2988,9.2988,9.2988,9.2988,9.2988,9.2988,9.2988,9.2988,9.2988,9.2988,9.2988,9.2988,9.2988,9.2988,9.2988,9.2988,9.2988,9.2988,9.2988,9.2988,9.2988,9.2988,9.2988,9.2988,9.2988,9.2988,9.2988,9.2988,9.3062,9.3211,9.3359,9.3768,9.44,9.5068,9.5403,9.5403,9.6369,9.7223,9.7929,9.9378,9.9786,8.1873,8.2226,8.2304,0.0,8.2171,0.0,0.0,0.0,8.4389,8.4518,0.0,8.7162,8.746,0.0,0.0,8.75,8.75,8.75,8.75,8.75,8.75,8.75,8.75,8.75,8.75,8.742,8.7414,8.7392,8.7204,8.7025,8.6807,8.6568,8.6317,8.6094,8.6094,8.6094,8.6094,8.6094,8.6094,8.6094,8.7094,8.794,8.8709,8.9633,9.0479,9.121,9.121,9.0915,9.0402,9.0444,9.0193,8.9792,9.08,9.121,9.1064,9.0015,8.9649,8.9601,8.9023,8.8538,8.8232,8.8673,8.8517,8.8381,8.9793,9.035,9.0833,9.2542,9.2988,9.2988,9.2988,9.2988,9.2988,9.2988,9.2988,9.2988,9.2988,9.2988,9.2988,9.2988,9.2988,9.2988,9.2988,9.2988,9.2988,9.2988,9.2988,9.2988,9.2988,9.2988,9.2988,9.2988,9.2988,9.2988,9.2988,9.2988,9.2988,9.2988,9.2988,9.3322,9.4028,9.4734,9.518,9.5254,9.5365,9.5403,9.5403,9.6963,9.778,9.7929,9.882,9.9563,8.2028,8.2221,0.0,0.0,0.0,0.0,8.2031,0.0,8.4481,0.0,0.0,0.0,0.0,0.0,0.0,0.0,8.75,8.75,8.75,8.75,8.75,8.75,0.0,0.0,8.75,8.742,8.7414,8.7405,8.7336,8.7175,8.6966,8.6767,8.6519,8.6259,8.6153,8.6094,8.6094,8.6094,8.6094,8.6094,8.6978,8.7863,8.8709,8.9517,9.0402,9.121,9.121,9.0722,8.9931,9.0279,8.9885,8.9197,8.9977,9.0444,9.0684,9.0236,8.9839,8.9502,8.9023,8.8479,8.8146,8.8316,8.8458,8.8757,9.0105,9.0499,9.0833,9.2542,9.2988,9.2988,9.2988,9.2988,9.2988,9.2988,9.2988,9.2988,9.2988,9.2988,9.2988,9.2988,9.2988,9.2988,9.2988,9.2988,9.2988,9.2988,9.2988,9.2988,9.2988,9.2988,9.2988,9.2988,9.2988,9.2988,9.2988,9.2988,9.2988,9.2988,9.3434,9.3842,9.4177,9.544,9.6108,9.6108,9.6591,9.6852,9.6852,9.7557,9.8152,9.8635,9.9898,10.0715,8.2012,0.0,0.0,0.0,0.0,0.0,0.0,0.0,0.0,0.0,0.0,0.0,0.0,0.0,8.7366,8.7366,0.0,8.7369,8.7416,8.7372,8.7411,8.75,8.75,0.0,0.0,8.746,8.7418,8.7408,8.7401,8.7323,8.7105,8.6899,8.6683,8.6416,8.6177,8.6094,8.6094,8.6094,8.6094,8.6094,8.6748,8.7517,8.8363,8.921,9.0056,9.0864,9.1095,9.0605,8.9649,9.0022,8.9552,8.8673,8.9145,8.9601,8.9931,8.9931,8.9697,8.93,8.8786,8.8436,8.8084,8.8084,8.8316,8.88,8.9845,9.0313,9.0796,9.2245,9.2802,9.2988,9.2988,9.2988,9.2988,9.2988,9.2988,9.2988,9.2988,9.2988,9.2988,9.2988,9.2988,9.2988,9.2988,9.2988,9.2988,9.2988,9.2988,9.2988,9.2988,9.2988,9.2988,9.2988,9.2988,9.2988,9.2988,9.2988,9.3099,9.3256,9.3998,9.4555,9.471,9.6046,9.6825,9.6825,9.7418,9.7752,9.7752,9.7822,9.823,9.9047,10.0529,10.131,0.0,0.0,0.0,8.2264,0.0,0.0,0.0,0.0,8.3631,0.0,0.0,0.0,0.0,0.0,8.7027,8.7027,8.7027,0.0,0.0,8.7107,8.7156,8.746,8.75,8.75,0.0,8.75,8.746,8.7411,8.7408,8.7297,8.7105,8.6899,8.6683,8.6416,8.6177,8.6094,8.6094,8.6094,8.6094,8.6094,8.6132,8.6594,8.7478,8.8325,8.9171,8.9979,9.0825,9.0605,8.9601,8.9649,8.9023,8.8171,8.8616,8.8859,8.8859,8.8859,8.8859,8.8786,8.8256,8.8084,8.8084,8.8084,8.8084,8.8295,8.9087,8.9867,9.0685,9.1502,9.2356,9.2988,9.2988,9.2988,9.2988,9.2988,9.2988,9.2988,9.2988,9.2988,9.2988,9.2988,9.2988,9.2988,9.2988,9.2988,9.2988,9.2988,9.2988,9.2988,9.2988,9.2988,9.2988,9.2988,9.2988,9.2988,9.2988,9.2988,9.3256,9.3832,9.461,9.5318,9.5918,9.6805,9.7248,9.7248,9.7285,9.7285,9.7285,9.7502,9.7981,9.8796,9.9864,10.0789,0.0,0.0,8.1749,8.2046,0.0,0.0,0.0,0.0,0.0,0.0,0.0,0.0,0.0,0.0,8.7135,8.7135,8.7075,8.7027,0.0,8.704,8.7052,8.7165,8.7174,8.7198,8.7279,0.0,8.734,8.7411,8.7401,8.7381,8.7291,8.7092,8.6899,8.6683,8.6416,8.6238,8.6094,8.6094,8.6094,8.6094,8.6094,8.6555,8.744,8.8286,8.9133,8.9906,9.0417,9.0236,8.9601,8.9197,8.871,8.8084,8.8256,8.8316,8.8399,8.9076,8.9092,8.8729,8.8293,8.8316,8.8479,8.8171,8.8316,8.8666,8.9138,8.9867,9.0685,9.1465,9.2319,9.2988,9.2988,9.2988,9.2988,9.2988,9.2988,9.2988,9.2988,9.2922,9.2855,9.2988,9.2922,9.2788,9.2788,9.2788,9.2788,9.2788,9.2788,9.2751,9.2616,9.2684,9.2788,9.2788,9.2788,9.2788,9.2788,9.2684,9.2917,9.3661,9.4438,9.5251,9.5992,9.6842,9.7285,9.7285,9.7285,9.7285,9.7285,9.7358,9.7505,9.7801,9.8688,9.998,8.1387,8.1465,0.0,8.1831,8.1831,0.0,8.212,0.0,0.0,0.0,0.0,0.0,0.0,0.0,8.7104,8.7023,8.6947,8.6911,0.0,8.6894,8.6911,8.6843,8.6942,8.7036,8.7173,8.7186,8.7255,8.7408,8.7401,8.7392,8.7407,8.7203,8.702,8.6787,8.6544,8.6317,8.6094,8.6094,8.6094,8.6094,8.6094,8.6296,8.6693,8.7883,8.8689,8.9226,8.9863,8.9931,8.9552,8.8985,8.8538,8.8084,8.8084,8.8084,8.8208,8.8841,8.8841,8.8479,8.8171,8.8316,8.8479,8.8109,8.8256,8.8592,8.8741,8.9543,9.0536,9.0796,9.1808,9.2847,9.255,9.2699,9.2855,9.2751,9.2855,9.2855,9.2788,9.2684,9.2616,9.2751,9.2684,9.2616,9.2616,9.2616,9.2616,9.2616,9.2616,9.2547,9.2409,9.2547,9.2616,9.2616,9.2616,9.2616,9.2616,9.2479,9.2742,9.3413,9.4224,9.5036,9.5774,9.6621,9.7063,9.7063,9.7063,9.7063,9.7063,9.7138,9.7211,9.7211,9.7467,9.8351]}]]